Time,TemperatureF,DewpointF,PressureIn,WindDirection,WindDirectionDegrees,WindSpeedMPH,WindSpeedGustMPH,Humidity,HourlyPrecipIn,Conditions,Clouds,dailyrainin,SoftwareType,DateUTC
2013-03-24 00:00:00,35.6,24.3,29.75,NW,310,14.0,19.0,63,0.00,,---,0.00,VWS V14.01,2013-03-24 04:00:00,
2013-03-24 00:01:00,35.6,24.3,29.75,NW,309,12.0,16.0,63,0.00,,---,0.00,VWS V14.01,2013-03-24 04:01:00,
2013-03-24 00:02:00,35.6,25.0,29.75,NW,304,13.0,16.0,65,0.00,,---,0.00,VWS V14.01,2013-03-24 04:02:00,
2013-03-24 00:03:00,35.6,25.4,29.76,WNW,303,13.0,16.0,66,0.00,,---,0.00,VWS V14.01,2013-03-24 04:03:00,
2013-03-24 00:04:00,35.6,25.0,29.75,WNW,299,15.0,16.0,65,0.00,,---,0.00,VWS V14.01,2013-03-24 04:04:00,
2013-03-24 00:05:00,35.6,25.0,29.75,WNW,302,13.0,16.0,65,0.00,,---,0.00,VWS V14.01,2013-03-24 04:05:00,
2013-03-24 00:06:00,35.6,25.0,29.75,NW,308,14.0,16.0,65,0.00,,---,0.00,VWS V14.01,2013-03-24 04:06:00,
2013-03-24 00:07:00,35.6,25.0,29.75,NW,306,13.0,16.0,65,0.00,,---,0.00,VWS V14.01,2013-03-24 04:07:00,
2013-03-24 00:08:00,35.5,25.3,29.75,NW,310,13.0,16.0,66,0.00,,---,0.00,VWS V14.01,2013-03-24 04:08:00,
2013-03-24 00:09:00,35.5,24.9,29.75,NW,309,13.0,16.0,65,0.00,,---,0.00,VWS V14.01,2013-03-24 04:09:00,
2013-03-24 00:10:00,35.6,25.4,29.75,NW,306,14.0,16.0,66,0.00,,---,0.00,VWS V14.01,2013-03-24 04:10:00,
2013-03-24 00:11:00,35.6,25.7,29.75,NW,311,15.0,16.0,67,0.00,,---,0.00,VWS V14.01,2013-03-24 04:11:00,
2013-03-24 00:12:00,35.6,24.6,29.75,NW,315,12.0,17.0,64,0.00,,---,0.00,VWS V14.01,2013-03-24 04:12:00,
2013-03-24 00:13:00,35.5,24.5,29.75,NW,307,13.0,17.0,64,0.00,,---,0.00,VWS V14.01,2013-03-24 04:13:00,
2013-03-24 00:14:00,35.5,24.2,29.75,NW,321,15.0,17.0,63,0.00,,---,0.00,VWS V14.01,2013-03-24 04:14:00,
2013-03-24 00:15:00,35.5,24.2,29.75,NW,309,12.0,17.0,63,0.00,,---,0.00,VWS V14.01,2013-03-24 04:15:00,
2013-03-24 00:16:00,35.5,24.9,29.75,NW,305,12.0,17.0,65,0.00,,---,0.00,VWS V14.01,2013-03-24 04:16:00,
2013-03-24 00:17:00,35.5,25.6,29.75,NW,304,14.0,17.0,67,0.00,,---,0.00,VWS V14.01,2013-03-24 04:17:00,
2013-03-24 00:18:00,35.6,25.7,29.75,NW,304,14.0,17.0,67,0.00,,---,0.00,VWS V14.01,2013-03-24 04:18:00,
2013-03-24 00:19:00,35.5,24.9,29.75,NW,317,14.0,17.0,65,0.00,,---,0.00,VWS V14.01,2013-03-24 04:19:00,
2013-03-24 00:20:00,35.5,25.3,29.75,NW,310,15.0,17.0,66,0.00,,---,0.00,VWS V14.01,2013-03-24 04:20:00,
2013-03-24 00:21:00,35.5,24.5,29.75,NW,311,13.0,17.0,64,0.00,,---,0.00,VWS V14.01,2013-03-24 04:21:00,
2013-03-24 00:22:00,35.4,24.1,29.75,NW,309,13.0,17.0,63,0.00,,---,0.00,VWS V14.01,2013-03-24 04:22:00,
2013-03-24 00:23:00,35.4,24.5,29.75,NW,318,12.0,17.0,64,0.00,,---,0.00,VWS V14.01,2013-03-24 04:23:00,
2013-03-24 00:24:00,35.4,25.2,29.75,NW,309,13.0,17.0,66,0.00,,---,0.00,VWS V14.01,2013-03-24 04:24:00,
2013-03-24 00:25:00,35.4,25.2,29.75,NW,313,11.0,17.0,66,0.00,,---,0.00,VWS V14.01,2013-03-24 04:25:00,
2013-03-24 00:26:00,35.4,25.5,29.75,NW,310,13.0,17.0,67,0.00,,---,0.00,VWS V14.01,2013-03-24 04:26:00,
2013-03-24 00:27:00,35.4,24.8,29.75,NW,322,13.0,17.0,65,0.00,,---,0.00,VWS V14.01,2013-03-24 04:27:00,
2013-03-24 00:28:00,35.4,25.2,29.75,NW,313,12.0,17.0,66,0.00,,---,0.00,VWS V14.01,2013-03-24 04:28:00,
2013-03-24 00:29:00,35.4,26.3,29.75,NW,312,14.0,17.0,69,0.00,,---,0.00,VWS V14.01,2013-03-24 04:29:00,
2013-03-24 00:30:00,35.5,26.4,29.75,NW,309,13.0,17.0,69,0.00,,---,0.00,VWS V14.01,2013-03-24 04:30:00,
2013-03-24 00:31:00,35.4,25.5,29.75,NW,309,12.0,16.0,67,0.00,,---,0.00,VWS V14.01,2013-03-24 04:31:00,
2013-03-24 00:32:00,35.4,25.9,29.75,NW,317,13.0,16.0,68,0.00,,---,0.00,VWS V14.01,2013-03-24 04:32:00,
2013-03-24 00:33:00,35.4,25.5,29.75,NW,306,14.0,16.0,67,0.00,,---,0.00,VWS V14.01,2013-03-24 04:33:00,
2013-03-24 00:34:00,35.4,25.2,29.74,NW,306,11.0,16.0,66,0.00,,---,0.00,VWS V14.01,2013-03-24 04:34:00,
2013-03-24 00:35:00,35.4,25.5,29.74,NW,309,15.0,17.0,67,0.00,,---,0.00,VWS V14.01,2013-03-24 04:35:00,
2013-03-24 00:36:00,35.4,25.5,29.75,NW,304,13.0,17.0,67,0.00,,---,0.00,VWS V14.01,2013-03-24 04:36:00,
2013-03-24 00:37:00,35.4,25.5,29.75,NW,309,15.0,17.0,67,0.00,,---,0.00,VWS V14.01,2013-03-24 04:37:00,
2013-03-24 00:38:00,35.3,25.1,29.75,NW,311,13.0,17.0,66,0.00,,---,0.00,VWS V14.01,2013-03-24 04:38:00,
2013-03-24 00:39:00,35.3,25.5,29.75,NW,308,13.0,17.0,67,0.00,,---,0.00,VWS V14.01,2013-03-24 04:39:00,
2013-03-24 00:40:00,35.3,25.8,29.75,NW,311,11.0,17.0,68,0.00,,---,0.00,VWS V14.01,2013-03-24 04:40:00,
2013-03-24 00:41:00,35.3,25.8,29.75,NW,309,13.0,17.0,68,0.00,,---,0.00,VWS V14.01,2013-03-24 04:41:00,
2013-03-24 00:42:00,35.3,25.1,29.74,NW,323,14.0,17.0,66,0.00,,---,0.00,VWS V14.01,2013-03-24 04:42:00,
2013-03-24 00:43:00,35.3,24.7,29.75,NW,319,12.0,17.0,65,0.00,,---,0.00,VWS V14.01,2013-03-24 04:43:00,
2013-03-24 00:44:00,35.3,25.1,29.75,NW,313,14.0,17.0,66,0.00,,---,0.00,VWS V14.01,2013-03-24 04:44:00,
2013-03-24 00:45:00,35.3,25.1,29.75,NW,310,13.0,17.0,66,0.00,,---,0.00,VWS V14.01,2013-03-24 04:45:00,
2013-03-24 00:46:00,35.3,24.7,29.74,NW,310,15.0,17.0,65,0.00,,---,0.00,VWS V14.01,2013-03-24 04:46:00,
2013-03-24 00:47:00,35.3,25.1,29.75,NW,315,12.0,17.0,66,0.00,,---,0.00,VWS V14.01,2013-03-24 04:47:00,
2013-03-24 00:48:00,35.3,25.8,29.74,NW,312,14.0,17.0,68,0.00,,---,0.00,VWS V14.01,2013-03-24 04:48:00,
2013-03-24 00:49:00,35.3,25.8,29.74,NW,308,13.0,17.0,68,0.00,,---,0.00,VWS V14.01,2013-03-24 04:49:00,
2013-03-24 00:50:00,35.3,25.5,29.74,NW,311,15.0,17.0,67,0.00,,---,0.00,VWS V14.01,2013-03-24 04:50:00,
2013-03-24 00:51:00,35.3,25.8,29.74,NW,309,12.0,17.0,68,0.00,,---,0.00,VWS V14.01,2013-03-24 04:51:00,
2013-03-24 00:52:00,35.4,26.6,29.74,NW,313,14.0,17.0,70,0.00,,---,0.00,VWS V14.01,2013-03-24 04:52:00,
2013-03-24 00:53:00,35.3,25.5,29.74,NW,311,11.0,17.0,67,0.00,,---,0.00,VWS V14.01,2013-03-24 04:53:00,
2013-03-24 00:54:00,35.3,25.8,29.74,NW,316,11.0,17.0,68,0.00,,---,0.00,VWS V14.01,2013-03-24 04:54:00,
2013-03-24 00:55:00,35.3,25.8,29.74,NW,317,12.0,17.0,68,0.00,,---,0.00,VWS V14.01,2013-03-24 04:55:00,
2013-03-24 00:56:00,35.3,25.8,29.74,NW,306,14.0,17.0,68,0.00,,---,0.00,VWS V14.01,2013-03-24 04:56:00,
2013-03-24 00:57:00,35.3,25.8,29.74,NW,311,12.0,17.0,68,0.00,,---,0.00,VWS V14.01,2013-03-24 04:57:00,
2013-03-24 00:58:00,35.2,25.0,29.74,NW,311,14.0,17.0,66,0.00,,---,0.00,VWS V14.01,2013-03-24 04:58:00,
2013-03-24 00:59:00,35.2,25.0,29.74,NW,307,13.0,17.0,66,0.00,,---,0.00,VWS V14.01,2013-03-24 04:59:00,
2013-03-24 01:00:00,35.2,25.4,29.74,NW,307,14.0,17.0,67,0.00,,---,0.00,VWS V14.01,2013-03-24 05:00:00,
2013-03-24 01:01:00,35.2,25.0,29.75,WNW,303,14.0,14.0,66,0.00,,---,0.00,VWS V14.01,2013-03-24 05:01:00,
2013-03-24 01:02:00,35.2,25.7,29.75,NW,305,14.0,14.0,68,0.00,,---,0.00,VWS V14.01,2013-03-24 05:02:00,
2013-03-24 01:03:00,35.2,25.7,29.75,WNW,302,14.0,15.0,68,0.00,,---,0.00,VWS V14.01,2013-03-24 05:03:00,
2013-03-24 01:04:00,35.2,25.7,29.74,WNW,302,14.0,15.0,68,0.00,,---,0.00,VWS V14.01,2013-03-24 05:04:00,
2013-03-24 01:05:00,35.2,25.4,29.74,WNW,298,14.0,15.0,67,0.00,,---,0.00,VWS V14.01,2013-03-24 05:05:00,
2013-03-24 01:06:00,35.2,25.4,29.74,WNW,297,14.0,16.0,67,0.00,,---,0.00,VWS V14.01,2013-03-24 05:06:00,
2013-03-24 01:07:00,35.2,25.4,29.74,NW,311,12.0,16.0,67,0.00,,---,0.00,VWS V14.01,2013-03-24 05:07:00,
2013-03-24 01:08:00,35.2,26.1,29.74,NW,318,13.0,16.0,69,0.00,,---,0.00,VWS V14.01,2013-03-24 05:08:00,
2013-03-24 01:09:00,35.2,25.7,29.74,WNW,302,15.0,16.0,68,0.00,,---,0.00,VWS V14.01,2013-03-24 05:09:00,
2013-03-24 01:10:00,35.2,25.0,29.74,NW,304,14.0,16.0,66,0.00,,---,0.00,VWS V14.01,2013-03-24 05:10:00,
2013-03-24 01:11:00,35.2,25.0,29.74,NW,320,14.0,16.0,66,0.00,,---,0.00,VWS V14.01,2013-03-24 05:11:00,
2013-03-24 01:12:00,35.2,25.7,29.74,NW,308,14.0,16.0,68,0.00,,---,0.00,VWS V14.01,2013-03-24 05:12:00,
2013-03-24 01:13:00,35.2,25.7,29.74,NW,309,12.0,16.0,68,0.00,,---,0.00,VWS V14.01,2013-03-24 05:13:00,
2013-03-24 01:14:00,35.3,26.2,29.74,NW,309,13.0,16.0,69,0.00,,---,0.00,VWS V14.01,2013-03-24 05:14:00,
2013-03-24 01:15:00,35.3,26.5,29.74,NW,314,15.0,16.0,70,0.00,,---,0.00,VWS V14.01,2013-03-24 05:15:00,
2013-03-24 01:16:00,35.3,25.5,29.74,NW,313,13.0,16.0,67,0.00,,---,0.00,VWS V14.01,2013-03-24 05:16:00,
2013-03-24 01:17:00,35.2,25.4,29.74,NW,304,11.0,16.0,67,0.00,,---,0.00,VWS V14.01,2013-03-24 05:17:00,
2013-03-24 01:18:00,35.2,25.7,29.74,NW,315,14.0,16.0,68,0.00,,---,0.00,VWS V14.01,2013-03-24 05:18:00,
2013-03-24 01:19:00,35.2,25.4,29.74,NW,313,13.0,16.0,67,0.00,,---,0.00,VWS V14.01,2013-03-24 05:19:00,
2013-03-24 01:20:00,35.2,25.7,29.74,NW,305,13.0,16.0,68,0.00,,---,0.00,VWS V14.01,2013-03-24 05:20:00,
2013-03-24 01:21:00,35.2,25.7,29.74,NW,315,14.0,16.0,68,0.00,,---,0.00,VWS V14.01,2013-03-24 05:21:00,
2013-03-24 01:22:00,35.2,25.7,29.74,NW,317,12.0,16.0,68,0.00,,---,0.00,VWS V14.01,2013-03-24 05:22:00,
2013-03-24 01:23:00,35.2,26.1,29.74,NW,311,13.0,16.0,69,0.00,,---,0.00,VWS V14.01,2013-03-24 05:23:00,
2013-03-24 01:24:00,35.2,25.4,29.74,NW,306,15.0,16.0,67,0.00,,---,0.00,VWS V14.01,2013-03-24 05:24:00,
2013-03-24 01:25:00,35.1,25.6,29.74,NW,314,14.0,16.0,68,0.00,,---,0.00,VWS V14.01,2013-03-24 05:25:00,
2013-03-24 01:26:00,35.1,25.3,29.74,NW,319,12.0,16.0,67,0.00,,---,0.00,VWS V14.01,2013-03-24 05:26:00,
2013-03-24 01:27:00,35.1,25.3,29.74,NW,307,14.0,16.0,67,0.00,,---,0.00,VWS V14.01,2013-03-24 05:27:00,
2013-03-24 01:28:00,35.1,25.6,29.74,NW,322,12.0,16.0,68,0.00,,---,0.00,VWS V14.01,2013-03-24 05:28:00,
2013-03-24 01:29:00,35.1,25.3,29.74,NW,311,12.0,16.0,67,0.00,,---,0.00,VWS V14.01,2013-03-24 05:29:00,
2013-03-24 01:30:00,35.1,25.6,29.74,NW,311,13.0,16.0,68,0.00,,---,0.00,VWS V14.01,2013-03-24 05:30:00,
2013-03-24 01:31:00,35.1,25.6,29.74,NW,314,14.0,16.0,68,0.00,,---,0.00,VWS V14.01,2013-03-24 05:31:00,
2013-03-24 01:32:00,35.1,25.3,29.74,NW,310,13.0,16.0,67,0.00,,---,0.00,VWS V14.01,2013-03-24 05:32:00,
2013-03-24 01:33:00,35.1,25.6,29.74,NW,310,14.0,16.0,68,0.00,,---,0.00,VWS V14.01,2013-03-24 05:33:00,
2013-03-24 01:34:00,35.1,25.6,29.74,WNW,302,14.0,16.0,68,0.00,,---,0.00,VWS V14.01,2013-03-24 05:34:00,
2013-03-24 01:35:00,35.1,25.6,29.74,NW,309,13.0,16.0,68,0.00,,---,0.00,VWS V14.01,2013-03-24 05:35:00,
2013-03-24 01:36:00,35.1,25.6,29.75,NW,313,15.0,16.0,68,0.00,,---,0.00,VWS V14.01,2013-03-24 05:36:00,
2013-03-24 01:37:00,35.1,25.6,29.75,NW,310,14.0,16.0,68,0.00,,---,0.00,VWS V14.01,2013-03-24 05:37:00,
2013-03-24 01:38:00,35.1,26.0,29.75,WNW,303,15.0,16.0,69,0.00,,---,0.00,VWS V14.01,2013-03-24 05:38:00,
2013-03-24 01:39:00,35.1,26.3,29.75,NW,305,13.0,17.0,70,0.00,,---,0.00,VWS V14.01,2013-03-24 05:39:00,
2013-03-24 01:40:00,35.1,26.0,29.74,WNW,301,15.0,17.0,69,0.00,,---,0.00,VWS V14.01,2013-03-24 05:40:00,
2013-03-24 01:41:00,35.1,25.6,29.75,NW,307,14.0,17.0,68,0.00,,---,0.00,VWS V14.01,2013-03-24 05:41:00,
2013-03-24 01:42:00,35.1,25.6,29.74,NW,309,14.0,17.0,68,0.00,,---,0.00,VWS V14.01,2013-03-24 05:42:00,
2013-03-24 01:43:00,35.1,25.3,29.74,NW,306,13.0,17.0,67,0.00,,---,0.00,VWS V14.01,2013-03-24 05:43:00,
2013-03-24 01:44:00,35.1,26.0,29.74,WNW,302,14.0,17.0,69,0.00,,---,0.00,VWS V14.01,2013-03-24 05:44:00,
2013-03-24 01:45:00,35.1,26.0,29.74,NW,309,13.0,17.0,69,0.00,,---,0.00,VWS V14.01,2013-03-24 05:45:00,
2013-03-24 01:46:00,35.1,26.3,29.75,NW,307,13.0,17.0,70,0.00,,---,0.00,VWS V14.01,2013-03-24 05:46:00,
2013-03-24 01:47:00,35.1,26.3,29.75,NW,304,15.0,17.0,70,0.00,,---,0.00,VWS V14.01,2013-03-24 05:47:00,
2013-03-24 01:48:00,35.1,26.0,29.75,NW,306,13.0,17.0,69,0.00,,---,0.00,VWS V14.01,2013-03-24 05:48:00,
2013-03-24 01:49:00,35.1,25.6,29.75,NW,312,12.0,17.0,68,0.00,,---,0.00,VWS V14.01,2013-03-24 05:49:00,
2013-03-24 01:50:00,35.1,25.6,29.75,NW,311,12.0,17.0,68,0.00,,---,0.00,VWS V14.01,2013-03-24 05:50:00,
2013-03-24 01:51:00,35.1,25.6,29.75,NW,309,11.0,17.0,68,0.00,,---,0.00,VWS V14.01,2013-03-24 05:51:00,
2013-03-24 01:52:00,35.1,26.0,29.75,NW,307,10.0,17.0,69,0.00,,---,0.00,VWS V14.01,2013-03-24 05:52:00,
2013-03-24 01:53:00,35.1,26.0,29.75,NW,313,11.0,17.0,69,0.00,,---,0.00,VWS V14.01,2013-03-24 05:53:00,
2013-03-24 01:54:00,35.1,26.3,29.75,WNW,302,11.0,17.0,70,0.00,,---,0.00,VWS V14.01,2013-03-24 05:54:00,
2013-03-24 01:55:00,35.2,26.4,29.75,NW,309,11.0,17.0,70,0.00,,---,0.00,VWS V14.01,2013-03-24 05:55:00,
2013-03-24 01:56:00,35.1,26.0,29.75,WNW,303,12.0,17.0,69,0.00,,---,0.00,VWS V14.01,2013-03-24 05:56:00,
2013-03-24 01:57:00,35.1,25.6,29.75,NW,313,11.0,17.0,68,0.00,,---,0.00,VWS V14.01,2013-03-24 05:57:00,
2013-03-24 01:58:00,35.0,25.5,29.75,NW,305,12.0,17.0,68,0.00,,---,0.00,VWS V14.01,2013-03-24 05:58:00,
2013-03-24 01:59:00,35.1,25.6,29.75,NW,313,12.0,17.0,68,0.00,,---,0.00,VWS V14.01,2013-03-24 05:59:00,
2013-03-24 02:00:00,35.0,25.5,29.75,WNW,296,13.0,17.0,68,0.00,,---,0.00,VWS V14.01,2013-03-24 06:00:00,
2013-03-24 02:01:00,35.0,25.5,29.75,NW,304,11.0,15.0,68,0.00,,---,0.00,VWS V14.01,2013-03-24 06:01:00,
2013-03-24 02:02:00,35.0,25.2,29.76,WNW,302,12.0,15.0,67,0.00,,---,0.00,VWS V14.01,2013-03-24 06:02:00,
2013-03-24 02:03:00,35.0,25.5,29.76,WNW,303,11.0,15.0,68,0.00,,---,0.00,VWS V14.01,2013-03-24 06:03:00,
2013-03-24 02:04:00,34.9,25.4,29.76,WNW,296,14.0,15.0,68,0.00,,---,0.00,VWS V14.01,2013-03-24 06:04:00,
2013-03-24 02:05:00,34.9,25.4,29.76,WNW,298,11.0,15.0,68,0.00,,---,0.00,VWS V14.01,2013-03-24 06:05:00,
2013-03-24 02:06:00,34.9,25.4,29.76,WNW,294,13.0,15.0,68,0.00,,---,0.00,VWS V14.01,2013-03-24 06:06:00,
2013-03-24 02:07:00,35.0,26.2,29.76,WNW,303,12.0,15.0,70,0.00,,---,0.00,VWS V14.01,2013-03-24 06:07:00,
2013-03-24 02:08:00,35.0,25.9,29.76,WNW,298,11.0,15.0,69,0.00,,---,0.00,VWS V14.01,2013-03-24 06:08:00,
2013-03-24 02:09:00,35.0,25.9,29.76,NW,309,11.0,15.0,69,0.00,,---,0.00,VWS V14.01,2013-03-24 06:09:00,
2013-03-24 02:10:00,34.9,26.1,29.76,NW,309,9.0,15.0,70,0.00,,---,0.00,VWS V14.01,2013-03-24 06:10:00,
2013-03-24 02:11:00,34.9,26.1,29.76,NW,306,11.0,15.0,70,0.00,,---,0.00,VWS V14.01,2013-03-24 06:11:00,
2013-03-24 02:12:00,34.9,25.8,29.76,NW,311,8.0,15.0,69,0.00,,---,0.00,VWS V14.01,2013-03-24 06:12:00,
2013-03-24 02:13:00,34.9,25.8,29.76,NW,306,11.0,15.0,69,0.00,,---,0.00,VWS V14.01,2013-03-24 06:13:00,
2013-03-24 02:14:00,34.8,25.0,29.76,NW,320,9.0,15.0,67,0.00,,---,0.00,VWS V14.01,2013-03-24 06:14:00,
2013-03-24 02:15:00,34.8,26.0,29.76,NW,313,10.0,15.0,70,0.00,,---,0.00,VWS V14.01,2013-03-24 06:15:00,
2013-03-24 02:16:00,34.8,25.7,29.76,NW,306,9.0,15.0,69,0.00,,---,0.00,VWS V14.01,2013-03-24 06:16:00,
2013-03-24 02:17:00,34.8,25.3,29.76,NW,311,9.0,15.0,68,0.00,,---,0.00,VWS V14.01,2013-03-24 06:17:00,
2013-03-24 02:18:00,34.8,25.3,29.76,NW,313,11.0,15.0,68,0.00,,---,0.00,VWS V14.01,2013-03-24 06:18:00,
2013-03-24 02:19:00,34.7,25.2,29.76,NW,319,9.0,15.0,68,0.00,,---,0.00,VWS V14.01,2013-03-24 06:19:00,
2013-03-24 02:20:00,34.7,25.2,29.76,NW,319,8.0,15.0,68,0.00,,---,0.00,VWS V14.01,2013-03-24 06:20:00,
2013-03-24 02:21:00,34.7,25.2,29.76,NW,321,9.0,15.0,68,0.00,,---,0.00,VWS V14.01,2013-03-24 06:21:00,
2013-03-24 02:22:00,34.6,25.1,29.76,NW,322,9.0,15.0,68,0.00,,---,0.00,VWS V14.01,2013-03-24 06:22:00,
2013-03-24 02:23:00,34.6,25.1,29.76,NW,325,9.0,15.0,68,0.00,,---,0.00,VWS V14.01,2013-03-24 06:23:00,
2013-03-24 02:24:00,34.6,25.1,29.76,NW,323,8.0,15.0,68,0.00,,---,0.00,VWS V14.01,2013-03-24 06:24:00,
2013-03-24 02:25:00,34.6,25.1,29.76,NW,312,9.0,15.0,68,0.00,,---,0.00,VWS V14.01,2013-03-24 06:25:00,
2013-03-24 02:26:00,34.6,25.5,29.76,NW,313,8.0,15.0,69,0.00,,---,0.00,VWS V14.01,2013-03-24 06:26:00,
2013-03-24 02:27:00,34.6,25.8,29.75,NW,319,7.0,15.0,70,0.00,,---,0.00,VWS V14.01,2013-03-24 06:27:00,
2013-03-24 02:28:00,34.6,25.8,29.75,NW,316,8.0,15.0,70,0.00,,---,0.00,VWS V14.01,2013-03-24 06:28:00,
2013-03-24 02:29:00,34.6,25.8,29.75,NW,321,7.0,15.0,70,0.00,,---,0.00,VWS V14.01,2013-03-24 06:29:00,
2013-03-24 02:30:00,34.6,25.5,29.75,NNW,334,8.0,15.0,69,0.00,,---,0.00,VWS V14.01,2013-03-24 06:30:00,
2013-03-24 02:31:00,34.6,25.5,29.75,NNW,336,7.0,8.0,69,0.00,,---,0.00,VWS V14.01,2013-03-24 06:31:00,
2013-03-24 02:32:00,34.5,25.4,29.75,NNW,340,7.0,8.0,69,0.00,,---,0.00,VWS V14.01,2013-03-24 06:32:00,
2013-03-24 02:33:00,34.5,25.4,29.75,NNW,339,7.0,8.0,69,0.00,,---,0.00,VWS V14.01,2013-03-24 06:33:00,
2013-03-24 02:34:00,34.5,25.4,29.75,NNW,329,6.0,8.0,69,0.00,,---,0.00,VWS V14.01,2013-03-24 06:34:00,
2013-03-24 02:35:00,34.5,25.7,29.75,NNW,328,7.0,8.0,70,0.00,,---,0.00,VWS V14.01,2013-03-24 06:35:00,
2013-03-24 02:36:00,34.5,25.4,29.75,NW,326,7.0,8.0,69,0.00,,---,0.00,VWS V14.01,2013-03-24 06:36:00,
2013-03-24 02:37:00,34.5,25.7,29.75,NW,309,7.0,9.0,70,0.00,,---,0.00,VWS V14.01,2013-03-24 06:37:00,
2013-03-24 02:38:00,34.5,25.7,29.75,NW,313,7.0,9.0,70,0.00,,---,0.00,VWS V14.01,2013-03-24 06:38:00,
2013-03-24 02:39:00,34.5,25.4,29.75,NW,316,6.0,9.0,69,0.00,,---,0.00,VWS V14.01,2013-03-24 06:39:00,
2013-03-24 02:40:00,34.5,25.7,29.76,NW,313,9.0,9.0,70,0.00,,---,0.00,VWS V14.01,2013-03-24 06:40:00,
2013-03-24 02:41:00,34.5,25.7,29.76,NW,312,8.0,9.0,70,0.00,,---,0.00,VWS V14.01,2013-03-24 06:41:00,
2013-03-24 02:42:00,34.5,25.4,29.76,NW,326,8.0,9.0,69,0.00,,---,0.00,VWS V14.01,2013-03-24 06:42:00,
2013-03-24 02:43:00,34.5,25.4,29.76,NW,323,6.0,9.0,69,0.00,,---,0.00,VWS V14.01,2013-03-24 06:43:00,
2013-03-24 02:44:00,34.5,26.1,29.76,NW,315,7.0,9.0,71,0.00,,---,0.00,VWS V14.01,2013-03-24 06:44:00,
2013-03-24 02:45:00,34.6,25.8,29.76,NW,317,8.0,9.0,70,0.00,,---,0.00,VWS V14.01,2013-03-24 06:45:00,
2013-03-24 02:46:00,34.6,25.8,29.76,NW,312,7.0,9.0,70,0.00,,---,0.00,VWS V14.01,2013-03-24 06:46:00,
2013-03-24 02:47:00,34.5,25.7,29.76,NW,312,8.0,9.0,70,0.00,,---,0.00,VWS V14.01,2013-03-24 06:47:00,
2013-03-24 02:48:00,34.5,25.0,29.76,NW,311,8.0,9.0,68,0.00,,---,0.00,VWS V14.01,2013-03-24 06:48:00,
2013-03-24 02:49:00,34.5,25.7,29.76,NW,319,7.0,9.0,70,0.00,,---,0.00,VWS V14.01,2013-03-24 06:49:00,
2013-03-24 02:50:00,34.5,25.7,29.76,NW,315,9.0,9.0,70,0.00,,---,0.00,VWS V14.01,2013-03-24 06:50:00,
2013-03-24 02:51:00,34.5,25.4,29.76,NW,316,8.0,10.0,69,0.00,,---,0.00,VWS V14.01,2013-03-24 06:51:00,
2013-03-24 02:52:00,34.5,25.4,29.76,NW,317,8.0,10.0,69,0.00,,---,0.00,VWS V14.01,2013-03-24 06:52:00,
2013-03-24 02:53:00,34.5,25.7,29.76,NW,318,8.0,10.0,70,0.00,,---,0.00,VWS V14.01,2013-03-24 06:53:00,
2013-03-24 02:54:00,34.5,25.7,29.76,NW,317,7.0,10.0,70,0.00,,---,0.00,VWS V14.01,2013-03-24 06:54:00,
2013-03-24 02:55:00,34.5,25.4,29.76,NW,323,7.0,10.0,69,0.00,,---,0.00,VWS V14.01,2013-03-24 06:55:00,
2013-03-24 02:56:00,34.5,25.7,29.76,NW,318,9.0,10.0,70,0.00,,---,0.00,VWS V14.01,2013-03-24 06:56:00,
2013-03-24 02:57:00,34.5,25.4,29.76,NW,324,8.0,10.0,69,0.00,,---,0.00,VWS V14.01,2013-03-24 06:57:00,
2013-03-24 02:58:00,34.5,25.4,29.76,NNW,328,7.0,10.0,69,0.00,,---,0.00,VWS V14.01,2013-03-24 06:58:00,
2013-03-24 02:59:00,34.5,25.7,29.76,NW,319,8.0,10.0,70,0.00,,---,0.00,VWS V14.01,2013-03-24 06:59:00,
2013-03-24 03:00:00,34.5,25.7,29.76,NW,319,7.0,10.0,70,0.00,,---,0.00,VWS V14.01,2013-03-24 07:00:00,
2013-03-24 03:01:00,34.5,25.4,29.76,NW,319,7.0,8.0,69,0.00,,---,0.00,VWS V14.01,2013-03-24 07:01:00,
2013-03-24 03:02:00,34.6,26.2,29.77,NW,325,6.0,8.0,71,0.00,,---,0.00,VWS V14.01,2013-03-24 07:02:00,
2013-03-24 03:03:00,34.5,25.7,29.77,NW,321,7.0,8.0,70,0.00,,---,0.00,VWS V14.01,2013-03-24 07:03:00,
2013-03-24 03:04:00,34.6,26.2,29.77,NW,316,7.0,9.0,71,0.00,,---,0.00,VWS V14.01,2013-03-24 07:04:00,
2013-03-24 03:05:00,34.6,26.5,29.77,NW,313,9.0,10.0,72,0.00,,---,0.00,VWS V14.01,2013-03-24 07:05:00,
2013-03-24 03:06:00,34.6,26.5,29.77,NW,311,7.0,10.0,72,0.00,,---,0.00,VWS V14.01,2013-03-24 07:06:00,
2013-03-24 03:07:00,34.6,26.2,29.77,NW,305,7.0,10.0,71,0.00,,---,0.00,VWS V14.01,2013-03-24 07:07:00,
2013-03-24 03:08:00,34.6,25.8,29.78,NW,305,8.0,10.0,70,0.00,,---,0.00,VWS V14.01,2013-03-24 07:08:00,
2013-03-24 03:09:00,34.5,25.4,29.78,WNW,302,10.0,10.0,69,0.00,,---,0.00,VWS V14.01,2013-03-24 07:09:00,
2013-03-24 03:10:00,34.5,25.7,29.78,NW,306,8.0,10.0,70,0.00,,---,0.00,VWS V14.01,2013-03-24 07:10:00,
2013-03-24 03:11:00,34.5,25.7,29.78,NW,304,9.0,10.0,70,0.00,,---,0.00,VWS V14.01,2013-03-24 07:11:00,
2013-03-24 03:12:00,34.4,25.6,29.78,WNW,295,10.0,11.0,70,0.00,,---,0.00,VWS V14.01,2013-03-24 07:12:00,
2013-03-24 03:13:00,34.4,25.6,29.78,WNW,294,9.0,11.0,70,0.00,,---,0.00,VWS V14.01,2013-03-24 07:13:00,
2013-03-24 03:14:00,34.4,25.6,29.78,WNW,292,9.0,11.0,70,0.00,,---,0.00,VWS V14.01,2013-03-24 07:14:00,
2013-03-24 03:15:00,34.4,26.0,29.79,WNW,289,9.0,11.0,71,0.00,,---,0.00,VWS V14.01,2013-03-24 07:15:00,
2013-03-24 03:16:00,34.4,26.0,29.79,WNW,290,9.0,11.0,71,0.00,,---,0.00,VWS V14.01,2013-03-24 07:16:00,
2013-03-24 03:17:00,34.5,26.1,29.79,WNW,288,11.0,11.0,71,0.00,,---,0.00,VWS V14.01,2013-03-24 07:17:00,
2013-03-24 03:18:00,34.5,26.4,29.79,WNW,290,9.0,11.0,72,0.00,,---,0.00,VWS V14.01,2013-03-24 07:18:00,
2013-03-24 03:19:00,34.4,26.0,29.79,WNW,292,9.0,11.0,71,0.00,,---,0.00,VWS V14.01,2013-03-24 07:19:00,
2013-03-24 03:20:00,34.4,25.6,29.79,WNW,295,8.0,11.0,70,0.00,,---,0.00,VWS V14.01,2013-03-24 07:20:00,
2013-03-24 03:21:00,34.4,26.0,29.79,WNW,291,10.0,11.0,71,0.00,,---,0.00,VWS V14.01,2013-03-24 07:21:00,
2013-03-24 03:22:00,34.4,26.3,29.79,WNW,294,9.0,11.0,72,0.00,,---,0.00,VWS V14.01,2013-03-24 07:22:00,
2013-03-24 03:23:00,34.5,26.1,29.79,WNW,297,10.0,11.0,71,0.00,,---,0.00,VWS V14.01,2013-03-24 07:23:00,
2013-03-24 03:24:00,34.4,25.6,29.79,WNW,297,9.0,11.0,70,0.00,,---,0.00,VWS V14.01,2013-03-24 07:24:00,
2013-03-24 03:25:00,34.5,26.1,29.79,WNW,296,9.0,11.0,71,0.00,,---,0.00,VWS V14.01,2013-03-24 07:25:00,
2013-03-24 03:26:00,34.5,25.7,29.79,WNW,296,10.0,11.0,70,0.00,,---,0.00,VWS V14.01,2013-03-24 07:26:00,
2013-03-24 03:27:00,34.5,25.7,29.79,WNW,294,10.0,11.0,70,0.00,,---,0.00,VWS V14.01,2013-03-24 07:27:00,
2013-03-24 03:28:00,34.5,25.7,29.79,WNW,295,11.0,11.0,70,0.00,,---,0.00,VWS V14.01,2013-03-24 07:28:00,
2013-03-24 03:29:00,34.5,26.1,29.79,WNW,296,11.0,12.0,71,0.00,,---,0.00,VWS V14.01,2013-03-24 07:29:00,
2013-03-24 03:30:00,34.5,26.1,29.79,WNW,298,10.0,12.0,71,0.00,,---,0.00,VWS V14.01,2013-03-24 07:30:00,
2013-03-24 03:31:00,34.5,25.7,29.79,WNW,296,10.0,11.0,70,0.00,,---,0.00,VWS V14.01,2013-03-24 07:31:00,
2013-03-24 03:32:00,34.5,25.7,29.79,WNW,294,10.0,11.0,70,0.00,,---,0.00,VWS V14.01,2013-03-24 07:32:00,
2013-03-24 03:33:00,34.5,26.4,29.79,WNW,299,10.0,12.0,72,0.00,,---,0.00,VWS V14.01,2013-03-24 07:33:00,
2013-03-24 03:34:00,34.6,26.5,29.79,WNW,294,10.0,12.0,72,0.00,,---,0.00,VWS V14.01,2013-03-24 07:34:00,
2013-03-24 03:35:00,34.6,26.2,29.79,WNW,297,11.0,13.0,71,0.00,,---,0.00,VWS V14.01,2013-03-24 07:35:00,
2013-03-24 03:36:00,34.6,26.2,29.79,WNW,297,9.0,13.0,71,0.00,,---,0.00,VWS V14.01,2013-03-24 07:36:00,
2013-03-24 03:37:00,34.6,26.2,29.79,WNW,296,10.0,13.0,71,0.00,,---,0.00,VWS V14.01,2013-03-24 07:37:00,
2013-03-24 03:38:00,34.6,26.2,29.79,WNW,292,11.0,13.0,71,0.00,,---,0.00,VWS V14.01,2013-03-24 07:38:00,
2013-03-24 03:39:00,34.5,25.7,29.79,WNW,294,12.0,13.0,70,0.00,,---,0.00,VWS V14.01,2013-03-24 07:39:00,
2013-03-24 03:40:00,34.5,26.1,29.79,WNW,298,11.0,13.0,71,0.00,,---,0.00,VWS V14.01,2013-03-24 07:40:00,
2013-03-24 03:41:00,34.5,25.7,29.79,WNW,302,10.0,13.0,70,0.00,,---,0.00,VWS V14.01,2013-03-24 07:41:00,
2013-03-24 03:42:00,34.5,26.1,29.79,WNW,298,11.0,13.0,71,0.00,,---,0.00,VWS V14.01,2013-03-24 07:42:00,
2013-03-24 03:43:00,34.6,26.2,29.79,WNW,300,11.0,13.0,71,0.00,,---,0.00,VWS V14.01,2013-03-24 07:43:00,
2013-03-24 03:44:00,34.6,26.2,29.79,WNW,300,12.0,13.0,71,0.00,,---,0.00,VWS V14.01,2013-03-24 07:44:00,
2013-03-24 03:45:00,34.5,26.1,29.79,NW,304,10.0,13.0,71,0.00,,---,0.00,VWS V14.01,2013-03-24 07:45:00,
2013-03-24 03:46:00,34.6,26.2,29.79,WNW,302,11.0,13.0,71,0.00,,---,0.00,VWS V14.01,2013-03-24 07:46:00,
2013-03-24 03:47:00,34.6,26.5,29.79,NW,304,10.0,13.0,72,0.00,,---,0.00,VWS V14.01,2013-03-24 07:47:00,
2013-03-24 03:48:00,34.6,26.5,29.79,NW,306,12.0,13.0,72,0.00,,---,0.00,VWS V14.01,2013-03-24 07:48:00,
2013-03-24 03:49:00,34.6,26.2,29.79,WNW,301,9.0,13.0,71,0.00,,---,0.00,VWS V14.01,2013-03-24 07:49:00,
2013-03-24 03:50:00,34.5,26.1,29.79,NW,312,12.0,13.0,71,0.00,,---,0.00,VWS V14.01,2013-03-24 07:50:00,
2013-03-24 03:51:00,34.6,26.2,29.79,WNW,300,12.0,15.0,71,0.00,,---,0.00,VWS V14.01,2013-03-24 07:51:00,
2013-03-24 03:52:00,34.5,25.7,29.80,NW,311,11.0,15.0,70,0.00,,---,0.00,VWS V14.01,2013-03-24 07:52:00,
2013-03-24 03:53:00,34.6,26.2,29.80,NW,306,11.0,15.0,71,0.00,,---,0.00,VWS V14.01,2013-03-24 07:53:00,
2013-03-24 03:54:00,34.6,25.8,29.80,NW,309,10.0,15.0,70,0.00,,---,0.00,VWS V14.01,2013-03-24 07:54:00,
2013-03-24 03:55:00,34.6,25.8,29.80,NW,305,10.0,15.0,70,0.00,,---,0.00,VWS V14.01,2013-03-24 07:55:00,
2013-03-24 03:56:00,34.6,26.2,29.80,NW,326,12.0,15.0,71,0.00,,---,0.00,VWS V14.01,2013-03-24 07:56:00,
2013-03-24 03:57:00,34.7,25.9,29.80,NW,310,11.0,15.0,70,0.00,,---,0.00,VWS V14.01,2013-03-24 07:57:00,
2013-03-24 03:58:00,34.6,25.8,29.80,NW,316,11.0,15.0,70,0.00,,---,0.00,VWS V14.01,2013-03-24 07:58:00,
2013-03-24 03:59:00,34.6,25.8,29.79,NW,314,12.0,15.0,70,0.00,,---,0.00,VWS V14.01,2013-03-24 07:59:00,
2013-03-24 04:00:00,34.6,25.8,29.79,NW,311,13.0,15.0,70,0.00,,---,0.00,VWS V14.01,2013-03-24 08:00:00,
2013-03-24 04:01:00,34.6,25.8,29.79,NW,310,10.0,14.0,70,0.00,,---,0.00,VWS V14.01,2013-03-24 08:01:00,
2013-03-24 04:02:00,34.6,26.5,29.79,NW,312,10.0,14.0,72,0.00,,---,0.00,VWS V14.01,2013-03-24 08:02:00,
2013-03-24 04:03:00,34.6,26.2,29.79,NW,309,12.0,14.0,71,0.00,,---,0.00,VWS V14.01,2013-03-24 08:03:00,
2013-03-24 04:04:00,34.6,26.2,29.79,NW,307,11.0,14.0,71,0.00,,---,0.00,VWS V14.01,2013-03-24 08:04:00,
2013-03-24 04:05:00,34.5,25.7,29.79,NW,315,8.0,14.0,70,0.00,,---,0.00,VWS V14.01,2013-03-24 08:05:00,
2013-03-24 04:06:00,34.5,25.7,29.80,NW,319,11.0,14.0,70,0.00,,---,0.00,VWS V14.01,2013-03-24 08:06:00,
2013-03-24 04:07:00,34.5,26.1,29.80,NW,319,10.0,14.0,71,0.00,,---,0.00,VWS V14.01,2013-03-24 08:07:00,
2013-03-24 04:08:00,34.5,26.1,29.80,NW,315,11.0,14.0,71,0.00,,---,0.00,VWS V14.01,2013-03-24 08:08:00,
2013-03-24 04:09:00,34.5,25.7,29.79,NW,317,11.0,14.0,70,0.00,,---,0.00,VWS V14.01,2013-03-24 08:09:00,
2013-03-24 04:10:00,34.5,26.1,29.79,NW,317,10.0,14.0,71,0.00,,---,0.00,VWS V14.01,2013-03-24 08:10:00,
2013-03-24 04:11:00,34.5,25.4,29.79,NW,309,11.0,14.0,69,0.00,,---,0.00,VWS V14.01,2013-03-24 08:11:00,
2013-03-24 04:12:00,34.5,25.7,29.79,NW,310,14.0,14.0,70,0.00,,---,0.00,VWS V14.01,2013-03-24 08:12:00,
2013-03-24 04:13:00,34.5,25.4,29.79,NW,315,10.0,14.0,69,0.00,,---,0.00,VWS V14.01,2013-03-24 08:13:00,
2013-03-24 04:14:00,34.5,26.1,29.80,NW,313,10.0,14.0,71,0.00,,---,0.00,VWS V14.01,2013-03-24 08:14:00,
2013-03-24 04:15:00,34.6,26.2,29.79,NW,312,11.0,14.0,71,0.00,,---,0.00,VWS V14.01,2013-03-24 08:15:00,
2013-03-24 04:16:00,34.6,26.5,29.79,NW,315,10.0,14.0,72,0.00,,---,0.00,VWS V14.01,2013-03-24 08:16:00,
2013-03-24 04:17:00,34.6,26.2,29.79,NW,313,12.0,14.0,71,0.00,,---,0.00,VWS V14.01,2013-03-24 08:17:00,
2013-03-24 04:18:00,34.6,25.5,29.79,NW,322,12.0,14.0,69,0.00,,---,0.00,VWS V14.01,2013-03-24 08:18:00,
2013-03-24 04:19:00,34.6,26.2,29.80,NW,312,12.0,14.0,71,0.00,,---,0.00,VWS V14.01,2013-03-24 08:19:00,
2013-03-24 04:20:00,34.7,26.3,29.79,NW,317,12.0,14.0,71,0.00,,---,0.00,VWS V14.01,2013-03-24 08:20:00,
2013-03-24 04:21:00,34.7,25.9,29.79,NW,317,12.0,14.0,70,0.00,,---,0.00,VWS V14.01,2013-03-24 08:21:00,
2013-03-24 04:22:00,34.6,25.8,29.79,NW,314,11.0,14.0,70,0.00,,---,0.00,VWS V14.01,2013-03-24 08:22:00,
2013-03-24 04:23:00,34.6,25.8,29.79,NW,321,13.0,14.0,70,0.00,,---,0.00,VWS V14.01,2013-03-24 08:23:00,
2013-03-24 04:24:00,34.7,26.3,29.80,NW,322,11.0,14.0,71,0.00,,---,0.00,VWS V14.01,2013-03-24 08:24:00,
2013-03-24 04:25:00,34.7,26.3,29.80,NW,314,11.0,14.0,71,0.00,,---,0.00,VWS V14.01,2013-03-24 08:25:00,
2013-03-24 04:26:00,34.8,26.4,29.80,NW,319,12.0,14.0,71,0.00,,---,0.00,VWS V14.01,2013-03-24 08:26:00,
2013-03-24 04:27:00,34.8,26.4,29.80,NW,323,11.0,15.0,71,0.00,,---,0.00,VWS V14.01,2013-03-24 08:27:00,
2013-03-24 04:28:00,34.8,25.7,29.80,NW,321,11.0,15.0,69,0.00,,---,0.00,VWS V14.01,2013-03-24 08:28:00,
2013-03-24 04:29:00,34.8,26.0,29.80,NNW,330,12.0,15.0,70,0.00,,---,0.00,VWS V14.01,2013-03-24 08:29:00,
2013-03-24 04:30:00,34.8,26.4,29.80,NW,321,11.0,15.0,71,0.00,,---,0.00,VWS V14.01,2013-03-24 08:30:00,
2013-03-24 04:31:00,34.9,26.1,29.79,NW,322,13.0,15.0,70,0.00,,---,0.00,VWS V14.01,2013-03-24 08:31:00,
2013-03-24 04:32:00,34.9,25.8,29.80,NW,321,11.0,15.0,69,0.00,,---,0.00,VWS V14.01,2013-03-24 08:32:00,
2013-03-24 04:33:00,35.0,26.6,29.80,NNW,331,12.0,15.0,71,0.00,,---,0.00,VWS V14.01,2013-03-24 08:33:00,
2013-03-24 04:34:00,35.0,26.2,29.80,NW,316,13.0,15.0,70,0.00,,---,0.00,VWS V14.01,2013-03-24 08:34:00,
2013-03-24 04:35:00,35.0,25.9,29.80,NNW,329,13.0,15.0,69,0.00,,---,0.00,VWS V14.01,2013-03-24 08:35:00,
2013-03-24 04:36:00,35.1,26.3,29.79,NNW,332,14.0,15.0,70,0.00,,---,0.00,VWS V14.01,2013-03-24 08:36:00,
2013-03-24 04:37:00,35.1,26.3,29.79,NNW,329,12.0,15.0,70,0.00,,---,0.00,VWS V14.01,2013-03-24 08:37:00,
2013-03-24 04:38:00,35.2,26.4,29.79,NNW,337,14.0,15.0,70,0.00,,---,0.00,VWS V14.01,2013-03-24 08:38:00,
2013-03-24 04:39:00,35.2,26.4,29.79,NNW,339,15.0,16.0,70,0.00,,---,0.00,VWS V14.01,2013-03-24 08:39:00,
2013-03-24 04:40:00,35.3,26.2,29.79,NW,320,12.0,16.0,69,0.00,,---,0.00,VWS V14.01,2013-03-24 08:40:00,
2013-03-24 04:41:00,35.3,26.5,29.79,NW,325,13.0,16.0,70,0.00,,---,0.00,VWS V14.01,2013-03-24 08:41:00,
2013-03-24 04:42:00,35.4,27.0,29.79,NW,325,12.0,16.0,71,0.00,,---,0.00,VWS V14.01,2013-03-24 08:42:00,
2013-03-24 04:43:00,35.4,26.6,29.79,NW,320,12.0,16.0,70,0.00,,---,0.00,VWS V14.01,2013-03-24 08:43:00,
2013-03-24 04:44:00,35.4,26.6,29.79,NW,322,16.0,16.0,70,0.00,,---,0.00,VWS V14.01,2013-03-24 08:44:00,
2013-03-24 04:45:00,35.4,26.6,29.79,NNW,334,15.0,16.0,70,0.00,,---,0.00,VWS V14.01,2013-03-24 08:45:00,
2013-03-24 04:46:00,35.5,26.4,29.79,NW,324,16.0,17.0,69,0.00,,---,0.00,VWS V14.01,2013-03-24 08:46:00,
2013-03-24 04:47:00,35.5,26.4,29.79,NNW,340,14.0,17.0,69,0.00,,---,0.00,VWS V14.01,2013-03-24 08:47:00,
2013-03-24 04:48:00,35.5,26.0,29.79,NNW,335,13.0,17.0,68,0.00,,---,0.00,VWS V14.01,2013-03-24 08:48:00,
2013-03-24 04:49:00,35.6,26.5,29.80,NNW,335,12.0,17.0,69,0.00,,---,0.00,VWS V14.01,2013-03-24 08:49:00,
2013-03-24 04:50:00,35.6,26.5,29.80,NNW,330,11.0,17.0,69,0.00,,---,0.00,VWS V14.01,2013-03-24 08:50:00,
2013-03-24 04:51:00,35.7,26.9,29.79,NNW,328,12.0,17.0,70,0.00,,---,0.00,VWS V14.01,2013-03-24 08:51:00,
2013-03-24 04:52:00,35.7,27.2,29.79,NNW,331,15.0,17.0,71,0.00,,---,0.00,VWS V14.01,2013-03-24 08:52:00,
2013-03-24 04:53:00,35.7,26.5,29.79,North,355,15.0,17.0,69,0.00,,---,0.00,VWS V14.01,2013-03-24 08:53:00,
2013-03-24 04:54:00,35.7,26.5,29.79,NNW,329,16.0,18.0,69,0.00,,---,0.00,VWS V14.01,2013-03-24 08:54:00,
2013-03-24 04:55:00,35.8,26.6,29.79,NNW,333,15.0,18.0,69,0.00,,---,0.00,VWS V14.01,2013-03-24 08:55:00,
2013-03-24 04:56:00,35.8,26.3,29.79,NNW,327,12.0,18.0,68,0.00,,---,0.00,VWS V14.01,2013-03-24 08:56:00,
2013-03-24 04:57:00,35.8,26.6,29.79,NNW,327,11.0,18.0,69,0.00,,---,0.00,VWS V14.01,2013-03-24 08:57:00,
2013-03-24 04:58:00,35.8,26.6,29.79,NNW,329,13.0,18.0,69,0.00,,---,0.00,VWS V14.01,2013-03-24 08:58:00,
2013-03-24 04:59:00,35.8,26.3,29.79,NNW,328,12.0,18.0,68,0.00,,---,0.00,VWS V14.01,2013-03-24 08:59:00,
2013-03-24 05:00:00,35.8,25.9,29.79,NW,314,13.0,18.0,67,0.00,,---,0.00,VWS V14.01,2013-03-24 09:00:00,
2013-03-24 05:01:00,35.9,26.4,29.79,NW,323,13.0,15.0,68,0.00,,---,0.00,VWS V14.01,2013-03-24 09:01:00,
2013-03-24 05:02:00,35.9,26.4,29.79,WNW,302,13.0,15.0,68,0.00,,---,0.00,VWS V14.01,2013-03-24 09:02:00,
2013-03-24 05:03:00,36.0,27.2,29.79,NW,320,12.0,15.0,70,0.00,,---,0.00,VWS V14.01,2013-03-24 09:03:00,
2013-03-24 05:04:00,36.0,26.8,29.79,NNW,331,15.0,15.0,69,0.00,,---,0.00,VWS V14.01,2013-03-24 09:04:00,
2013-03-24 05:05:00,36.1,26.6,29.79,NNW,338,13.0,16.0,68,0.00,,---,0.00,VWS V14.01,2013-03-24 09:05:00,
2013-03-24 05:06:00,36.1,26.2,29.79,NNW,327,14.0,17.0,67,0.00,,---,0.00,VWS V14.01,2013-03-24 09:06:00,
2013-03-24 05:07:00,36.1,26.2,29.79,NNW,332,14.0,18.0,67,0.00,,---,0.00,VWS V14.01,2013-03-24 09:07:00,
2013-03-24 05:08:00,36.1,25.9,29.79,NNW,338,13.0,18.0,66,0.00,,---,0.00,VWS V14.01,2013-03-24 09:08:00,
2013-03-24 05:09:00,36.2,26.7,29.79,NW,321,12.0,18.0,68,0.00,,---,0.00,VWS V14.01,2013-03-24 09:09:00,
2013-03-24 05:10:00,36.2,26.7,29.79,NNW,329,14.0,18.0,68,0.00,,---,0.00,VWS V14.01,2013-03-24 09:10:00,
2013-03-24 05:11:00,36.3,27.5,29.79,NNW,342,16.0,18.0,70,0.00,,---,0.00,VWS V14.01,2013-03-24 09:11:00,
2013-03-24 05:12:00,36.3,26.4,29.79,NW,323,14.0,18.0,67,0.00,,---,0.00,VWS V14.01,2013-03-24 09:12:00,
2013-03-24 05:13:00,36.4,26.1,29.79,NW,316,18.0,18.0,66,0.00,,---,0.00,VWS V14.01,2013-03-24 09:13:00,
2013-03-24 05:14:00,36.4,26.1,29.79,NNW,345,15.0,19.0,66,0.00,,---,0.00,VWS V14.01,2013-03-24 09:14:00,
2013-03-24 05:15:00,36.4,26.1,29.79,NNW,345,15.0,19.0,66,0.00,,---,0.00,VWS V14.01,2013-03-24 09:15:00,
2013-03-24 05:16:00,36.4,26.1,29.79,NNW,338,17.0,19.0,66,0.00,,---,0.00,VWS V14.01,2013-03-24 09:16:00,
2013-03-24 05:17:00,36.5,26.2,29.79,NNW,342,14.0,21.0,66,0.00,,---,0.00,VWS V14.01,2013-03-24 09:17:00,
2013-03-24 05:18:00,36.5,26.2,29.79,North,349,13.0,21.0,66,0.00,,---,0.00,VWS V14.01,2013-03-24 09:18:00,
2013-03-24 05:19:00,36.6,26.0,29.79,North,355,17.0,21.0,65,0.00,,---,0.00,VWS V14.01,2013-03-24 09:19:00,
2013-03-24 05:20:00,36.6,26.3,29.79,North,360,16.0,21.0,66,0.00,,---,0.00,VWS V14.01,2013-03-24 09:20:00,
2013-03-24 05:21:00,36.7,26.4,29.79,North,360,15.0,21.0,66,0.00,,---,0.00,VWS V14.01,2013-03-24 09:21:00,
2013-03-24 05:22:00,36.8,26.9,29.79,NNW,344,18.0,21.0,67,0.00,,---,0.00,VWS V14.01,2013-03-24 09:22:00,
2013-03-24 05:23:00,36.8,26.1,29.79,NNW,343,17.0,21.0,65,0.00,,---,0.00,VWS V14.01,2013-03-24 09:23:00,
2013-03-24 05:24:00,36.8,26.1,29.78,North,355,18.0,21.0,65,0.00,,---,0.00,VWS V14.01,2013-03-24 09:24:00,
2013-03-24 05:25:00,36.8,26.5,29.78,NNW,347,15.0,21.0,66,0.00,,---,0.00,VWS V14.01,2013-03-24 09:25:00,
2013-03-24 05:26:00,36.9,26.2,29.78,North,360,16.0,21.0,65,0.00,,---,0.00,VWS V14.01,2013-03-24 09:26:00,
2013-03-24 05:27:00,36.9,27.0,29.79,North,360,18.0,22.0,67,0.00,,---,0.00,VWS V14.01,2013-03-24 09:27:00,
2013-03-24 05:28:00,36.9,26.2,29.79,North,11,19.0,22.0,65,0.00,,---,0.00,VWS V14.01,2013-03-24 09:28:00,
2013-03-24 05:29:00,37.0,26.0,29.79,North,9,19.0,22.0,64,0.00,,---,0.00,VWS V14.01,2013-03-24 09:29:00,
2013-03-24 05:30:00,37.0,26.3,29.79,NNW,346,16.0,22.0,65,0.00,,---,0.00,VWS V14.01,2013-03-24 09:30:00,
2013-03-24 05:31:00,37.0,26.7,29.78,North,9,22.0,26.0,66,0.00,,---,0.00,VWS V14.01,2013-03-24 09:31:00,
2013-03-24 05:32:00,37.1,26.4,29.78,NNE,30,20.0,28.0,65,0.00,,---,0.00,VWS V14.01,2013-03-24 09:32:00,
2013-03-24 05:33:00,37.1,26.1,29.78,NNE,20,18.0,28.0,64,0.00,,---,0.00,VWS V14.01,2013-03-24 09:33:00,
2013-03-24 05:34:00,37.1,26.8,29.78,NNE,32,25.0,28.0,66,0.00,,---,0.00,VWS V14.01,2013-03-24 09:34:00,
2013-03-24 05:35:00,37.1,26.4,29.78,North,360,17.0,28.0,65,0.00,,---,0.00,VWS V14.01,2013-03-24 09:35:00,
2013-03-24 05:36:00,37.1,27.2,29.78,NNE,13,17.0,28.0,67,0.00,,---,0.00,VWS V14.01,2013-03-24 09:36:00,
2013-03-24 05:37:00,37.2,27.3,29.79,NNE,24,24.0,28.0,67,0.00,,---,0.00,VWS V14.01,2013-03-24 09:37:00,
2013-03-24 05:38:00,37.2,26.5,29.79,NNE,20,23.0,28.0,65,0.00,,---,0.00,VWS V14.01,2013-03-24 09:38:00,
2013-03-24 05:39:00,37.2,25.8,29.78,NNE,20,23.0,28.0,63,0.00,,---,0.00,VWS V14.01,2013-03-24 09:39:00,
2013-03-24 05:40:00,37.2,26.5,29.78,NNE,24,21.0,28.0,65,0.00,,---,0.00,VWS V14.01,2013-03-24 09:40:00,
2013-03-24 05:41:00,37.2,26.5,29.78,NNE,33,18.0,28.0,65,0.00,,---,0.00,VWS V14.01,2013-03-24 09:41:00,
2013-03-24 05:42:00,37.2,26.9,29.78,NNE,22,17.0,28.0,66,0.00,,---,0.00,VWS V14.01,2013-03-24 09:42:00,
2013-03-24 05:43:00,37.2,26.5,29.78,NNE,20,21.0,28.0,65,0.00,,---,0.00,VWS V14.01,2013-03-24 09:43:00,
2013-03-24 05:44:00,37.2,26.2,29.78,NNE,26,22.0,28.0,64,0.00,,---,0.00,VWS V14.01,2013-03-24 09:44:00,
2013-03-24 05:45:00,37.2,25.8,29.78,NNE,28,21.0,28.0,63,0.00,,---,0.00,VWS V14.01,2013-03-24 09:45:00,
2013-03-24 05:46:00,37.3,26.6,29.78,NE,38,20.0,28.0,65,0.00,,---,0.00,VWS V14.01,2013-03-24 09:46:00,
2013-03-24 05:47:00,37.3,26.3,29.78,North,360,13.0,28.0,64,0.00,,---,0.00,VWS V14.01,2013-03-24 09:47:00,
2013-03-24 05:48:00,37.3,27.0,29.78,North,360,16.0,28.0,66,0.00,,---,0.00,VWS V14.01,2013-03-24 09:48:00,
2013-03-24 05:49:00,37.3,26.6,29.79,NE,40,24.0,28.0,65,0.00,,---,0.00,VWS V14.01,2013-03-24 09:49:00,
2013-03-24 05:50:00,37.4,26.7,29.79,NNE,16,18.0,28.0,65,0.00,,---,0.00,VWS V14.01,2013-03-24 09:50:00,
2013-03-24 05:51:00,37.4,26.4,29.78,NNE,31,19.0,28.0,64,0.00,,---,0.00,VWS V14.01,2013-03-24 09:51:00,
2013-03-24 05:52:00,37.4,26.7,29.78,NNE,31,19.0,28.0,65,0.00,,---,0.00,VWS V14.01,2013-03-24 09:52:00,
2013-03-24 05:53:00,37.5,27.2,29.79,NE,37,15.0,28.0,66,0.00,,---,0.00,VWS V14.01,2013-03-24 09:53:00,
2013-03-24 05:54:00,37.5,27.5,29.79,NNE,19,14.0,28.0,67,0.00,,---,0.00,VWS V14.01,2013-03-24 09:54:00,
2013-03-24 05:55:00,37.5,27.2,29.79,NNE,27,15.0,28.0,66,0.00,,---,0.00,VWS V14.01,2013-03-24 09:55:00,
2013-03-24 05:56:00,37.5,27.5,29.79,NE,40,21.0,28.0,67,0.00,,---,0.00,VWS V14.01,2013-03-24 09:56:00,
2013-03-24 05:57:00,37.5,26.8,29.78,NE,34,17.0,28.0,65,0.00,,---,0.00,VWS V14.01,2013-03-24 09:57:00,
2013-03-24 05:58:00,37.5,26.5,29.78,NNE,14,19.0,28.0,64,0.00,,---,0.00,VWS V14.01,2013-03-24 09:58:00,
2013-03-24 05:59:00,37.6,26.2,29.79,NNE,18,17.0,28.0,63,0.00,,---,0.00,VWS V14.01,2013-03-24 09:59:00,
2013-03-24 06:00:00,37.6,26.5,29.79,North,9,17.0,28.0,64,0.00,,---,0.00,VWS V14.01,2013-03-24 10:00:00,
2013-03-24 06:01:00,37.7,27.4,29.79,NNE,30,20.0,23.0,66,0.00,,---,0.00,VWS V14.01,2013-03-24 10:01:00,
2013-03-24 06:02:00,37.7,26.3,29.79,NNE,29,18.0,23.0,63,0.00,,---,0.00,VWS V14.01,2013-03-24 10:02:00,
2013-03-24 06:03:00,37.7,26.6,29.79,NNE,19,19.0,23.0,64,0.00,,---,0.00,VWS V14.01,2013-03-24 10:03:00,
2013-03-24 06:04:00,37.7,26.3,29.79,NNE,25,17.0,23.0,63,0.00,,---,0.00,VWS V14.01,2013-03-24 10:04:00,
2013-03-24 06:05:00,37.7,27.0,29.79,NNE,21,20.0,23.0,65,0.00,,---,0.00,VWS V14.01,2013-03-24 10:05:00,
2013-03-24 06:06:00,37.7,26.6,29.79,NNE,18,21.0,24.0,64,0.00,,---,0.00,VWS V14.01,2013-03-24 10:06:00,
2013-03-24 06:07:00,37.7,26.6,29.79,NNE,17,20.0,26.0,64,0.00,,---,0.00,VWS V14.01,2013-03-24 10:07:00,
2013-03-24 06:08:00,37.7,26.3,29.79,NE,36,21.0,26.0,63,0.00,,---,0.00,VWS V14.01,2013-03-24 10:08:00,
2013-03-24 06:09:00,37.7,26.3,29.79,NNE,14,18.0,26.0,63,0.00,,---,0.00,VWS V14.01,2013-03-24 10:09:00,
2013-03-24 06:10:00,37.7,26.6,29.79,North,9,18.0,26.0,64,0.00,,---,0.00,VWS V14.01,2013-03-24 10:10:00,
2013-03-24 06:11:00,37.8,27.1,29.79,NE,43,17.0,26.0,65,0.00,,---,0.00,VWS V14.01,2013-03-24 10:11:00,
2013-03-24 06:12:00,37.8,27.1,29.79,NNE,26,15.0,26.0,65,0.00,,---,0.00,VWS V14.01,2013-03-24 10:12:00,
2013-03-24 06:13:00,37.9,27.2,29.79,NNE,33,15.0,26.0,65,0.00,,---,0.00,VWS V14.01,2013-03-24 10:13:00,
2013-03-24 06:14:00,37.9,28.3,29.79,NNE,19,18.0,26.0,68,0.00,,---,0.00,VWS V14.01,2013-03-24 10:14:00,
2013-03-24 06:15:00,37.9,26.8,29.79,NE,40,16.0,26.0,64,0.00,,---,0.00,VWS V14.01,2013-03-24 10:15:00,
2013-03-24 06:16:00,38.0,28.0,29.79,NNE,22,16.0,26.0,67,0.00,,---,0.00,VWS V14.01,2013-03-24 10:16:00,
2013-03-24 06:17:00,38.0,27.3,29.79,NNE,32,20.0,26.0,65,0.00,,---,0.00,VWS V14.01,2013-03-24 10:17:00,
2013-03-24 06:18:00,38.1,27.8,29.79,NNE,25,16.0,26.0,66,0.00,,---,0.00,VWS V14.01,2013-03-24 10:18:00,
2013-03-24 06:19:00,38.1,27.4,29.79,NE,35,19.0,26.0,65,0.00,,---,0.00,VWS V14.01,2013-03-24 10:19:00,
2013-03-24 06:20:00,38.1,27.0,29.79,NE,36,18.0,26.0,64,0.00,,---,0.00,VWS V14.01,2013-03-24 10:20:00,
2013-03-24 06:21:00,38.1,27.0,29.79,NNE,33,23.0,26.0,64,0.00,,---,0.00,VWS V14.01,2013-03-24 10:21:00,
2013-03-24 06:22:00,38.1,26.6,29.79,NNE,19,14.0,26.0,63,0.00,,---,0.00,VWS V14.01,2013-03-24 10:22:00,
2013-03-24 06:23:00,38.1,26.2,29.79,North,9,16.0,26.0,62,0.00,,---,0.00,VWS V14.01,2013-03-24 10:23:00,
2013-03-24 06:24:00,38.2,27.1,29.79,NNE,19,11.0,26.0,64,0.00,,---,0.00,VWS V14.01,2013-03-24 10:24:00,
2013-03-24 06:25:00,38.2,28.2,29.79,NNE,28,16.0,26.0,67,0.00,,---,0.00,VWS V14.01,2013-03-24 10:25:00,
2013-03-24 06:26:00,38.2,27.9,29.79,NNE,19,12.0,26.0,66,0.00,,---,0.00,VWS V14.01,2013-03-24 10:26:00,
2013-03-24 06:27:00,38.3,28.0,29.80,NE,34,14.0,26.0,66,0.00,,---,0.00,VWS V14.01,2013-03-24 10:27:00,
2013-03-24 06:28:00,38.3,28.0,29.80,NNE,19,15.0,26.0,66,0.00,,---,0.00,VWS V14.01,2013-03-24 10:28:00,
2013-03-24 06:29:00,38.3,27.6,29.80,NNE,30,15.0,26.0,65,0.00,,---,0.00,VWS V14.01,2013-03-24 10:29:00,
2013-03-24 06:30:00,38.3,27.6,29.80,NNE,28,17.0,17.0,65,0.00,,---,0.00,VWS V14.01,2013-03-24 10:30:00,
2013-03-24 06:31:00,38.4,26.9,29.80,NE,42,17.0,19.0,63,0.00,,---,0.00,VWS V14.01,2013-03-24 10:31:00,
2013-03-24 06:32:00,38.4,26.9,29.80,NE,45,18.0,21.0,63,0.00,,---,0.00,VWS V14.01,2013-03-24 10:32:00,
2013-03-24 06:33:00,38.4,26.9,29.80,NE,36,20.0,22.0,63,0.00,,---,0.00,VWS V14.01,2013-03-24 10:33:00,
2013-03-24 06:34:00,38.4,26.9,29.80,NNE,17,12.0,22.0,63,0.00,,---,0.00,VWS V14.01,2013-03-24 10:34:00,
2013-03-24 06:35:00,38.5,28.1,29.80,NNE,28,16.0,22.0,66,0.00,,---,0.00,VWS V14.01,2013-03-24 10:35:00,
2013-03-24 06:36:00,38.6,27.9,29.80,North,5,11.0,22.0,65,0.00,,---,0.00,VWS V14.01,2013-03-24 10:36:00,
2013-03-24 06:37:00,38.6,27.9,29.80,North,355,14.0,22.0,65,0.00,,---,0.00,VWS V14.01,2013-03-24 10:37:00,
2013-03-24 06:38:00,38.6,27.9,29.80,NNE,29,15.0,22.0,65,0.00,,---,0.00,VWS V14.01,2013-03-24 10:38:00,
2013-03-24 06:39:00,38.6,27.1,29.80,NNE,32,15.0,22.0,63,0.00,,---,0.00,VWS V14.01,2013-03-24 10:39:00,
2013-03-24 06:40:00,38.6,27.1,29.80,NNE,26,14.0,22.0,63,0.00,,---,0.00,VWS V14.01,2013-03-24 10:40:00,
2013-03-24 06:41:00,38.7,27.2,29.80,NE,39,16.0,22.0,63,0.00,,---,0.00,VWS V14.01,2013-03-24 10:41:00,
2013-03-24 06:42:00,38.7,28.0,29.80,NNE,16,19.0,22.0,65,0.00,,---,0.00,VWS V14.01,2013-03-24 10:42:00,
2013-03-24 06:43:00,38.7,28.0,29.80,NNE,25,13.0,22.0,65,0.00,,---,0.00,VWS V14.01,2013-03-24 10:43:00,
2013-03-24 06:44:00,38.6,27.5,29.80,NNE,22,17.0,22.0,64,0.00,,---,0.00,VWS V14.01,2013-03-24 10:44:00,
2013-03-24 06:45:00,38.6,26.7,29.80,NE,36,15.0,22.0,62,0.00,,---,0.00,VWS V14.01,2013-03-24 10:45:00,
2013-03-24 06:46:00,38.7,26.8,29.79,NNE,19,16.0,22.0,62,0.00,,---,0.00,VWS V14.01,2013-03-24 10:46:00,
2013-03-24 06:47:00,38.7,27.6,29.79,North,9,17.0,22.0,64,0.00,,---,0.00,VWS V14.01,2013-03-24 10:47:00,
2013-03-24 06:48:00,38.7,27.2,29.79,NNE,26,18.0,22.0,63,0.00,,---,0.00,VWS V14.01,2013-03-24 10:48:00,
2013-03-24 06:49:00,38.6,26.7,29.79,NNE,28,19.0,22.0,62,0.00,,---,0.00,VWS V14.01,2013-03-24 10:49:00,
2013-03-24 06:50:00,38.6,27.1,29.79,NNE,22,16.0,22.0,63,0.00,,---,0.00,VWS V14.01,2013-03-24 10:50:00,
2013-03-24 06:51:00,38.6,27.1,29.79,NNE,24,20.0,22.0,63,0.00,,---,0.00,VWS V14.01,2013-03-24 10:51:00,
2013-03-24 06:52:00,38.6,26.7,29.80,NNE,25,14.0,22.0,62,0.00,,---,0.00,VWS V14.01,2013-03-24 10:52:00,
2013-03-24 06:53:00,38.6,25.9,29.80,NNE,26,18.0,22.0,60,0.00,,---,0.00,VWS V14.01,2013-03-24 10:53:00,
2013-03-24 06:54:00,38.6,26.3,29.80,NNE,32,15.0,22.0,61,0.00,,---,0.00,VWS V14.01,2013-03-24 10:54:00,
2013-03-24 06:55:00,38.6,26.7,29.80,North,355,17.0,22.0,62,0.00,,---,0.00,VWS V14.01,2013-03-24 10:55:00,
2013-03-24 06:56:00,38.7,26.8,29.80,North,355,18.0,22.0,62,0.00,,---,0.00,VWS V14.01,2013-03-24 10:56:00,
2013-03-24 06:57:00,38.7,26.0,29.80,North,355,15.0,22.0,60,0.00,,---,0.00,VWS V14.01,2013-03-24 10:57:00,
2013-03-24 06:58:00,38.7,26.0,29.80,North,5,13.0,22.0,60,0.00,,---,0.00,VWS V14.01,2013-03-24 10:58:00,
2013-03-24 06:59:00,38.7,26.8,29.80,North,350,16.0,22.0,62,0.00,,---,0.00,VWS V14.01,2013-03-24 10:59:00,
2013-03-24 07:00:00,38.8,26.5,29.80,North,355,15.0,22.0,61,0.00,,---,0.00,VWS V14.01,2013-03-24 11:00:00,
2013-03-24 07:01:00,38.8,26.1,29.80,North,355,16.0,18.0,60,0.00,,---,0.00,VWS V14.01,2013-03-24 11:01:00,
2013-03-24 07:02:00,38.8,27.3,29.80,North,5,14.0,18.0,63,0.00,,---,0.00,VWS V14.01,2013-03-24 11:02:00,
2013-03-24 07:03:00,38.8,27.3,29.80,North,5,12.0,18.0,63,0.00,,---,0.00,VWS V14.01,2013-03-24 11:03:00,
2013-03-24 07:04:00,38.8,27.3,29.79,North,355,12.0,18.0,63,0.00,,---,0.00,VWS V14.01,2013-03-24 11:04:00,
2013-03-24 07:05:00,38.8,27.3,29.79,North,10,15.0,18.0,63,0.00,,---,0.00,VWS V14.01,2013-03-24 11:05:00,
2013-03-24 07:06:00,38.8,27.7,29.79,North,360,17.0,18.0,64,0.00,,---,0.00,VWS V14.01,2013-03-24 11:06:00,
2013-03-24 07:07:00,38.9,27.0,29.79,NNE,25,15.0,18.0,62,0.00,,---,0.00,VWS V14.01,2013-03-24 11:07:00,
2013-03-24 07:08:00,38.9,27.4,29.79,NE,34,14.0,18.0,63,0.00,,---,0.00,VWS V14.01,2013-03-24 11:08:00,
2013-03-24 07:09:00,39.0,27.9,29.80,NNE,26,15.0,18.0,64,0.00,,---,0.00,VWS V14.01,2013-03-24 11:09:00,
2013-03-24 07:10:00,38.9,27.4,29.80,NNE,28,16.0,18.0,63,0.00,,---,0.00,VWS V14.01,2013-03-24 11:10:00,
2013-03-24 07:11:00,39.0,26.7,29.80,NNE,29,14.0,18.0,61,0.00,,---,0.00,VWS V14.01,2013-03-24 11:11:00,
2013-03-24 07:12:00,39.0,27.1,29.79,NNE,33,12.0,18.0,62,0.00,,---,0.00,VWS V14.01,2013-03-24 11:12:00,
2013-03-24 07:13:00,39.0,26.3,29.79,NNE,24,13.0,18.0,60,0.00,,---,0.00,VWS V14.01,2013-03-24 11:13:00,
2013-03-24 07:14:00,39.1,26.8,29.79,NE,38,14.0,18.0,61,0.00,,---,0.00,VWS V14.01,2013-03-24 11:14:00,
2013-03-24 07:15:00,39.1,26.0,29.79,NE,34,12.0,18.0,59,0.00,,---,0.00,VWS V14.01,2013-03-24 11:15:00,
2013-03-24 07:16:00,39.1,26.8,29.79,NNE,24,8.0,18.0,61,0.00,,---,0.00,VWS V14.01,2013-03-24 11:16:00,
2013-03-24 07:17:00,39.1,26.8,29.79,North,5,7.0,18.0,61,0.00,,---,0.00,VWS V14.01,2013-03-24 11:17:00,
2013-03-24 07:18:00,39.1,27.6,29.80,NNE,23,13.0,18.0,63,0.00,,---,0.00,VWS V14.01,2013-03-24 11:18:00,
2013-03-24 07:19:00,39.2,26.5,29.80,North,360,12.0,18.0,60,0.00,,---,0.00,VWS V14.01,2013-03-24 11:19:00,
2013-03-24 07:20:00,39.2,26.1,29.80,North,5,10.0,18.0,59,0.00,,---,0.00,VWS V14.01,2013-03-24 11:20:00,
2013-03-24 07:21:00,39.3,25.8,29.79,NNW,333,15.0,18.0,58,0.00,,---,0.00,VWS V14.01,2013-03-24 11:21:00,
2013-03-24 07:22:00,39.3,27.0,29.79,NNE,17,13.0,18.0,61,0.00,,---,0.00,VWS V14.01,2013-03-24 11:22:00,
2013-03-24 07:23:00,39.3,27.4,29.79,North,355,12.0,18.0,62,0.00,,---,0.00,VWS V14.01,2013-03-24 11:23:00,
2013-03-24 07:24:00,39.3,27.8,29.80,NNW,343,14.0,18.0,63,0.00,,---,0.00,VWS V14.01,2013-03-24 11:24:00,
2013-03-24 07:25:00,39.3,27.0,29.80,North,355,12.0,18.0,61,0.00,,---,0.00,VWS V14.01,2013-03-24 11:25:00,
2013-03-24 07:26:00,39.3,26.6,29.80,NNW,338,14.0,18.0,60,0.00,,---,0.00,VWS V14.01,2013-03-24 11:26:00,
2013-03-24 07:27:00,39.3,27.8,29.79,North,351,16.0,18.0,63,0.00,,---,0.00,VWS V14.01,2013-03-24 11:27:00,
2013-03-24 07:28:00,39.3,27.4,29.80,North,360,14.0,18.0,62,0.00,,---,0.00,VWS V14.01,2013-03-24 11:28:00,
2013-03-24 07:29:00,39.4,27.1,29.80,NNW,348,15.0,18.0,61,0.00,,---,0.00,VWS V14.01,2013-03-24 11:29:00,
2013-03-24 07:30:00,39.4,27.5,29.80,North,360,15.0,18.0,62,0.00,,---,0.00,VWS V14.01,2013-03-24 11:30:00,
2013-03-24 07:31:00,39.5,26.8,29.79,North,355,13.0,15.0,60,0.00,,---,0.00,VWS V14.01,2013-03-24 11:31:00,
2013-03-24 07:32:00,39.5,26.4,29.79,North,9,13.0,15.0,59,0.00,,---,0.00,VWS V14.01,2013-03-24 11:32:00,
2013-03-24 07:33:00,39.5,26.4,29.79,North,351,12.0,15.0,59,0.00,,---,0.00,VWS V14.01,2013-03-24 11:33:00,
2013-03-24 07:34:00,39.5,27.2,29.79,NW,326,13.0,15.0,61,0.00,,---,0.00,VWS V14.01,2013-03-24 11:34:00,
2013-03-24 07:35:00,39.6,27.7,29.79,North,355,15.0,16.0,62,0.00,,---,0.00,VWS V14.01,2013-03-24 11:35:00,
2013-03-24 07:36:00,39.6,26.5,29.79,NNW,342,13.0,16.0,59,0.00,,---,0.00,VWS V14.01,2013-03-24 11:36:00,
2013-03-24 07:37:00,39.6,26.9,29.79,NNW,345,13.0,16.0,60,0.00,,---,0.00,VWS V14.01,2013-03-24 11:37:00,
2013-03-24 07:38:00,39.6,26.5,29.79,NNW,333,13.0,16.0,59,0.00,,---,0.00,VWS V14.01,2013-03-24 11:38:00,
2013-03-24 07:39:00,39.6,26.1,29.79,NNW,330,12.0,16.0,58,0.00,,---,0.00,VWS V14.01,2013-03-24 11:39:00,
2013-03-24 07:40:00,39.6,26.1,29.79,NNW,330,11.0,16.0,58,0.00,,---,0.00,VWS V14.01,2013-03-24 11:40:00,
2013-03-24 07:41:00,39.6,26.1,29.80,NNW,342,8.0,16.0,58,0.00,,---,0.00,VWS V14.01,2013-03-24 11:41:00,
2013-03-24 07:42:00,39.7,25.7,29.80,North,360,7.0,16.0,57,0.00,,---,0.00,VWS V14.01,2013-03-24 11:42:00,
2013-03-24 07:43:00,39.7,26.6,29.80,North,5,8.0,16.0,59,0.00,,---,0.00,VWS V14.01,2013-03-24 11:43:00,
2013-03-24 07:44:00,39.7,26.1,29.80,North,355,9.0,16.0,58,0.00,,---,0.00,VWS V14.01,2013-03-24 11:44:00,
2013-03-24 07:45:00,39.8,26.2,29.80,North,355,12.0,16.0,58,0.00,,---,0.00,VWS V14.01,2013-03-24 11:45:00,
2013-03-24 07:46:00,39.8,25.8,29.80,North,360,14.0,16.0,57,0.00,,---,0.00,VWS V14.01,2013-03-24 11:46:00,
2013-03-24 07:47:00,39.9,26.8,29.79,NNE,17,15.0,16.0,59,0.00,,---,0.00,VWS V14.01,2013-03-24 11:47:00,
2013-03-24 07:48:00,40.0,26.8,29.80,North,5,10.0,16.0,59,0.00,,---,0.00,VWS V14.01,2013-03-24 11:48:00,
2013-03-24 07:49:00,40.0,27.2,29.80,North,5,10.0,16.0,60,0.00,,---,0.00,VWS V14.01,2013-03-24 11:49:00,
2013-03-24 07:50:00,40.0,27.2,29.80,North,9,11.0,16.0,60,0.00,,---,0.00,VWS V14.01,2013-03-24 11:50:00,
2013-03-24 07:51:00,40.0,27.2,29.80,North,355,11.0,16.0,60,0.00,,---,0.00,VWS V14.01,2013-03-24 11:51:00,
2013-03-24 07:52:00,40.1,26.9,29.80,NE,37,13.0,16.0,59,0.00,,---,0.00,VWS V14.01,2013-03-24 11:52:00,
2013-03-24 07:53:00,40.1,27.4,29.79,NE,38,14.0,16.0,60,0.00,,---,0.00,VWS V14.01,2013-03-24 11:53:00,
2013-03-24 07:54:00,40.0,27.6,29.79,NE,40,17.0,19.0,61,0.00,,---,0.00,VWS V14.01,2013-03-24 11:54:00,
2013-03-24 07:55:00,40.0,26.4,29.80,NE,36,13.0,19.0,58,0.00,,---,0.00,VWS V14.01,2013-03-24 11:55:00,
2013-03-24 07:56:00,40.0,26.0,29.80,NNE,23,10.0,19.0,57,0.00,,---,0.00,VWS V14.01,2013-03-24 11:56:00,
2013-03-24 07:57:00,40.1,26.9,29.80,NNE,18,11.0,19.0,59,0.00,,---,0.00,VWS V14.01,2013-03-24 11:57:00,
2013-03-24 07:58:00,40.1,26.9,29.79,North,9,14.0,19.0,59,0.00,,---,0.00,VWS V14.01,2013-03-24 11:58:00,
2013-03-24 07:59:00,40.0,26.8,29.79,North,360,10.0,19.0,59,0.00,,---,0.00,VWS V14.01,2013-03-24 11:59:00,
2013-03-24 08:00:00,40.1,26.5,29.79,North,360,10.0,19.0,58,0.00,,---,0.00,VWS V14.01,2013-03-24 12:00:00,
2013-03-24 08:01:00,40.1,26.1,29.79,North,360,11.0,11.0,57,0.00,,---,0.00,VWS V14.01,2013-03-24 12:01:00,
2013-03-24 08:02:00,40.1,26.9,29.80,North,355,12.0,13.0,59,0.00,,---,0.00,VWS V14.01,2013-03-24 12:02:00,
2013-03-24 08:03:00,40.2,27.4,29.79,North,5,14.0,14.0,60,0.00,,---,0.00,VWS V14.01,2013-03-24 12:03:00,
2013-03-24 08:04:00,40.2,25.3,29.79,NNE,20,11.0,17.0,55,0.00,,---,0.00,VWS V14.01,2013-03-24 12:04:00,
2013-03-24 08:05:00,40.3,25.4,29.79,NNE,16,11.0,17.0,55,0.00,,---,0.00,VWS V14.01,2013-03-24 12:05:00,
2013-03-24 08:06:00,40.3,25.9,29.80,North,11,11.0,17.0,56,0.00,,---,0.00,VWS V14.01,2013-03-24 12:06:00,
2013-03-24 08:07:00,40.3,25.9,29.80,NNE,33,9.0,17.0,56,0.00,,---,0.00,VWS V14.01,2013-03-24 12:07:00,
2013-03-24 08:08:00,40.4,26.0,29.79,North,5,9.0,17.0,56,0.00,,---,0.00,VWS V14.01,2013-03-24 12:08:00,
2013-03-24 08:09:00,40.4,26.0,29.79,North,5,8.0,17.0,56,0.00,,---,0.00,VWS V14.01,2013-03-24 12:09:00,
2013-03-24 08:10:00,40.4,26.4,29.79,North,350,9.0,17.0,57,0.00,,---,0.00,VWS V14.01,2013-03-24 12:10:00,
2013-03-24 08:11:00,40.5,26.0,29.79,NNW,339,10.0,17.0,56,0.00,,---,0.00,VWS V14.01,2013-03-24 12:11:00,
2013-03-24 08:12:00,40.6,26.6,29.79,NNW,340,8.0,17.0,57,0.00,,---,0.00,VWS V14.01,2013-03-24 12:12:00,
2013-03-24 08:13:00,40.6,27.4,29.79,North,355,12.0,17.0,59,0.00,,---,0.00,VWS V14.01,2013-03-24 12:13:00,
2013-03-24 08:14:00,40.7,27.1,29.80,NNW,345,10.0,17.0,58,0.00,,---,0.00,VWS V14.01,2013-03-24 12:14:00,
2013-03-24 08:15:00,40.7,26.7,29.80,North,355,10.0,17.0,57,0.00,,---,0.00,VWS V14.01,2013-03-24 12:15:00,
2013-03-24 08:16:00,40.7,27.1,29.80,NNE,12,9.0,17.0,58,0.00,,---,0.00,VWS V14.01,2013-03-24 12:16:00,
2013-03-24 08:17:00,40.7,27.1,29.80,NE,42,13.0,17.0,58,0.00,,---,0.00,VWS V14.01,2013-03-24 12:17:00,
2013-03-24 08:18:00,40.7,27.1,29.80,NNE,31,9.0,17.0,58,0.00,,---,0.00,VWS V14.01,2013-03-24 12:18:00,
2013-03-24 08:19:00,40.7,25.4,29.80,NE,34,7.0,17.0,54,0.00,,---,0.00,VWS V14.01,2013-03-24 12:19:00,
2013-03-24 08:20:00,40.7,24.9,29.80,NE,36,5.0,17.0,53,0.00,,---,0.00,VWS V14.01,2013-03-24 12:20:00,
2013-03-24 08:21:00,40.7,25.4,29.80,North,5,5.0,17.0,54,0.00,,---,0.00,VWS V14.01,2013-03-24 12:21:00,
2013-03-24 08:22:00,40.7,24.9,29.80,North,355,7.0,17.0,53,0.00,,---,0.00,VWS V14.01,2013-03-24 12:22:00,
2013-03-24 08:23:00,40.7,24.9,29.80,NNW,344,7.0,17.0,53,0.00,,---,0.00,VWS V14.01,2013-03-24 12:23:00,
2013-03-24 08:24:00,40.9,25.5,29.79,NNW,331,7.0,17.0,54,0.00,,---,0.00,VWS V14.01,2013-03-24 12:24:00,
2013-03-24 08:25:00,40.9,26.0,29.79,NW,326,8.0,17.0,55,0.00,,---,0.00,VWS V14.01,2013-03-24 12:25:00,
2013-03-24 08:26:00,41.0,27.8,29.79,NNW,332,6.0,17.0,59,0.00,,---,0.00,VWS V14.01,2013-03-24 12:26:00,
2013-03-24 08:27:00,41.0,26.1,29.79,NNW,336,8.0,17.0,55,0.00,,---,0.00,VWS V14.01,2013-03-24 12:27:00,
2013-03-24 08:28:00,41.1,25.7,29.79,NNW,328,7.0,17.0,54,0.00,,---,0.00,VWS V14.01,2013-03-24 12:28:00,
2013-03-24 08:29:00,41.1,26.6,29.80,NW,311,9.0,17.0,56,0.00,,---,0.00,VWS V14.01,2013-03-24 12:29:00,
2013-03-24 08:30:00,41.1,27.5,29.79,North,5,12.0,17.0,58,0.00,,---,0.00,VWS V14.01,2013-03-24 12:30:00,
2013-03-24 08:31:00,41.0,26.5,29.79,NNW,345,9.0,13.0,56,0.00,,---,0.00,VWS V14.01,2013-03-24 12:31:00,
2013-03-24 08:32:00,41.1,27.9,29.79,North,349,9.0,13.0,59,0.00,,---,0.00,VWS V14.01,2013-03-24 12:32:00,
2013-03-24 08:33:00,41.1,27.9,29.80,North,351,9.0,13.0,59,0.00,,---,0.00,VWS V14.01,2013-03-24 12:33:00,
2013-03-24 08:34:00,41.1,27.9,29.80,NNE,12,11.0,13.0,59,0.00,,---,0.00,VWS V14.01,2013-03-24 12:34:00,
2013-03-24 08:35:00,41.1,26.6,29.80,NNE,23,8.0,13.0,56,0.00,,---,0.00,VWS V14.01,2013-03-24 12:35:00,
2013-03-24 08:36:00,41.0,26.5,29.80,NNE,15,7.0,13.0,56,0.00,,---,0.00,VWS V14.01,2013-03-24 12:36:00,
2013-03-24 08:37:00,41.0,27.4,29.80,NNE,30,10.0,13.0,58,0.00,,---,0.00,VWS V14.01,2013-03-24 12:37:00,
2013-03-24 08:38:00,40.9,26.9,29.80,NNE,28,8.0,13.0,57,0.00,,---,0.00,VWS V14.01,2013-03-24 12:38:00,
2013-03-24 08:39:00,40.9,25.5,29.80,NE,35,8.0,13.0,54,0.00,,---,0.00,VWS V14.01,2013-03-24 12:39:00,
2013-03-24 08:40:00,40.9,25.5,29.80,NE,35,8.0,13.0,54,0.00,,---,0.00,VWS V14.01,2013-03-24 12:40:00,
2013-03-24 08:41:00,40.9,26.0,29.79,NE,38,9.0,13.0,55,0.00,,---,0.00,VWS V14.01,2013-03-24 12:41:00,
2013-03-24 08:42:00,40.9,27.7,29.79,NE,38,11.0,13.0,59,0.00,,---,0.00,VWS V14.01,2013-03-24 12:42:00,
2013-03-24 08:43:00,40.8,26.3,29.80,NNE,27,8.0,14.0,56,0.00,,---,0.00,VWS V14.01,2013-03-24 12:43:00,
2013-03-24 08:44:00,40.9,27.3,29.80,NNE,28,9.0,14.0,58,0.00,,---,0.00,VWS V14.01,2013-03-24 12:44:00,
2013-03-24 08:45:00,40.9,26.4,29.80,NNE,26,8.0,14.0,56,0.00,,---,0.00,VWS V14.01,2013-03-24 12:45:00,
2013-03-24 08:46:00,41.0,26.1,29.80,North,355,11.0,14.0,55,0.00,,---,0.00,VWS V14.01,2013-03-24 12:46:00,
2013-03-24 08:47:00,41.0,26.5,29.80,NNW,348,10.0,14.0,56,0.00,,---,0.00,VWS V14.01,2013-03-24 12:47:00,
2013-03-24 08:48:00,41.0,26.1,29.79,North,5,13.0,14.0,55,0.00,,---,0.00,VWS V14.01,2013-03-24 12:48:00,
2013-03-24 08:49:00,41.1,26.6,29.79,North,355,14.0,17.0,56,0.00,,---,0.00,VWS V14.01,2013-03-24 12:49:00,
2013-03-24 08:50:00,41.1,27.0,29.80,NNW,337,11.0,17.0,57,0.00,,---,0.00,VWS V14.01,2013-03-24 12:50:00,
2013-03-24 08:51:00,41.1,25.7,29.80,NNW,346,10.0,17.0,54,0.00,,---,0.00,VWS V14.01,2013-03-24 12:51:00,
2013-03-24 08:52:00,41.2,26.7,29.80,North,355,10.0,17.0,56,0.00,,---,0.00,VWS V14.01,2013-03-24 12:52:00,
2013-03-24 08:53:00,41.2,26.7,29.80,North,360,7.0,17.0,56,0.00,,---,0.00,VWS V14.01,2013-03-24 12:53:00,
2013-03-24 08:54:00,41.3,26.8,29.79,North,350,6.0,17.0,56,0.00,,---,0.00,VWS V14.01,2013-03-24 12:54:00,
2013-03-24 08:55:00,41.4,27.8,29.79,NNW,348,6.0,17.0,58,0.00,,---,0.00,VWS V14.01,2013-03-24 12:55:00,
2013-03-24 08:56:00,41.5,27.0,29.79,NNW,338,5.0,17.0,56,0.00,,---,0.00,VWS V14.01,2013-03-24 12:56:00,
2013-03-24 08:57:00,41.5,27.8,29.79,NNW,338,6.0,17.0,58,0.00,,---,0.00,VWS V14.01,2013-03-24 12:57:00,
2013-03-24 08:58:00,41.5,27.0,29.79,NNW,338,8.0,17.0,56,0.00,,---,0.00,VWS V14.01,2013-03-24 12:58:00,
2013-03-24 08:59:00,41.6,27.1,29.79,North,355,10.0,17.0,56,0.00,,---,0.00,VWS V14.01,2013-03-24 12:59:00,
2013-03-24 09:00:00,41.6,27.1,29.79,North,349,10.0,17.0,56,0.00,,---,0.00,VWS V14.01,2013-03-24 13:00:00,
2013-03-24 09:01:00,41.6,27.1,29.79,NNW,338,10.0,11.0,56,0.00,,---,0.00,VWS V14.01,2013-03-24 13:01:00,
2013-03-24 09:02:00,41.5,27.0,29.79,NNW,344,10.0,11.0,56,0.00,,---,0.00,VWS V14.01,2013-03-24 13:02:00,
2013-03-24 09:03:00,41.5,26.5,29.79,NNW,345,11.0,11.0,55,0.00,,---,0.00,VWS V14.01,2013-03-24 13:03:00,
2013-03-24 09:04:00,41.5,27.0,29.79,North,360,12.0,12.0,56,0.00,,---,0.00,VWS V14.01,2013-03-24 13:04:00,
2013-03-24 09:05:00,41.6,26.2,29.79,NNE,24,12.0,15.0,54,0.00,,---,0.00,VWS V14.01,2013-03-24 13:05:00,
2013-03-24 09:06:00,41.5,25.7,29.79,NNE,26,10.0,15.0,53,0.00,,---,0.00,VWS V14.01,2013-03-24 13:06:00,
2013-03-24 09:07:00,41.5,26.1,29.80,NNE,24,7.0,15.0,54,0.00,,---,0.00,VWS V14.01,2013-03-24 13:07:00,
2013-03-24 09:08:00,41.5,25.7,29.79,NNE,26,9.0,15.0,53,0.00,,---,0.00,VWS V14.01,2013-03-24 13:08:00,
2013-03-24 09:09:00,41.5,26.1,29.79,NNE,19,10.0,15.0,54,0.00,,---,0.00,VWS V14.01,2013-03-24 13:09:00,
2013-03-24 09:10:00,41.5,26.1,29.79,NNE,28,8.0,15.0,54,0.00,,---,0.00,VWS V14.01,2013-03-24 13:10:00,
2013-03-24 09:11:00,41.5,26.1,29.79,NNE,31,10.0,15.0,54,0.00,,---,0.00,VWS V14.01,2013-03-24 13:11:00,
2013-03-24 09:12:00,41.4,26.9,29.79,NNE,28,12.0,15.0,56,0.00,,---,0.00,VWS V14.01,2013-03-24 13:12:00,
2013-03-24 09:13:00,41.5,26.5,29.79,NE,36,12.0,15.0,55,0.00,,---,0.00,VWS V14.01,2013-03-24 13:13:00,
2013-03-24 09:14:00,41.5,26.1,29.79,North,355,12.0,16.0,54,0.00,,---,0.00,VWS V14.01,2013-03-24 13:14:00,
2013-03-24 09:15:00,41.5,26.1,29.79,North,11,10.0,16.0,54,0.00,,---,0.00,VWS V14.01,2013-03-24 13:15:00,
2013-03-24 09:16:00,41.5,25.7,29.79,NNE,17,11.0,16.0,53,0.00,,---,0.00,VWS V14.01,2013-03-24 13:16:00,
2013-03-24 09:17:00,41.6,27.5,29.79,NNE,23,13.0,16.0,57,0.00,,---,0.00,VWS V14.01,2013-03-24 13:17:00,
2013-03-24 09:18:00,41.5,26.5,29.79,NNE,24,13.0,16.0,55,0.00,,---,0.00,VWS V14.01,2013-03-24 13:18:00,
2013-03-24 09:19:00,41.5,25.2,29.79,NNE,27,13.0,16.0,52,0.00,,---,0.00,VWS V14.01,2013-03-24 13:19:00,
2013-03-24 09:20:00,41.6,25.3,29.79,NNE,26,11.0,16.0,52,0.00,,---,0.00,VWS V14.01,2013-03-24 13:20:00,
2013-03-24 09:21:00,41.6,25.8,29.79,NE,34,10.0,16.0,53,0.00,,---,0.00,VWS V14.01,2013-03-24 13:21:00,
2013-03-24 09:22:00,41.6,27.1,29.79,NNE,31,9.0,16.0,56,0.00,,---,0.00,VWS V14.01,2013-03-24 13:22:00,
2013-03-24 09:23:00,41.6,26.6,29.79,NNE,29,5.0,16.0,55,0.00,,---,0.00,VWS V14.01,2013-03-24 13:23:00,
2013-03-24 09:24:00,41.6,25.3,29.79,NNE,13,11.0,16.0,52,0.00,,---,0.00,VWS V14.01,2013-03-24 13:24:00,
2013-03-24 09:25:00,41.6,26.2,29.79,North,360,9.0,16.0,54,0.00,,---,0.00,VWS V14.01,2013-03-24 13:25:00,
2013-03-24 09:26:00,41.6,26.6,29.79,NNW,347,8.0,16.0,55,0.00,,---,0.00,VWS V14.01,2013-03-24 13:26:00,
2013-03-24 09:27:00,41.6,25.3,29.79,North,355,8.0,16.0,52,0.00,,---,0.00,VWS V14.01,2013-03-24 13:27:00,
2013-03-24 09:28:00,41.7,27.2,29.78,NNE,32,12.0,16.0,56,0.00,,---,0.00,VWS V14.01,2013-03-24 13:28:00,
2013-03-24 09:29:00,41.7,25.9,29.78,NNE,17,6.0,16.0,53,0.00,,---,0.00,VWS V14.01,2013-03-24 13:29:00,
2013-03-24 09:30:00,41.8,25.9,29.78,North,11,7.0,16.0,53,0.00,,---,0.00,VWS V14.01,2013-03-24 13:30:00,
2013-03-24 09:31:00,41.9,25.6,29.79,North,9,7.0,8.0,52,0.00,,---,0.00,VWS V14.01,2013-03-24 13:31:00,
2013-03-24 09:32:00,41.9,25.1,29.79,North,11,7.0,9.0,51,0.00,,---,0.00,VWS V14.01,2013-03-24 13:32:00,
2013-03-24 09:33:00,42.0,25.7,29.79,North,5,7.0,9.0,52,0.00,,---,0.00,VWS V14.01,2013-03-24 13:33:00,
2013-03-24 09:34:00,42.0,26.1,29.79,North,11,8.0,9.0,53,0.00,,---,0.00,VWS V14.01,2013-03-24 13:34:00,
2013-03-24 09:35:00,42.1,25.8,29.79,North,355,13.0,15.0,52,0.00,,---,0.00,VWS V14.01,2013-03-24 13:35:00,
2013-03-24 09:36:00,42.1,27.1,29.79,North,355,10.0,15.0,55,0.00,,---,0.00,VWS V14.01,2013-03-24 13:36:00,
2013-03-24 09:37:00,42.1,28.4,29.79,North,360,11.0,15.0,58,0.00,,---,0.00,VWS V14.01,2013-03-24 13:37:00,
2013-03-24 09:38:00,42.0,27.0,29.79,North,355,12.0,15.0,55,0.00,,---,0.00,VWS V14.01,2013-03-24 13:38:00,
2013-03-24 09:39:00,42.0,27.0,29.79,NNW,341,13.0,15.0,55,0.00,,---,0.00,VWS V14.01,2013-03-24 13:39:00,
2013-03-24 09:40:00,42.0,27.9,29.79,NNW,330,12.0,15.0,57,0.00,,---,0.00,VWS V14.01,2013-03-24 13:40:00,
2013-03-24 09:41:00,42.0,26.6,29.78,NNW,345,10.0,15.0,54,0.00,,---,0.00,VWS V14.01,2013-03-24 13:41:00,
2013-03-24 09:42:00,42.0,26.6,29.78,NNW,348,8.0,15.0,54,0.00,,---,0.00,VWS V14.01,2013-03-24 13:42:00,
2013-03-24 09:43:00,42.0,27.0,29.78,NNE,21,7.0,15.0,55,0.00,,---,0.00,VWS V14.01,2013-03-24 13:43:00,
2013-03-24 09:44:00,42.0,27.0,29.78,NNE,24,11.0,15.0,55,0.00,,---,0.00,VWS V14.01,2013-03-24 13:44:00,
2013-03-24 09:45:00,42.0,27.0,29.78,NNE,25,11.0,15.0,55,0.00,,---,0.00,VWS V14.01,2013-03-24 13:45:00,
2013-03-24 09:46:00,42.0,27.9,29.78,NNE,30,13.0,15.0,57,0.00,,---,0.00,VWS V14.01,2013-03-24 13:46:00,
2013-03-24 09:47:00,41.9,26.0,29.78,NNE,31,12.0,15.0,53,0.00,,---,0.00,VWS V14.01,2013-03-24 13:47:00,
2013-03-24 09:48:00,41.9,26.0,29.78,NE,46,15.0,15.0,53,0.00,,---,0.00,VWS V14.01,2013-03-24 13:48:00,
2013-03-24 09:49:00,42.0,26.1,29.78,NNE,30,9.0,15.0,53,0.00,,---,0.00,VWS V14.01,2013-03-24 13:49:00,
2013-03-24 09:50:00,42.1,25.3,29.78,NNE,27,9.0,15.0,51,0.00,,---,0.00,VWS V14.01,2013-03-24 13:50:00,
2013-03-24 09:51:00,42.2,25.4,29.78,North,5,8.0,15.0,51,0.00,,---,0.00,VWS V14.01,2013-03-24 13:51:00,
2013-03-24 09:52:00,42.2,28.1,29.78,North,355,7.0,15.0,57,0.00,,---,0.00,VWS V14.01,2013-03-24 13:52:00,
2013-03-24 09:53:00,42.2,28.1,29.78,North,355,6.0,15.0,57,0.00,,---,0.00,VWS V14.01,2013-03-24 13:53:00,
2013-03-24 09:54:00,42.2,28.1,29.78,NNW,337,9.0,15.0,57,0.00,,---,0.00,VWS V14.01,2013-03-24 13:54:00,
2013-03-24 09:55:00,42.3,28.2,29.78,NNW,348,6.0,15.0,57,0.00,,---,0.00,VWS V14.01,2013-03-24 13:55:00,
2013-03-24 09:56:00,42.2,28.1,29.78,NNW,329,10.0,15.0,57,0.00,,---,0.00,VWS V14.01,2013-03-24 13:56:00,
2013-03-24 09:57:00,42.3,27.7,29.78,NNE,24,6.0,15.0,56,0.00,,---,0.00,VWS V14.01,2013-03-24 13:57:00,
2013-03-24 09:58:00,42.3,26.9,29.78,NNE,23,6.0,15.0,54,0.00,,---,0.00,VWS V14.01,2013-03-24 13:58:00,
2013-03-24 09:59:00,42.3,28.2,29.78,NNE,19,9.0,15.0,57,0.00,,---,0.00,VWS V14.01,2013-03-24 13:59:00,
2013-03-24 10:00:00,42.3,27.3,29.78,NNE,24,8.0,15.0,55,0.00,,---,0.00,VWS V14.01,2013-03-24 14:00:00,
2013-03-24 10:01:00,42.2,27.6,29.77,NNE,26,9.0,9.0,56,0.00,,---,0.00,VWS V14.01,2013-03-24 14:01:00,
2013-03-24 10:02:00,42.2,26.8,29.77,NE,39,8.0,10.0,54,0.00,,---,0.00,VWS V14.01,2013-03-24 14:02:00,
2013-03-24 10:03:00,42.1,27.1,29.77,NNE,27,16.0,18.0,55,0.00,,---,0.00,VWS V14.01,2013-03-24 14:03:00,
2013-03-24 10:04:00,42.1,27.1,29.77,North,5,10.0,18.0,55,0.00,,---,0.00,VWS V14.01,2013-03-24 14:04:00,
2013-03-24 10:05:00,42.2,28.1,29.76,North,5,9.0,18.0,57,0.00,,---,0.00,VWS V14.01,2013-03-24 14:05:00,
2013-03-24 10:06:00,42.2,28.9,29.76,NNE,15,14.0,18.0,59,0.00,,---,0.00,VWS V14.01,2013-03-24 14:06:00,
2013-03-24 10:07:00,42.2,26.3,29.76,North,10,13.0,18.0,53,0.00,,---,0.00,VWS V14.01,2013-03-24 14:07:00,
2013-03-24 10:08:00,42.2,25.9,29.76,North,355,9.0,18.0,52,0.00,,---,0.00,VWS V14.01,2013-03-24 14:08:00,
2013-03-24 10:09:00,42.2,25.9,29.76,North,350,10.0,18.0,52,0.00,,---,0.00,VWS V14.01,2013-03-24 14:09:00,
2013-03-24 10:10:00,42.3,25.5,29.76,North,349,11.0,18.0,51,0.00,,---,0.00,VWS V14.01,2013-03-24 14:10:00,
2013-03-24 10:11:00,42.3,25.0,29.77,North,355,10.0,18.0,50,0.00,,---,0.00,VWS V14.01,2013-03-24 14:11:00,
2013-03-24 10:12:00,42.4,26.0,29.77,NNE,12,9.0,18.0,52,0.00,,---,0.00,VWS V14.01,2013-03-24 14:12:00,
2013-03-24 10:13:00,42.5,27.0,29.77,North,9,9.0,18.0,54,0.00,,---,0.00,VWS V14.01,2013-03-24 14:13:00,
2013-03-24 10:14:00,42.5,26.6,29.77,North,5,7.0,18.0,53,0.00,,---,0.00,VWS V14.01,2013-03-24 14:14:00,
2013-03-24 10:15:00,42.6,26.2,29.77,North,5,7.0,18.0,52,0.00,,---,0.00,VWS V14.01,2013-03-24 14:15:00,
2013-03-24 10:16:00,42.6,27.1,29.77,North,10,11.0,18.0,54,0.00,,---,0.00,VWS V14.01,2013-03-24 14:16:00,
2013-03-24 10:17:00,42.6,26.2,29.77,NNE,17,7.0,18.0,52,0.00,,---,0.00,VWS V14.01,2013-03-24 14:17:00,
2013-03-24 10:18:00,42.7,25.4,29.77,NNE,30,7.0,18.0,50,0.00,,---,0.00,VWS V14.01,2013-03-24 14:18:00,
2013-03-24 10:19:00,42.7,25.9,29.77,North,9,8.0,18.0,51,0.00,,---,0.00,VWS V14.01,2013-03-24 14:19:00,
2013-03-24 10:20:00,42.8,25.9,29.77,North,355,7.0,18.0,51,0.00,,---,0.00,VWS V14.01,2013-03-24 14:20:00,
2013-03-24 10:21:00,42.7,27.2,29.77,NNW,337,8.0,18.0,54,0.00,,---,0.00,VWS V14.01,2013-03-24 14:21:00,
2013-03-24 10:22:00,42.8,27.8,29.77,North,355,10.0,18.0,55,0.00,,---,0.00,VWS V14.01,2013-03-24 14:22:00,
2013-03-24 10:23:00,42.7,27.7,29.77,NNE,13,11.0,18.0,55,0.00,,---,0.00,VWS V14.01,2013-03-24 14:23:00,
2013-03-24 10:24:00,42.7,27.7,29.76,NNE,22,11.0,18.0,55,0.00,,---,0.00,VWS V14.01,2013-03-24 14:24:00,
2013-03-24 10:25:00,42.7,26.3,29.76,NNE,23,10.0,18.0,52,0.00,,---,0.00,VWS V14.01,2013-03-24 14:25:00,
2013-03-24 10:26:00,42.7,27.2,29.76,North,5,9.0,18.0,54,0.00,,---,0.00,VWS V14.01,2013-03-24 14:26:00,
2013-03-24 10:27:00,42.7,26.3,29.76,North,360,7.0,18.0,52,0.00,,---,0.00,VWS V14.01,2013-03-24 14:27:00,
2013-03-24 10:28:00,42.8,25.5,29.76,North,355,7.0,18.0,50,0.00,,---,0.00,VWS V14.01,2013-03-24 14:28:00,
2013-03-24 10:29:00,42.8,25.9,29.77,North,9,9.0,18.0,51,0.00,,---,0.00,VWS V14.01,2013-03-24 14:29:00,
2013-03-24 10:30:00,42.9,26.0,29.77,North,360,10.0,10.0,51,0.00,,---,0.00,VWS V14.01,2013-03-24 14:30:00,
2013-03-24 10:31:00,42.9,26.5,29.77,North,360,11.0,12.0,52,0.00,,---,0.00,VWS V14.01,2013-03-24 14:31:00,
2013-03-24 10:32:00,42.9,27.0,29.77,North,11,9.0,12.0,53,0.00,,---,0.00,VWS V14.01,2013-03-24 14:32:00,
2013-03-24 10:33:00,42.9,27.0,29.77,NNE,23,10.0,12.0,53,0.00,,---,0.00,VWS V14.01,2013-03-24 14:33:00,
2013-03-24 10:34:00,42.9,27.9,29.76,North,360,10.0,12.0,55,0.00,,---,0.00,VWS V14.01,2013-03-24 14:34:00,
2013-03-24 10:35:00,42.9,27.4,29.76,NNE,12,12.0,13.0,54,0.00,,---,0.00,VWS V14.01,2013-03-24 14:35:00,
2013-03-24 10:36:00,42.9,26.5,29.76,NNE,21,14.0,15.0,52,0.00,,---,0.00,VWS V14.01,2013-03-24 14:36:00,
2013-03-24 10:37:00,42.9,27.0,29.76,North,11,12.0,15.0,53,0.00,,---,0.00,VWS V14.01,2013-03-24 14:37:00,
2013-03-24 10:38:00,42.9,25.6,29.76,NNE,19,11.0,15.0,50,0.00,,---,0.00,VWS V14.01,2013-03-24 14:38:00,
2013-03-24 10:39:00,42.9,24.6,29.76,North,5,10.0,15.0,48,0.00,,---,0.00,VWS V14.01,2013-03-24 14:39:00,
2013-03-24 10:40:00,42.9,24.6,29.76,North,11,6.0,15.0,48,0.00,,---,0.00,VWS V14.01,2013-03-24 14:40:00,
2013-03-24 10:41:00,43.0,26.6,29.76,North,5,7.0,15.0,52,0.00,,---,0.00,VWS V14.01,2013-03-24 14:41:00,
2013-03-24 10:42:00,43.1,25.3,29.76,NNE,24,7.0,15.0,49,0.00,,---,0.00,VWS V14.01,2013-03-24 14:42:00,
2013-03-24 10:43:00,43.1,26.2,29.76,NE,36,9.0,15.0,51,0.00,,---,0.00,VWS V14.01,2013-03-24 14:43:00,
2013-03-24 10:44:00,43.1,25.7,29.76,NE,37,10.0,15.0,50,0.00,,---,0.00,VWS V14.01,2013-03-24 14:44:00,
2013-03-24 10:45:00,43.0,25.6,29.76,NNE,30,11.0,15.0,50,0.00,,---,0.00,VWS V14.01,2013-03-24 14:45:00,
2013-03-24 10:46:00,43.0,26.1,29.76,NNE,22,8.0,15.0,51,0.00,,---,0.00,VWS V14.01,2013-03-24 14:46:00,
2013-03-24 10:47:00,43.0,24.7,29.76,North,360,8.0,15.0,48,0.00,,---,0.00,VWS V14.01,2013-03-24 14:47:00,
2013-03-24 10:48:00,43.0,25.2,29.76,NNW,327,9.0,15.0,49,0.00,,---,0.00,VWS V14.01,2013-03-24 14:48:00,
2013-03-24 10:49:00,43.1,24.8,29.76,NW,317,7.0,15.0,48,0.00,,---,0.00,VWS V14.01,2013-03-24 14:49:00,
2013-03-24 10:50:00,43.1,24.8,29.76,NW,320,8.0,15.0,48,0.00,,---,0.00,VWS V14.01,2013-03-24 14:50:00,
2013-03-24 10:51:00,43.2,27.7,29.76,NNW,333,9.0,15.0,54,0.00,,---,0.00,VWS V14.01,2013-03-24 14:51:00,
2013-03-24 10:52:00,43.2,26.3,29.76,North,360,12.0,15.0,51,0.00,,---,0.00,VWS V14.01,2013-03-24 14:52:00,
2013-03-24 10:53:00,43.2,26.8,29.76,North,355,10.0,15.0,52,0.00,,---,0.00,VWS V14.01,2013-03-24 14:53:00,
2013-03-24 10:54:00,43.3,26.4,29.76,NNW,346,8.0,15.0,51,0.00,,---,0.00,VWS V14.01,2013-03-24 14:54:00,
2013-03-24 10:55:00,43.4,25.5,29.76,NNW,342,8.0,15.0,49,0.00,,---,0.00,VWS V14.01,2013-03-24 14:55:00,
2013-03-24 10:56:00,43.4,26.0,29.76,NNW,332,8.0,15.0,50,0.00,,---,0.00,VWS V14.01,2013-03-24 14:56:00,
2013-03-24 10:57:00,43.5,27.1,29.76,NNW,342,6.0,15.0,52,0.00,,---,0.00,VWS V14.01,2013-03-24 14:57:00,
2013-03-24 10:58:00,43.5,27.5,29.76,NNE,25,7.0,15.0,53,0.00,,---,0.00,VWS V14.01,2013-03-24 14:58:00,
2013-03-24 10:59:00,43.5,26.1,29.76,North,9,7.0,15.0,50,0.00,,---,0.00,VWS V14.01,2013-03-24 14:59:00,
2013-03-24 11:00:00,43.6,25.7,29.76,North,5,8.0,15.0,49,0.00,,---,0.00,VWS V14.01,2013-03-24 15:00:00,
2013-03-24 11:01:00,43.6,27.1,29.76,NE,44,13.0,13.0,52,0.00,,---,0.00,VWS V14.01,2013-03-24 15:01:00,
2013-03-24 11:02:00,43.6,26.7,29.76,NE,36,11.0,13.0,51,0.00,,---,0.00,VWS V14.01,2013-03-24 15:02:00,
2013-03-24 11:03:00,43.4,25.5,29.76,NE,36,15.0,16.0,49,0.00,,---,0.00,VWS V14.01,2013-03-24 15:03:00,
2013-03-24 11:04:00,43.4,27.4,29.76,NNE,20,11.0,16.0,53,0.00,,---,0.00,VWS V14.01,2013-03-24 15:04:00,
2013-03-24 11:05:00,43.3,27.3,29.76,NE,38,16.0,16.0,53,0.00,,---,0.00,VWS V14.01,2013-03-24 15:05:00,
2013-03-24 11:06:00,43.2,26.8,29.76,NNE,31,14.0,17.0,52,0.00,,---,0.00,VWS V14.01,2013-03-24 15:06:00,
2013-03-24 11:07:00,43.2,26.3,29.77,NNE,17,13.0,17.0,51,0.00,,---,0.00,VWS V14.01,2013-03-24 15:07:00,
2013-03-24 11:08:00,43.1,27.1,29.77,NNE,16,11.0,17.0,53,0.00,,---,0.00,VWS V14.01,2013-03-24 15:08:00,
2013-03-24 11:09:00,43.1,27.6,29.77,NNE,32,11.0,17.0,54,0.00,,---,0.00,VWS V14.01,2013-03-24 15:09:00,
2013-03-24 11:10:00,43.1,28.0,29.76,NE,38,13.0,17.0,55,0.00,,---,0.00,VWS V14.01,2013-03-24 15:10:00,
2013-03-24 11:11:00,43.0,26.6,29.76,NNE,28,13.0,17.0,52,0.00,,---,0.00,VWS V14.01,2013-03-24 15:11:00,
2013-03-24 11:12:00,43.0,28.8,29.76,NNE,24,10.0,17.0,57,0.00,,---,0.00,VWS V14.01,2013-03-24 15:12:00,
2013-03-24 11:13:00,43.0,28.0,29.76,NNE,26,10.0,17.0,55,0.00,,---,0.00,VWS V14.01,2013-03-24 15:13:00,
2013-03-24 11:14:00,43.1,26.7,29.76,NNE,32,10.0,17.0,52,0.00,,---,0.00,VWS V14.01,2013-03-24 15:14:00,
2013-03-24 11:15:00,43.1,26.2,29.76,NNE,30,9.0,17.0,51,0.00,,---,0.00,VWS V14.01,2013-03-24 15:15:00,
2013-03-24 11:16:00,43.2,26.8,29.76,NNE,26,6.0,17.0,52,0.00,,---,0.00,VWS V14.01,2013-03-24 15:16:00,
2013-03-24 11:17:00,43.2,26.8,29.76,NNE,17,7.0,17.0,52,0.00,,---,0.00,VWS V14.01,2013-03-24 15:17:00,
2013-03-24 11:18:00,43.3,25.4,29.76,NNE,28,9.0,17.0,49,0.00,,---,0.00,VWS V14.01,2013-03-24 15:18:00,
2013-03-24 11:19:00,43.4,27.4,29.76,NNE,21,7.0,17.0,53,0.00,,---,0.00,VWS V14.01,2013-03-24 15:19:00,
2013-03-24 11:20:00,43.4,27.9,29.76,NNW,333,5.0,17.0,54,0.00,,---,0.00,VWS V14.01,2013-03-24 15:20:00,
2013-03-24 11:21:00,43.5,28.0,29.76,NW,322,9.0,17.0,54,0.00,,---,0.00,VWS V14.01,2013-03-24 15:21:00,
2013-03-24 11:22:00,43.6,27.1,29.76,NNW,340,7.0,17.0,52,0.00,,---,0.00,VWS V14.01,2013-03-24 15:22:00,
2013-03-24 11:23:00,43.7,27.2,29.76,NNW,329,8.0,17.0,52,0.00,,---,0.00,VWS V14.01,2013-03-24 15:23:00,
2013-03-24 11:24:00,43.7,27.7,29.76,NNW,329,8.0,17.0,53,0.00,,---,0.00,VWS V14.01,2013-03-24 15:24:00,
2013-03-24 11:25:00,43.8,26.9,29.76,NNE,17,9.0,17.0,51,0.00,,---,0.00,VWS V14.01,2013-03-24 15:25:00,
2013-03-24 11:26:00,43.8,26.9,29.76,North,5,7.0,17.0,51,0.00,,---,0.00,VWS V14.01,2013-03-24 15:26:00,
2013-03-24 11:27:00,43.9,27.9,29.76,NNE,13,8.0,17.0,53,0.00,,---,0.00,VWS V14.01,2013-03-24 15:27:00,
2013-03-24 11:28:00,43.8,27.8,29.76,NNE,15,7.0,17.0,53,0.00,,---,0.00,VWS V14.01,2013-03-24 15:28:00,
2013-03-24 11:29:00,43.7,27.2,29.76,NNE,13,8.0,17.0,52,0.00,,---,0.00,VWS V14.01,2013-03-24 15:29:00,
2013-03-24 11:30:00,43.7,26.8,29.76,NNE,24,8.0,17.0,51,0.00,,---,0.00,VWS V14.01,2013-03-24 15:30:00,
2013-03-24 11:31:00,43.6,27.6,29.75,NNE,32,7.0,9.0,53,0.00,,---,0.00,VWS V14.01,2013-03-24 15:31:00,
2013-03-24 11:32:00,43.6,27.1,29.75,NE,38,9.0,9.0,52,0.00,,---,0.00,VWS V14.01,2013-03-24 15:32:00,
2013-03-24 11:33:00,43.5,27.1,29.75,NE,44,8.0,10.0,52,0.00,,---,0.00,VWS V14.01,2013-03-24 15:33:00,
2013-03-24 11:34:00,43.4,27.4,29.75,NE,47,13.0,15.0,53,0.00,,---,0.00,VWS V14.01,2013-03-24 15:34:00,
2013-03-24 11:35:00,43.4,26.5,29.75,NE,40,11.0,15.0,51,0.00,,---,0.00,VWS V14.01,2013-03-24 15:35:00,
2013-03-24 11:36:00,43.4,27.4,29.75,NE,44,11.0,15.0,53,0.00,,---,0.00,VWS V14.01,2013-03-24 15:36:00,
2013-03-24 11:37:00,43.4,27.9,29.75,NE,45,10.0,15.0,54,0.00,,---,0.00,VWS V14.01,2013-03-24 15:37:00,
2013-03-24 11:38:00,43.4,27.0,29.75,NE,42,9.0,15.0,52,0.00,,---,0.00,VWS V14.01,2013-03-24 15:38:00,
2013-03-24 11:39:00,43.4,26.5,29.75,NE,40,10.0,15.0,51,0.00,,---,0.00,VWS V14.01,2013-03-24 15:39:00,
2013-03-24 11:40:00,43.4,26.0,29.75,NNE,32,10.0,15.0,50,0.00,,---,0.00,VWS V14.01,2013-03-24 15:40:00,
2013-03-24 11:41:00,43.6,26.2,29.75,NE,38,10.0,15.0,50,0.00,,---,0.00,VWS V14.01,2013-03-24 15:41:00,
2013-03-24 11:42:00,43.6,26.7,29.74,NE,37,13.0,15.0,51,0.00,,---,0.00,VWS V14.01,2013-03-24 15:42:00,
2013-03-24 11:43:00,43.6,26.7,29.74,NE,35,12.0,15.0,51,0.00,,---,0.00,VWS V14.01,2013-03-24 15:43:00,
2013-03-24 11:44:00,43.7,25.3,29.74,NE,40,8.0,15.0,48,0.00,,---,0.00,VWS V14.01,2013-03-24 15:44:00,
2013-03-24 11:45:00,43.7,24.8,29.74,NE,51,6.0,15.0,47,0.00,,---,0.00,VWS V14.01,2013-03-24 15:45:00,
2013-03-24 11:46:00,43.9,25.5,29.74,NE,44,4.0,15.0,48,0.00,,---,0.00,VWS V14.01,2013-03-24 15:46:00,
2013-03-24 11:47:00,44.0,26.1,29.74,NNE,22,5.0,15.0,49,0.00,,---,0.00,VWS V14.01,2013-03-24 15:47:00,
2013-03-24 11:48:00,44.1,26.2,29.74,NE,42,5.0,15.0,49,0.00,,---,0.00,VWS V14.01,2013-03-24 15:48:00,
2013-03-24 11:49:00,44.3,26.4,29.74,NNE,32,6.0,15.0,49,0.00,,---,0.00,VWS V14.01,2013-03-24 15:49:00,
2013-03-24 11:50:00,44.3,26.4,29.74,NNE,23,6.0,15.0,49,0.00,,---,0.00,VWS V14.01,2013-03-24 15:50:00,
2013-03-24 11:51:00,44.3,26.4,29.74,NNE,23,8.0,15.0,49,0.00,,---,0.00,VWS V14.01,2013-03-24 15:51:00,
2013-03-24 11:52:00,44.3,25.9,29.74,NNE,31,6.0,15.0,48,0.00,,---,0.00,VWS V14.01,2013-03-24 15:52:00,
2013-03-24 11:53:00,44.3,26.4,29.74,NE,45,12.0,15.0,49,0.00,,---,0.00,VWS V14.01,2013-03-24 15:53:00,
2013-03-24 11:54:00,44.3,27.3,29.74,North,5,8.0,15.0,51,0.00,,---,0.00,VWS V14.01,2013-03-24 15:54:00,
2013-03-24 11:55:00,44.2,27.2,29.74,NNW,348,9.0,15.0,51,0.00,,---,0.00,VWS V14.01,2013-03-24 15:55:00,
2013-03-24 11:56:00,44.3,26.4,29.74,North,360,7.0,15.0,49,0.00,,---,0.00,VWS V14.01,2013-03-24 15:56:00,
2013-03-24 11:57:00,44.4,26.0,29.74,North,360,9.0,15.0,48,0.00,,---,0.00,VWS V14.01,2013-03-24 15:57:00,
2013-03-24 11:58:00,44.4,28.4,29.74,NNE,24,13.0,15.0,53,0.00,,---,0.00,VWS V14.01,2013-03-24 15:58:00,
2013-03-24 11:59:00,44.5,26.0,29.74,NNE,21,10.0,15.0,48,0.00,,---,0.00,VWS V14.01,2013-03-24 15:59:00,
2013-03-24 12:00:00,44.5,26.5,29.74,NNE,30,9.0,15.0,49,0.00,,---,0.00,VWS V14.01,2013-03-24 16:00:00,
2013-03-24 12:01:00,44.5,26.0,29.73,NNE,16,8.0,8.0,48,0.00,,---,0.00,VWS V14.01,2013-03-24 16:01:00,
2013-03-24 12:02:00,44.6,27.1,29.74,NNE,17,9.0,9.0,50,0.00,,---,0.00,VWS V14.01,2013-03-24 16:02:00,
2013-03-24 12:03:00,44.6,27.6,29.74,NNE,14,9.0,11.0,51,0.00,,---,0.00,VWS V14.01,2013-03-24 16:03:00,
2013-03-24 12:04:00,44.6,27.1,29.74,NNE,24,9.0,11.0,50,0.00,,---,0.00,VWS V14.01,2013-03-24 16:04:00,
2013-03-24 12:05:00,44.5,27.0,29.74,NNE,24,7.0,11.0,50,0.00,,---,0.00,VWS V14.01,2013-03-24 16:05:00,
2013-03-24 12:06:00,44.5,27.0,29.73,North,5,7.0,11.0,50,0.00,,---,0.00,VWS V14.01,2013-03-24 16:06:00,
2013-03-24 12:07:00,44.5,26.5,29.74,ENE,57,11.0,11.0,49,0.00,,---,0.00,VWS V14.01,2013-03-24 16:07:00,
2013-03-24 12:08:00,44.7,27.2,29.73,NNE,26,7.0,11.0,50,0.00,,---,0.00,VWS V14.01,2013-03-24 16:08:00,
2013-03-24 12:09:00,44.7,28.6,29.73,NNE,25,8.0,11.0,53,0.00,,---,0.00,VWS V14.01,2013-03-24 16:09:00,
2013-03-24 12:10:00,44.7,26.7,29.74,NNE,21,7.0,11.0,49,0.00,,---,0.00,VWS V14.01,2013-03-24 16:10:00,
2013-03-24 12:11:00,44.7,27.2,29.74,NE,56,11.0,14.0,50,0.00,,---,0.00,VWS V14.01,2013-03-24 16:11:00,
2013-03-24 12:12:00,44.7,26.7,29.74,NE,46,12.0,15.0,49,0.00,,---,0.00,VWS V14.01,2013-03-24 16:12:00,
2013-03-24 12:13:00,44.7,26.7,29.73,NE,46,13.0,15.0,49,0.00,,---,0.00,VWS V14.01,2013-03-24 16:13:00,
2013-03-24 12:14:00,44.7,27.2,29.73,NE,43,11.0,15.0,50,0.00,,---,0.00,VWS V14.01,2013-03-24 16:14:00,
2013-03-24 12:15:00,44.7,26.7,29.73,NE,47,13.0,15.0,49,0.00,,---,0.00,VWS V14.01,2013-03-24 16:15:00,
2013-03-24 12:16:00,44.8,26.3,29.74,NE,55,11.0,15.0,48,0.00,,---,0.00,VWS V14.01,2013-03-24 16:16:00,
2013-03-24 12:17:00,44.9,26.4,29.74,NE,43,9.0,15.0,48,0.00,,---,0.00,VWS V14.01,2013-03-24 16:17:00,
2013-03-24 12:18:00,44.9,26.4,29.74,NE,41,11.0,15.0,48,0.00,,---,0.00,VWS V14.01,2013-03-24 16:18:00,
2013-03-24 12:19:00,44.9,26.4,29.74,NE,44,9.0,15.0,48,0.00,,---,0.00,VWS V14.01,2013-03-24 16:19:00,
2013-03-24 12:20:00,44.9,26.4,29.74,NNE,30,7.0,15.0,48,0.00,,---,0.00,VWS V14.01,2013-03-24 16:20:00,
2013-03-24 12:21:00,44.8,27.8,29.74,NNE,33,7.0,15.0,51,0.00,,---,0.00,VWS V14.01,2013-03-24 16:21:00,
2013-03-24 12:22:00,44.7,29.1,29.74,NE,51,7.0,15.0,54,0.00,,---,0.00,VWS V14.01,2013-03-24 16:22:00,
2013-03-24 12:23:00,44.6,27.1,29.74,NE,44,6.0,15.0,50,0.00,,---,0.00,VWS V14.01,2013-03-24 16:23:00,
2013-03-24 12:24:00,44.7,26.7,29.73,NE,42,8.0,15.0,49,0.00,,---,0.00,VWS V14.01,2013-03-24 16:24:00,
2013-03-24 12:25:00,44.7,26.7,29.73,NNE,31,9.0,15.0,49,0.00,,---,0.00,VWS V14.01,2013-03-24 16:25:00,
2013-03-24 12:26:00,44.8,28.3,29.73,NNE,24,10.0,15.0,52,0.00,,---,0.00,VWS V14.01,2013-03-24 16:26:00,
2013-03-24 12:27:00,44.7,27.7,29.73,NNE,20,12.0,15.0,51,0.00,,---,0.00,VWS V14.01,2013-03-24 16:27:00,
2013-03-24 12:28:00,44.6,27.1,29.73,NNE,19,9.0,15.0,50,0.00,,---,0.00,VWS V14.01,2013-03-24 16:28:00,
2013-03-24 12:29:00,44.5,28.0,29.73,NNE,22,13.0,15.0,52,0.00,,---,0.00,VWS V14.01,2013-03-24 16:29:00,
2013-03-24 12:30:00,44.5,27.5,29.73,NNE,24,10.0,15.0,51,0.00,,---,0.00,VWS V14.01,2013-03-24 16:30:00,
2013-03-24 12:31:00,44.5,27.0,29.73,NE,38,11.0,11.0,50,0.00,,---,0.00,VWS V14.01,2013-03-24 16:31:00,
2013-03-24 12:32:00,44.4,28.4,29.73,NE,40,9.0,11.0,53,0.00,,---,0.00,VWS V14.01,2013-03-24 16:32:00,
2013-03-24 12:33:00,44.5,27.0,29.73,NE,47,6.0,11.0,50,0.00,,---,0.00,VWS V14.01,2013-03-24 16:33:00,
2013-03-24 12:34:00,44.6,26.6,29.73,ENE,63,7.0,11.0,49,0.00,,---,0.00,VWS V14.01,2013-03-24 16:34:00,
2013-03-24 12:35:00,44.9,26.4,29.73,NE,54,8.0,13.0,48,0.00,,---,0.00,VWS V14.01,2013-03-24 16:35:00,
2013-03-24 12:36:00,45.2,26.2,29.73,ENE,71,12.0,13.0,47,0.00,,---,0.00,VWS V14.01,2013-03-24 16:36:00,
2013-03-24 12:37:00,45.5,26.5,29.73,East,82,7.0,13.0,47,0.00,,---,0.00,VWS V14.01,2013-03-24 16:37:00,
2013-03-24 12:38:00,45.7,26.6,29.73,NE,53,5.0,13.0,47,0.00,,---,0.00,VWS V14.01,2013-03-24 16:38:00,
2013-03-24 12:39:00,45.9,26.8,29.73,NE,38,10.0,13.0,47,0.00,,---,0.00,VWS V14.01,2013-03-24 16:39:00,
2013-03-24 12:40:00,45.8,27.2,29.73,NE,50,10.0,13.0,48,0.00,,---,0.00,VWS V14.01,2013-03-24 16:40:00,
2013-03-24 12:41:00,45.6,26.0,29.73,NE,46,8.0,13.0,46,0.00,,---,0.00,VWS V14.01,2013-03-24 16:41:00,
2013-03-24 12:42:00,45.2,27.2,29.73,NE,35,7.0,13.0,49,0.00,,---,0.00,VWS V14.01,2013-03-24 16:42:00,
2013-03-24 12:43:00,45.0,26.0,29.73,NNE,25,6.0,13.0,47,0.00,,---,0.00,VWS V14.01,2013-03-24 16:43:00,
2013-03-24 12:44:00,44.9,26.4,29.73,NE,48,8.0,13.0,48,0.00,,---,0.00,VWS V14.01,2013-03-24 16:44:00,
2013-03-24 12:45:00,44.8,26.3,29.73,ENE,58,10.0,13.0,48,0.00,,---,0.00,VWS V14.01,2013-03-24 16:45:00,
2013-03-24 12:46:00,44.9,26.9,29.73,NNE,26,11.0,13.0,49,0.00,,---,0.00,VWS V14.01,2013-03-24 16:46:00,
2013-03-24 12:47:00,45.0,27.5,29.73,NE,38,10.0,13.0,50,0.00,,---,0.00,VWS V14.01,2013-03-24 16:47:00,
2013-03-24 12:48:00,44.9,29.3,29.73,NE,36,11.0,13.0,54,0.00,,---,0.00,VWS V14.01,2013-03-24 16:48:00,
2013-03-24 12:49:00,44.9,27.9,29.73,NNE,27,8.0,13.0,51,0.00,,---,0.00,VWS V14.01,2013-03-24 16:49:00,
2013-03-24 12:50:00,44.9,29.3,29.73,NNE,27,7.0,13.0,54,0.00,,---,0.00,VWS V14.01,2013-03-24 16:50:00,
2013-03-24 12:51:00,44.8,28.7,29.73,NE,35,8.0,13.0,53,0.00,,---,0.00,VWS V14.01,2013-03-24 16:51:00,
2013-03-24 12:52:00,44.7,29.5,29.73,NNE,33,9.0,13.0,55,0.00,,---,0.00,VWS V14.01,2013-03-24 16:52:00,
2013-03-24 12:53:00,44.6,29.9,29.73,NE,36,7.0,13.0,56,0.00,,---,0.00,VWS V14.01,2013-03-24 16:53:00,
2013-03-24 12:54:00,44.5,27.5,29.73,NE,49,5.0,13.0,51,0.00,,---,0.00,VWS V14.01,2013-03-24 16:54:00,
2013-03-24 12:55:00,44.5,28.0,29.73,ENE,69,4.0,13.0,52,0.00,,---,0.00,VWS V14.01,2013-03-24 16:55:00,
2013-03-24 12:56:00,44.5,27.5,29.73,SE,138,0.0,13.0,51,0.00,,---,0.00,VWS V14.01,2013-03-24 16:56:00,
2013-03-24 12:57:00,44.7,28.6,29.73,SSE,149,3.0,13.0,53,0.00,,---,0.00,VWS V14.01,2013-03-24 16:57:00,
2013-03-24 12:58:00,44.9,29.7,29.73,South,169,1.0,13.0,55,0.00,,---,0.00,VWS V14.01,2013-03-24 16:58:00,
2013-03-24 12:59:00,45.0,32.0,29.73,SSE,164,1.0,13.0,60,0.00,,---,0.00,VWS V14.01,2013-03-24 16:59:00,
2013-03-24 13:00:00,45.2,33.0,29.73,SSW,194,0.0,13.0,62,0.00,,---,0.00,VWS V14.01,2013-03-24 17:00:00,
2013-03-24 13:01:00,45.5,33.7,29.73,South,191,0.0,1.0,63,0.00,,---,0.00,VWS V14.01,2013-03-24 17:01:00,
2013-03-24 13:02:00,45.6,32.9,29.73,SE,130,0.0,2.0,61,0.00,,---,0.00,VWS V14.01,2013-03-24 17:02:00,
2013-03-24 13:03:00,45.8,33.1,29.73,WSW,253,0.0,2.0,61,0.00,,---,0.00,VWS V14.01,2013-03-24 17:03:00,
2013-03-24 13:04:00,46.0,34.1,29.73,ENE,73,0.0,4.0,63,0.00,,---,0.00,VWS V14.01,2013-03-24 17:04:00,
2013-03-24 13:05:00,46.2,34.7,29.73,North,5,0.0,5.0,64,0.00,,---,0.00,VWS V14.01,2013-03-24 17:05:00,
2013-03-24 13:06:00,46.3,34.8,29.73,SE,134,0.0,5.0,64,0.00,,---,0.00,VWS V14.01,2013-03-24 17:06:00,
2013-03-24 13:07:00,46.4,34.9,29.73,SSE,167,0.0,5.0,64,0.00,,---,0.00,VWS V14.01,2013-03-24 17:07:00,
2013-03-24 13:08:00,46.4,34.5,29.73,WSW,250,1.0,5.0,63,0.00,,---,0.00,VWS V14.01,2013-03-24 17:08:00,
2013-03-24 13:09:00,46.5,35.0,29.73,SSE,148,0.0,5.0,64,0.00,,---,0.00,VWS V14.01,2013-03-24 17:09:00,
2013-03-24 13:10:00,46.7,35.6,29.73,South,182,1.0,5.0,65,0.00,,---,0.00,VWS V14.01,2013-03-24 17:10:00,
2013-03-24 13:11:00,46.9,35.4,29.73,ENE,68,0.0,5.0,64,0.00,,---,0.00,VWS V14.01,2013-03-24 17:11:00,
2013-03-24 13:12:00,47.0,35.5,29.73,NNE,25,1.0,5.0,64,0.00,,---,0.00,VWS V14.01,2013-03-24 17:12:00,
2013-03-24 13:13:00,47.1,35.6,29.73,NNW,342,1.0,5.0,64,0.00,,---,0.00,VWS V14.01,2013-03-24 17:13:00,
2013-03-24 13:14:00,47.2,35.7,29.73,SE,135,0.0,5.0,64,0.00,,---,0.00,VWS V14.01,2013-03-24 17:14:00,
2013-03-24 13:15:00,47.2,35.7,29.73,West,262,0.0,5.0,64,0.00,,---,0.00,VWS V14.01,2013-03-24 17:15:00,
2013-03-24 13:16:00,47.1,35.6,29.73,SSE,155,3.0,5.0,64,0.00,,---,0.00,VWS V14.01,2013-03-24 17:16:00,
2013-03-24 13:17:00,47.1,35.6,29.73,South,178,1.0,5.0,64,0.00,,---,0.00,VWS V14.01,2013-03-24 17:17:00,
2013-03-24 13:18:00,47.1,35.6,29.73,SSW,204,2.0,5.0,64,0.00,,---,0.00,VWS V14.01,2013-03-24 17:18:00,
2013-03-24 13:19:00,47.1,35.6,29.73,SW,224,0.0,8.0,64,0.00,,---,0.00,VWS V14.01,2013-03-24 17:19:00,
2013-03-24 13:20:00,47.2,35.7,29.73,South,184,1.0,8.0,64,0.00,,---,0.00,VWS V14.01,2013-03-24 17:20:00,
2013-03-24 13:21:00,47.2,36.0,29.73,SSW,198,0.0,8.0,65,0.00,,---,0.00,VWS V14.01,2013-03-24 17:21:00,
2013-03-24 13:22:00,47.3,36.2,29.73,SW,217,0.0,8.0,65,0.00,,---,0.00,VWS V14.01,2013-03-24 17:22:00,
2013-03-24 13:23:00,47.4,35.8,29.73,West,273,0.0,8.0,64,0.00,,---,0.00,VWS V14.01,2013-03-24 17:23:00,
2013-03-24 13:24:00,47.5,36.3,29.73,SSW,198,0.0,8.0,65,0.00,,---,0.00,VWS V14.01,2013-03-24 17:24:00,
2013-03-24 13:25:00,47.6,36.0,29.72,ESE,117,5.0,8.0,64,0.00,,---,0.00,VWS V14.01,2013-03-24 17:25:00,
2013-03-24 13:26:00,47.5,35.5,29.73,East,88,2.0,8.0,63,0.00,,---,0.00,VWS V14.01,2013-03-24 17:26:00,
2013-03-24 13:27:00,47.4,35.5,29.73,East,98,0.0,8.0,63,0.00,,---,0.00,VWS V14.01,2013-03-24 17:27:00,
2013-03-24 13:28:00,47.3,35.4,29.73,ESE,109,1.0,8.0,63,0.00,,---,0.00,VWS V14.01,2013-03-24 17:28:00,
2013-03-24 13:29:00,47.2,35.3,29.73,ESE,113,1.0,8.0,63,0.00,,---,0.00,VWS V14.01,2013-03-24 17:29:00,
2013-03-24 13:30:00,47.1,34.8,29.73,SE,134,0.0,8.0,62,0.00,,---,0.00,VWS V14.01,2013-03-24 17:30:00,
2013-03-24 13:31:00,47.0,34.7,29.73,SSE,147,0.0,8.0,62,0.00,,---,0.00,VWS V14.01,2013-03-24 17:31:00,
2013-03-24 13:32:00,46.8,34.9,29.73,SW,217,1.0,8.0,63,0.00,,---,0.00,VWS V14.01,2013-03-24 17:32:00,
2013-03-24 13:33:00,46.7,34.8,29.73,SSW,202,0.0,8.0,63,0.00,,---,0.00,VWS V14.01,2013-03-24 17:33:00,
2013-03-24 13:34:00,46.6,35.1,29.73,SSW,209,0.0,8.0,64,0.00,,---,0.00,VWS V14.01,2013-03-24 17:34:00,
2013-03-24 13:35:00,46.6,35.1,29.73,South,171,0.0,8.0,64,0.00,,---,0.00,VWS V14.01,2013-03-24 17:35:00,
2013-03-24 13:36:00,46.5,35.0,29.73,SE,130,0.0,8.0,64,0.00,,---,0.00,VWS V14.01,2013-03-24 17:36:00,
2013-03-24 13:37:00,46.5,35.0,29.73,SE,140,0.0,8.0,64,0.00,,---,0.00,VWS V14.01,2013-03-24 17:37:00,
2013-03-24 13:38:00,46.5,35.0,29.73,SSE,158,0.0,8.0,64,0.00,,---,0.00,VWS V14.01,2013-03-24 17:38:00,
2013-03-24 13:39:00,46.5,35.0,29.73,SE,146,4.0,12.0,64,0.00,,---,0.00,VWS V14.01,2013-03-24 17:39:00,
2013-03-24 13:40:00,46.6,35.1,29.73,South,181,1.0,12.0,64,0.00,,---,0.00,VWS V14.01,2013-03-24 17:40:00,
2013-03-24 13:41:00,46.5,35.0,29.73,SSE,160,4.0,12.0,64,0.00,,---,0.00,VWS V14.01,2013-03-24 17:41:00,
2013-03-24 13:42:00,46.5,34.6,29.73,East,94,3.0,12.0,63,0.00,,---,0.00,VWS V14.01,2013-03-24 17:42:00,
2013-03-24 13:43:00,46.5,34.6,29.73,SE,144,1.0,12.0,63,0.00,,---,0.00,VWS V14.01,2013-03-24 17:43:00,
2013-03-24 13:44:00,46.5,34.6,29.73,WSW,250,1.0,12.0,63,0.00,,---,0.00,VWS V14.01,2013-03-24 17:44:00,
2013-03-24 13:45:00,46.6,35.1,29.73,NE,38,2.0,12.0,64,0.00,,---,0.00,VWS V14.01,2013-03-24 17:45:00,
2013-03-24 13:46:00,46.6,35.5,29.73,SE,125,1.0,12.0,65,0.00,,---,0.00,VWS V14.01,2013-03-24 17:46:00,
2013-03-24 13:47:00,46.5,35.4,29.73,ESE,108,1.0,12.0,65,0.00,,---,0.00,VWS V14.01,2013-03-24 17:47:00,
2013-03-24 13:48:00,46.5,35.4,29.73,NE,44,1.0,12.0,65,0.00,,---,0.00,VWS V14.01,2013-03-24 17:48:00,
2013-03-24 13:49:00,46.3,35.2,29.73,NE,39,0.0,12.0,65,0.00,,---,0.00,VWS V14.01,2013-03-24 17:49:00,
2013-03-24 13:50:00,46.2,35.1,29.73,NNE,13,0.0,12.0,65,0.00,,---,0.00,VWS V14.01,2013-03-24 17:50:00,
2013-03-24 13:51:00,46.1,35.0,29.73,North,355,0.0,12.0,65,0.00,,---,0.00,VWS V14.01,2013-03-24 17:51:00,
2013-03-24 13:52:00,46.0,35.3,29.73,North,355,0.0,12.0,66,0.00,,---,0.00,VWS V14.01,2013-03-24 17:52:00,
2013-03-24 13:53:00,46.1,35.8,29.73,North,355,0.0,12.0,67,0.00,,---,0.00,VWS V14.01,2013-03-24 17:53:00,
2013-03-24 13:54:00,46.1,35.8,29.74,ESE,110,2.0,12.0,67,0.00,,---,0.00,VWS V14.01,2013-03-24 17:54:00,
2013-03-24 13:55:00,46.3,36.0,29.74,ESE,110,0.0,12.0,67,0.00,,---,0.00,VWS V14.01,2013-03-24 17:55:00,
2013-03-24 13:56:00,46.3,35.6,29.74,SSE,153,1.0,12.0,66,0.00,,---,0.00,VWS V14.01,2013-03-24 17:56:00,
2013-03-24 13:57:00,46.4,35.7,29.74,SE,126,1.0,12.0,66,0.00,,---,0.00,VWS V14.01,2013-03-24 17:57:00,
2013-03-24 13:58:00,46.5,35.4,29.74,ESE,121,0.0,12.0,65,0.00,,---,0.00,VWS V14.01,2013-03-24 17:58:00,
2013-03-24 13:59:00,46.5,35.4,29.74,NE,36,2.0,12.0,65,0.00,,---,0.00,VWS V14.01,2013-03-24 17:59:00,
2013-03-24 14:00:00,46.5,35.4,29.74,NE,38,0.0,12.0,65,0.00,,---,0.00,VWS V14.01,2013-03-24 18:00:00,
2013-03-24 14:01:00,46.4,35.3,29.74,NNW,338,0.0,4.0,65,0.00,,---,0.00,VWS V14.01,2013-03-24 18:01:00,
2013-03-24 14:02:00,46.4,35.3,29.74,NNW,338,0.0,4.0,65,0.00,,---,0.00,VWS V14.01,2013-03-24 18:02:00,
2013-03-24 14:03:00,46.3,35.2,29.74,NE,55,1.0,4.0,65,0.00,,---,0.00,VWS V14.01,2013-03-24 18:03:00,
2013-03-24 14:04:00,46.2,35.1,29.74,WNW,287,1.0,4.0,65,0.00,,---,0.00,VWS V14.01,2013-03-24 18:04:00,
2013-03-24 14:05:00,46.1,35.0,29.74,ENE,77,0.0,4.0,65,0.00,,---,0.00,VWS V14.01,2013-03-24 18:05:00,
2013-03-24 14:06:00,46.0,35.3,29.74,ESE,115,1.0,4.0,66,0.00,,---,0.00,VWS V14.01,2013-03-24 18:06:00,
2013-03-24 14:07:00,46.0,35.3,29.74,SSE,149,2.0,4.0,66,0.00,,---,0.00,VWS V14.01,2013-03-24 18:07:00,
2013-03-24 14:08:00,46.0,35.3,29.74,South,191,3.0,4.0,66,0.00,,---,0.00,VWS V14.01,2013-03-24 18:08:00,
2013-03-24 14:09:00,46.1,35.4,29.74,SSE,164,1.0,4.0,66,0.00,,---,0.00,VWS V14.01,2013-03-24 18:09:00,
2013-03-24 14:10:00,46.2,35.5,29.74,SSW,204,1.0,4.0,66,0.00,,---,0.00,VWS V14.01,2013-03-24 18:10:00,
2013-03-24 14:11:00,46.3,35.6,29.74,NNE,25,1.0,6.0,66,0.00,,---,0.00,VWS V14.01,2013-03-24 18:11:00,
2013-03-24 14:12:00,46.4,35.7,29.74,WSW,237,5.0,6.0,66,0.00,,---,0.00,VWS V14.01,2013-03-24 18:12:00,
2013-03-24 14:13:00,46.4,35.3,29.74,South,186,3.0,7.0,65,0.00,,---,0.00,VWS V14.01,2013-03-24 18:13:00,
2013-03-24 14:14:00,46.4,35.3,29.74,SE,130,4.0,10.0,65,0.00,,---,0.00,VWS V14.01,2013-03-24 18:14:00,
2013-03-24 14:15:00,46.4,35.3,29.74,South,181,1.0,10.0,65,0.00,,---,0.00,VWS V14.01,2013-03-24 18:15:00,
2013-03-24 14:16:00,46.5,35.4,29.74,SSW,192,1.0,10.0,65,0.00,,---,0.00,VWS V14.01,2013-03-24 18:16:00,
2013-03-24 14:17:00,46.5,35.4,29.74,SSE,165,0.0,10.0,65,0.00,,---,0.00,VWS V14.01,2013-03-24 18:17:00,
2013-03-24 14:18:00,46.5,35.4,29.74,South,171,3.0,10.0,65,0.00,,---,0.00,VWS V14.01,2013-03-24 18:18:00,
2013-03-24 14:19:00,46.4,35.3,29.74,South,181,4.0,10.0,65,0.00,,---,0.00,VWS V14.01,2013-03-24 18:19:00,
2013-03-24 14:20:00,46.4,35.3,29.74,SE,142,2.0,10.0,65,0.00,,---,0.00,VWS V14.01,2013-03-24 18:20:00,
2013-03-24 14:21:00,46.3,34.8,29.74,South,180,0.0,10.0,64,0.00,,---,0.00,VWS V14.01,2013-03-24 18:21:00,
2013-03-24 14:22:00,46.2,34.7,29.74,SSW,197,1.0,10.0,64,0.00,,---,0.00,VWS V14.01,2013-03-24 18:22:00,
2013-03-24 14:23:00,46.1,35.0,29.74,SSE,152,0.0,10.0,65,0.00,,---,0.00,VWS V14.01,2013-03-24 18:23:00,
2013-03-24 14:24:00,46.1,35.0,29.74,South,173,0.0,10.0,65,0.00,,---,0.00,VWS V14.01,2013-03-24 18:24:00,
2013-03-24 14:25:00,46.1,35.0,29.74,South,173,0.0,10.0,65,0.00,,---,0.00,VWS V14.01,2013-03-24 18:25:00,
2013-03-24 14:26:00,46.0,34.9,29.74,SSE,167,1.0,10.0,65,0.00,,---,0.00,VWS V14.01,2013-03-24 18:26:00,
2013-03-24 14:27:00,45.9,34.8,29.74,ESE,121,0.0,10.0,65,0.00,,---,0.00,VWS V14.01,2013-03-24 18:27:00,
2013-03-24 14:28:00,45.7,35.0,29.74,North,5,1.0,10.0,66,0.00,,---,0.00,VWS V14.01,2013-03-24 18:28:00,
2013-03-24 14:29:00,45.5,34.8,29.74,ESE,108,1.0,10.0,66,0.00,,---,0.00,VWS V14.01,2013-03-24 18:29:00,
2013-03-24 14:30:00,45.3,35.0,29.74,ESE,108,0.0,10.0,67,0.00,,---,0.00,VWS V14.01,2013-03-24 18:30:00,
2013-03-24 14:31:00,45.2,34.9,29.74,ENE,65,0.0,1.0,67,0.00,,---,0.00,VWS V14.01,2013-03-24 18:31:00,
2013-03-24 14:32:00,45.1,34.8,29.74,NE,40,0.0,1.0,67,0.00,,---,0.00,VWS V14.01,2013-03-24 18:32:00,
2013-03-24 14:33:00,45.0,34.7,29.74,NE,40,0.0,1.0,67,0.00,,---,0.00,VWS V14.01,2013-03-24 18:33:00,
2013-03-24 14:34:00,44.9,35.0,29.74,NE,35,0.0,1.0,68,0.00,,---,0.00,VWS V14.01,2013-03-24 18:34:00,
2013-03-24 14:35:00,44.8,34.9,29.74,NE,34,0.0,1.0,68,0.00,,---,0.00,VWS V14.01,2013-03-24 18:35:00,
2013-03-24 14:36:00,44.7,34.8,29.74,NNE,32,0.0,1.0,68,0.00,,---,0.00,VWS V14.01,2013-03-24 18:36:00,
2013-03-24 14:37:00,44.6,34.7,29.74,NNE,30,0.0,1.0,68,0.00,,---,0.00,VWS V14.01,2013-03-24 18:37:00,
2013-03-24 14:38:00,44.5,34.6,29.74,NNE,29,1.0,1.0,68,0.00,,---,0.00,VWS V14.01,2013-03-24 18:38:00,
2013-03-24 14:39:00,44.5,35.0,29.74,NNE,29,0.0,1.0,69,0.00,,---,0.00,VWS V14.01,2013-03-24 18:39:00,
2013-03-24 14:40:00,44.5,35.0,29.74,NNE,29,0.0,1.0,69,0.00,,---,0.00,VWS V14.01,2013-03-24 18:40:00,
2013-03-24 14:41:00,44.5,35.0,29.74,NNE,15,1.0,1.0,69,0.00,,---,0.00,VWS V14.01,2013-03-24 18:41:00,
2013-03-24 14:42:00,44.5,34.6,29.74,SSE,156,5.0,7.0,68,0.00,,---,0.00,VWS V14.01,2013-03-24 18:42:00,
2013-03-24 14:43:00,44.4,34.5,29.74,ENE,71,1.0,7.0,68,0.00,,---,0.00,VWS V14.01,2013-03-24 18:43:00,
2013-03-24 14:44:00,44.4,34.5,29.74,NE,34,0.0,7.0,68,0.00,,---,0.00,VWS V14.01,2013-03-24 18:44:00,
2013-03-24 14:45:00,44.5,35.0,29.74,ENE,61,0.0,7.0,69,0.00,,---,0.00,VWS V14.01,2013-03-24 18:45:00,
2013-03-24 14:46:00,44.5,34.6,29.75,SE,136,1.0,7.0,68,0.00,,---,0.00,VWS V14.01,2013-03-24 18:46:00,
2013-03-24 14:47:00,44.5,34.6,29.75,SSW,199,0.0,7.0,68,0.00,,---,0.00,VWS V14.01,2013-03-24 18:47:00,
2013-03-24 14:48:00,44.6,35.1,29.75,SSE,147,0.0,7.0,69,0.00,,---,0.00,VWS V14.01,2013-03-24 18:48:00,
2013-03-24 14:49:00,44.6,34.7,29.75,SE,143,0.0,7.0,68,0.00,,---,0.00,VWS V14.01,2013-03-24 18:49:00,
2013-03-24 14:50:00,44.7,34.8,29.75,SE,144,1.0,7.0,68,0.00,,---,0.00,VWS V14.01,2013-03-24 18:50:00,
2013-03-24 14:51:00,44.7,34.8,29.75,South,188,0.0,7.0,68,0.00,,---,0.00,VWS V14.01,2013-03-24 18:51:00,
2013-03-24 14:52:00,44.7,34.8,29.74,NNE,24,2.0,7.0,68,0.00,,---,0.00,VWS V14.01,2013-03-24 18:52:00,
2013-03-24 14:53:00,44.6,34.7,29.74,SE,128,0.0,7.0,68,0.00,,---,0.00,VWS V14.01,2013-03-24 18:53:00,
2013-03-24 14:54:00,44.6,34.7,29.74,SE,124,1.0,7.0,68,0.00,,---,0.00,VWS V14.01,2013-03-24 18:54:00,
2013-03-24 14:55:00,44.6,34.7,29.75,SSE,148,0.0,7.0,68,0.00,,---,0.00,VWS V14.01,2013-03-24 18:55:00,
2013-03-24 14:56:00,44.6,34.7,29.75,SSE,150,0.0,7.0,68,0.00,,---,0.00,VWS V14.01,2013-03-24 18:56:00,
2013-03-24 14:57:00,44.5,34.6,29.75,SE,141,0.0,7.0,68,0.00,,---,0.00,VWS V14.01,2013-03-24 18:57:00,
2013-03-24 14:58:00,44.5,34.6,29.75,SE,138,0.0,7.0,68,0.00,,---,0.00,VWS V14.01,2013-03-24 18:58:00,
2013-03-24 14:59:00,44.5,34.6,29.75,ESE,122,0.0,7.0,68,0.00,,---,0.00,VWS V14.01,2013-03-24 18:59:00,
2013-03-24 15:00:00,44.5,34.6,29.75,ESE,122,1.0,7.0,68,0.00,,---,0.00,VWS V14.01,2013-03-24 19:00:00,
2013-03-24 15:01:00,44.5,34.6,29.75,SE,132,1.0,4.0,68,0.00,,---,0.00,VWS V14.01,2013-03-24 19:01:00,
2013-03-24 15:02:00,44.6,35.1,29.75,SW,215,4.0,4.0,69,0.00,,---,0.00,VWS V14.01,2013-03-24 19:02:00,
2013-03-24 15:03:00,44.6,34.7,29.75,ESE,123,0.0,4.0,68,0.00,,---,0.00,VWS V14.01,2013-03-24 19:03:00,
2013-03-24 15:04:00,44.6,34.7,29.75,SE,127,0.0,4.0,68,0.00,,---,0.00,VWS V14.01,2013-03-24 19:04:00,
2013-03-24 15:05:00,44.6,35.1,29.75,SSE,164,0.0,4.0,69,0.00,,---,0.00,VWS V14.01,2013-03-24 19:05:00,
2013-03-24 15:06:00,44.7,35.2,29.75,SSE,154,0.0,4.0,69,0.00,,---,0.00,VWS V14.01,2013-03-24 19:06:00,
2013-03-24 15:07:00,44.7,35.2,29.75,South,191,1.0,4.0,69,0.00,,---,0.00,VWS V14.01,2013-03-24 19:07:00,
2013-03-24 15:08:00,44.7,35.2,29.75,SSE,160,1.0,4.0,69,0.00,,---,0.00,VWS V14.01,2013-03-24 19:08:00,
2013-03-24 15:09:00,44.8,35.3,29.75,SSE,167,0.0,4.0,69,0.00,,---,0.00,VWS V14.01,2013-03-24 19:09:00,
2013-03-24 15:10:00,44.7,35.2,29.75,SSE,168,0.0,4.0,69,0.00,,---,0.00,VWS V14.01,2013-03-24 19:10:00,
2013-03-24 15:11:00,44.7,35.2,29.75,SE,146,0.0,4.0,69,0.00,,---,0.00,VWS V14.01,2013-03-24 19:11:00,
2013-03-24 15:12:00,44.6,35.1,29.75,SSE,164,0.0,4.0,69,0.00,,---,0.00,VWS V14.01,2013-03-24 19:12:00,
2013-03-24 15:13:00,44.6,35.1,29.75,SSE,159,0.0,4.0,69,0.00,,---,0.00,VWS V14.01,2013-03-24 19:13:00,
2013-03-24 15:14:00,44.5,35.0,29.75,SSE,159,0.0,4.0,69,0.00,,---,0.00,VWS V14.01,2013-03-24 19:14:00,
2013-03-24 15:15:00,44.4,34.9,29.75,SE,146,0.0,4.0,69,0.00,,---,0.00,VWS V14.01,2013-03-24 19:15:00,
2013-03-24 15:16:00,44.2,34.7,29.75,SSE,165,1.0,5.0,69,0.00,,---,0.00,VWS V14.01,2013-03-24 19:16:00,
2013-03-24 15:17:00,44.1,34.6,29.75,SSE,165,0.0,5.0,69,0.00,,---,0.00,VWS V14.01,2013-03-24 19:17:00,
2013-03-24 15:18:00,43.9,34.4,29.75,SSE,165,0.0,5.0,69,0.00,,---,0.00,VWS V14.01,2013-03-24 19:18:00,
2013-03-24 15:19:00,43.8,34.7,29.75,SSE,165,0.0,5.0,70,0.00,,---,0.00,VWS V14.01,2013-03-24 19:19:00,
2013-03-24 15:20:00,43.7,34.6,29.75,SSE,155,0.0,5.0,70,0.00,,---,0.00,VWS V14.01,2013-03-24 19:20:00,
2013-03-24 15:21:00,43.6,34.5,29.75,SSE,155,0.0,5.0,70,0.00,,---,0.00,VWS V14.01,2013-03-24 19:21:00,
2013-03-24 15:22:00,43.5,34.4,29.75,SSE,156,0.0,5.0,70,0.00,,---,0.00,VWS V14.01,2013-03-24 19:22:00,
2013-03-24 15:23:00,43.4,34.3,29.75,SSE,156,0.0,5.0,70,0.00,,---,0.00,VWS V14.01,2013-03-24 19:23:00,
2013-03-24 15:24:00,43.3,34.5,29.75,SSE,156,0.0,5.0,71,0.00,,---,0.00,VWS V14.01,2013-03-24 19:24:00,
2013-03-24 15:25:00,43.2,34.5,29.75,SSE,151,0.0,5.0,71,0.00,,---,0.00,VWS V14.01,2013-03-24 19:25:00,
2013-03-24 15:26:00,43.2,34.1,29.75,SSE,151,0.0,5.0,70,0.00,,---,0.00,VWS V14.01,2013-03-24 19:26:00,
2013-03-24 15:27:00,43.0,34.2,29.75,SSE,152,0.0,5.0,71,0.00,,---,0.00,VWS V14.01,2013-03-24 19:27:00,
2013-03-24 15:28:00,42.8,34.1,29.75,SSE,152,0.0,5.0,71,0.00,,---,0.00,VWS V14.01,2013-03-24 19:28:00,
2013-03-24 15:29:00,42.7,34.0,29.75,SSE,152,0.0,5.0,71,0.00,,---,0.00,VWS V14.01,2013-03-24 19:29:00,
2013-03-24 15:30:00,42.6,33.9,29.75,SSE,152,0.0,5.0,71,0.00,,---,0.00,VWS V14.01,2013-03-24 19:30:00,
2013-03-24 15:31:00,42.4,33.7,29.75,SSE,152,0.0,0.0,71,0.00,,---,0.00,VWS V14.01,2013-03-24 19:31:00,
2013-03-24 15:32:00,42.4,33.7,29.75,SSE,152,0.0,0.0,71,0.00,,---,0.00,VWS V14.01,2013-03-24 19:32:00,
2013-03-24 15:33:00,42.3,33.9,29.75,SSE,152,0.0,0.0,72,0.00,,---,0.00,VWS V14.01,2013-03-24 19:33:00,
2013-03-24 15:34:00,42.2,33.8,29.75,SSE,152,0.0,0.0,72,0.00,,---,0.00,VWS V14.01,2013-03-24 19:34:00,
2013-03-24 15:35:00,42.1,33.7,29.75,SSE,152,0.0,0.0,72,0.00,,---,0.00,VWS V14.01,2013-03-24 19:35:00,
2013-03-24 15:36:00,42.1,33.7,29.75,SSE,152,0.0,0.0,72,0.00,,---,0.00,VWS V14.01,2013-03-24 19:36:00,
2013-03-24 15:37:00,42.0,33.6,29.75,SSE,152,0.0,0.0,72,0.00,,---,0.00,VWS V14.01,2013-03-24 19:37:00,
2013-03-24 15:38:00,41.9,33.5,29.75,SSE,152,0.0,0.0,72,0.00,,---,0.00,VWS V14.01,2013-03-24 19:38:00,
2013-03-24 15:39:00,41.8,33.5,29.75,SSE,152,0.0,0.0,72,0.00,,---,0.00,VWS V14.01,2013-03-24 19:39:00,
2013-03-24 15:40:00,41.8,33.8,29.75,SSE,152,0.0,0.0,73,0.00,,---,0.00,VWS V14.01,2013-03-24 19:40:00,
2013-03-24 15:41:00,41.7,33.7,29.75,SSE,152,0.0,0.0,73,0.00,,---,0.00,VWS V14.01,2013-03-24 19:41:00,
2013-03-24 15:42:00,41.7,33.7,29.75,SSE,153,0.0,1.0,73,0.00,,---,0.00,VWS V14.01,2013-03-24 19:42:00,
2013-03-24 15:43:00,41.6,33.6,29.75,SSE,153,0.0,1.0,73,0.00,,---,0.00,VWS V14.01,2013-03-24 19:43:00,
2013-03-24 15:44:00,41.5,33.5,29.75,SSE,161,0.0,1.0,73,0.00,,---,0.00,VWS V14.01,2013-03-24 19:44:00,
2013-03-24 15:45:00,41.5,33.5,29.75,SSE,163,0.0,1.0,73,0.00,,---,0.00,VWS V14.01,2013-03-24 19:45:00,
2013-03-24 15:46:00,41.5,33.5,29.75,SSE,163,1.0,1.0,73,0.00,,---,0.00,VWS V14.01,2013-03-24 19:46:00,
2013-03-24 15:47:00,41.5,33.8,29.75,South,169,1.0,2.0,74,0.00,,---,0.00,VWS V14.01,2013-03-24 19:47:00,
2013-03-24 15:48:00,41.5,33.8,29.75,South,171,0.0,2.0,74,0.00,,---,0.00,VWS V14.01,2013-03-24 19:48:00,
2013-03-24 15:49:00,41.5,33.8,29.75,South,173,0.0,2.0,74,0.00,,---,0.00,VWS V14.01,2013-03-24 19:49:00,
2013-03-24 15:50:00,41.5,33.8,29.75,South,173,1.0,2.0,74,0.00,,---,0.00,VWS V14.01,2013-03-24 19:50:00,
2013-03-24 15:51:00,41.4,33.8,29.75,South,173,0.0,2.0,74,0.00,,---,0.00,VWS V14.01,2013-03-24 19:51:00,
2013-03-24 15:52:00,41.4,33.4,29.75,South,173,0.0,2.0,73,0.00,,---,0.00,VWS V14.01,2013-03-24 19:52:00,
2013-03-24 15:53:00,41.3,33.3,29.75,South,173,1.0,2.0,73,0.00,,---,0.00,VWS V14.01,2013-03-24 19:53:00,
2013-03-24 15:54:00,41.3,33.3,29.75,South,173,0.0,2.0,73,0.00,,---,0.00,VWS V14.01,2013-03-24 19:54:00,
2013-03-24 15:55:00,41.3,33.3,29.75,South,173,0.0,2.0,73,0.00,,---,0.00,VWS V14.01,2013-03-24 19:55:00,
2013-03-24 15:56:00,41.3,33.3,29.75,South,173,0.0,2.0,73,0.00,,---,0.00,VWS V14.01,2013-03-24 19:56:00,
2013-03-24 15:57:00,41.3,33.3,29.75,South,173,0.0,2.0,73,0.00,,---,0.00,VWS V14.01,2013-03-24 19:57:00,
2013-03-24 15:58:00,41.2,33.2,29.75,South,173,0.0,2.0,73,0.00,,---,0.00,VWS V14.01,2013-03-24 19:58:00,
2013-03-24 15:59:00,41.2,33.2,29.75,South,173,0.0,2.0,73,0.00,,---,0.00,VWS V14.01,2013-03-24 19:59:00,
2013-03-24 16:00:00,41.1,33.1,29.75,South,173,0.0,2.0,73,0.00,,---,0.00,VWS V14.01,2013-03-24 20:00:00,
2013-03-24 16:01:00,41.1,33.5,29.75,South,173,0.0,0.0,74,0.00,,---,0.00,VWS V14.01,2013-03-24 20:01:00,
2013-03-24 16:02:00,41.1,33.5,29.75,South,173,0.0,0.0,74,0.00,,---,0.00,VWS V14.01,2013-03-24 20:02:00,
2013-03-24 16:03:00,41.0,33.4,29.75,South,173,0.0,0.0,74,0.00,,---,0.00,VWS V14.01,2013-03-24 20:03:00,
2013-03-24 16:04:00,41.0,33.4,29.75,South,173,0.0,0.0,74,0.00,,---,0.00,VWS V14.01,2013-03-24 20:04:00,
2013-03-24 16:05:00,40.9,33.3,29.75,South,173,0.0,0.0,74,0.00,,---,0.00,VWS V14.01,2013-03-24 20:05:00,
2013-03-24 16:06:00,40.9,33.3,29.75,South,173,0.0,0.0,74,0.00,,---,0.00,VWS V14.01,2013-03-24 20:06:00,
2013-03-24 16:07:00,40.8,33.2,29.75,South,173,0.0,0.0,74,0.00,,---,0.00,VWS V14.01,2013-03-24 20:07:00,
2013-03-24 16:08:00,40.7,33.1,29.75,South,173,0.0,0.0,74,0.00,,---,0.00,VWS V14.01,2013-03-24 20:08:00,
2013-03-24 16:09:00,40.6,33.0,29.75,South,173,0.0,0.0,74,0.00,,---,0.00,VWS V14.01,2013-03-24 20:09:00,
2013-03-24 16:10:00,40.6,33.0,29.75,South,173,0.0,0.0,74,0.00,,---,0.00,VWS V14.01,2013-03-24 20:10:00,
2013-03-24 16:11:00,40.4,32.8,29.75,South,173,0.0,0.0,74,0.00,,---,0.00,VWS V14.01,2013-03-24 20:11:00,
2013-03-24 16:12:00,40.3,32.7,29.75,South,173,0.0,0.0,74,0.00,,---,0.00,VWS V14.01,2013-03-24 20:12:00,
2013-03-24 16:13:00,40.2,32.6,29.75,South,173,0.0,0.0,74,0.00,,---,0.00,VWS V14.01,2013-03-24 20:13:00,
2013-03-24 16:14:00,40.2,32.6,29.75,South,173,0.0,0.0,74,0.00,,---,0.00,VWS V14.01,2013-03-24 20:14:00,
2013-03-24 16:15:00,40.1,32.5,29.75,South,173,0.0,0.0,74,0.00,,---,0.00,VWS V14.01,2013-03-24 20:15:00,
2013-03-24 16:16:00,40.0,32.4,29.75,South,173,0.0,0.0,74,0.00,,---,0.00,VWS V14.01,2013-03-24 20:16:00,
2013-03-24 16:17:00,39.9,32.3,29.75,South,173,0.0,0.0,74,0.00,,---,0.00,VWS V14.01,2013-03-24 20:17:00,
2013-03-24 16:18:00,39.8,32.2,29.75,South,173,0.0,0.0,74,0.00,,---,0.00,VWS V14.01,2013-03-24 20:18:00,
2013-03-24 16:19:00,39.7,32.1,29.75,South,173,0.0,0.0,74,0.00,,---,0.00,VWS V14.01,2013-03-24 20:19:00,
2013-03-24 16:20:00,39.7,32.1,29.75,South,173,0.0,0.0,74,0.00,,---,0.00,VWS V14.01,2013-03-24 20:20:00,
2013-03-24 16:21:00,39.6,32.0,29.75,South,173,2.0,2.0,74,0.00,,---,0.00,VWS V14.01,2013-03-24 20:21:00,
2013-03-24 16:22:00,39.6,32.0,29.75,SSE,157,3.0,4.0,74,0.00,,---,0.00,VWS V14.01,2013-03-24 20:22:00,
2013-03-24 16:23:00,39.5,32.2,29.76,East,94,6.0,6.0,75,0.00,,---,0.00,VWS V14.01,2013-03-24 20:23:00,
2013-03-24 16:24:00,39.4,32.2,29.76,ESE,114,9.0,9.0,75,0.00,,---,0.00,VWS V14.01,2013-03-24 20:24:00,
2013-03-24 16:25:00,39.3,32.0,29.76,ESE,105,7.0,9.0,75,0.00,,---,0.00,VWS V14.01,2013-03-24 20:25:00,
2013-03-24 16:26:00,39.3,32.0,29.76,East,97,5.0,10.0,75,0.00,,---,0.00,VWS V14.01,2013-03-24 20:26:00,
2013-03-24 16:27:00,39.3,32.4,29.76,East,98,3.0,10.0,76,0.00,,---,0.00,VWS V14.01,2013-03-24 20:27:00,
2013-03-24 16:28:00,39.3,32.4,29.76,SE,126,1.0,10.0,76,0.00,,---,0.00,VWS V14.01,2013-03-24 20:28:00,
2013-03-24 16:29:00,39.3,32.4,29.76,SE,126,0.0,10.0,76,0.00,,---,0.00,VWS V14.01,2013-03-24 20:29:00,
2013-03-24 16:30:00,39.3,32.4,29.76,SE,129,3.0,10.0,76,0.00,,---,0.00,VWS V14.01,2013-03-24 20:30:00,
2013-03-24 16:31:00,39.3,32.7,29.76,SE,130,0.0,3.0,77,0.00,,---,0.00,VWS V14.01,2013-03-24 20:31:00,
2013-03-24 16:32:00,39.3,32.7,29.76,SE,132,1.0,3.0,77,0.00,,---,0.00,VWS V14.01,2013-03-24 20:32:00,
2013-03-24 16:33:00,39.3,32.7,29.76,SE,139,0.0,6.0,77,0.00,,---,0.00,VWS V14.01,2013-03-24 20:33:00,
2013-03-24 16:34:00,39.4,33.1,29.76,SE,141,0.0,6.0,78,0.00,,---,0.00,VWS V14.01,2013-03-24 20:34:00,
2013-03-24 16:35:00,39.4,33.1,29.76,SE,142,0.0,6.0,78,0.00,,---,0.00,VWS V14.01,2013-03-24 20:35:00,
2013-03-24 16:36:00,39.5,33.2,29.76,SE,142,0.0,6.0,78,0.00,,---,0.00,VWS V14.01,2013-03-24 20:36:00,
2013-03-24 16:37:00,39.5,33.2,29.76,SE,142,0.0,6.0,78,0.00,,---,0.00,VWS V14.01,2013-03-24 20:37:00,
2013-03-24 16:38:00,39.5,33.2,29.76,SE,143,0.0,6.0,78,0.00,,---,0.00,VWS V14.01,2013-03-24 20:38:00,
2013-03-24 16:39:00,39.5,33.5,29.76,SE,144,1.0,6.0,79,0.00,,---,0.00,VWS V14.01,2013-03-24 20:39:00,
2013-03-24 16:40:00,39.5,33.5,29.76,SE,141,0.0,6.0,79,0.00,,---,0.00,VWS V14.01,2013-03-24 20:40:00,
2013-03-24 16:41:00,39.5,33.5,29.76,SE,140,1.0,6.0,79,0.00,,---,0.00,VWS V14.01,2013-03-24 20:41:00,
2013-03-24 16:42:00,39.5,33.5,29.76,SE,141,1.0,6.0,79,0.00,,---,0.00,VWS V14.01,2013-03-24 20:42:00,
2013-03-24 16:43:00,39.5,33.5,29.76,SE,134,2.0,6.0,79,0.00,,---,0.00,VWS V14.01,2013-03-24 20:43:00,
2013-03-24 16:44:00,39.4,33.4,29.76,ESE,121,5.0,6.0,79,0.00,,---,0.00,VWS V14.01,2013-03-24 20:44:00,
2013-03-24 16:45:00,39.4,33.4,29.76,ESE,123,1.0,6.0,79,0.00,,---,0.00,VWS V14.01,2013-03-24 20:45:00,
2013-03-24 16:46:00,39.3,33.3,29.76,SE,136,2.0,6.0,79,0.00,,---,0.00,VWS V14.01,2013-03-24 20:46:00,
2013-03-24 16:47:00,39.3,33.3,29.76,SE,146,1.0,7.0,79,0.00,,---,0.00,VWS V14.01,2013-03-24 20:47:00,
2013-03-24 16:48:00,39.3,33.0,29.76,SSE,151,0.0,7.0,78,0.00,,---,0.00,VWS V14.01,2013-03-24 20:48:00,
2013-03-24 16:49:00,39.3,33.0,29.76,ESE,111,0.0,7.0,78,0.00,,---,0.00,VWS V14.01,2013-03-24 20:49:00,
2013-03-24 16:50:00,39.2,32.9,29.76,SE,145,1.0,7.0,78,0.00,,---,0.00,VWS V14.01,2013-03-24 20:50:00,
2013-03-24 16:51:00,39.2,32.9,29.76,SW,222,0.0,7.0,78,0.00,,---,0.00,VWS V14.01,2013-03-24 20:51:00,
2013-03-24 16:52:00,39.2,32.9,29.76,SE,136,0.0,7.0,78,0.00,,---,0.00,VWS V14.01,2013-03-24 20:52:00,
2013-03-24 16:53:00,39.2,32.9,29.76,ESE,113,0.0,7.0,78,0.00,,---,0.00,VWS V14.01,2013-03-24 20:53:00,
2013-03-24 16:54:00,39.2,33.2,29.76,South,175,3.0,7.0,79,0.00,,---,0.00,VWS V14.01,2013-03-24 20:54:00,
2013-03-24 16:55:00,39.2,32.9,29.76,SE,142,3.0,7.0,78,0.00,,---,0.00,VWS V14.01,2013-03-24 20:55:00,
2013-03-24 16:56:00,39.3,33.0,29.76,SW,215,1.0,7.0,78,0.00,,---,0.00,VWS V14.01,2013-03-24 20:56:00,
2013-03-24 16:57:00,39.3,33.0,29.76,SSW,202,1.0,7.0,78,0.00,,---,0.00,VWS V14.01,2013-03-24 20:57:00,
2013-03-24 16:58:00,39.3,33.0,29.76,SSE,157,3.0,7.0,78,0.00,,---,0.00,VWS V14.01,2013-03-24 20:58:00,
2013-03-24 16:59:00,39.3,33.0,29.76,South,173,0.0,7.0,78,0.00,,---,0.00,VWS V14.01,2013-03-24 20:59:00,
2013-03-24 17:00:00,39.3,32.7,29.76,SSE,158,5.0,7.0,77,0.00,,---,0.00,VWS V14.01,2013-03-24 21:00:00,
2013-03-24 17:01:00,39.3,32.7,29.76,SSW,196,2.0,7.0,77,0.00,,---,0.00,VWS V14.01,2013-03-24 21:01:00,
2013-03-24 17:02:00,39.3,32.7,29.76,SE,132,0.0,7.0,77,0.00,,---,0.00,VWS V14.01,2013-03-24 21:02:00,
2013-03-24 17:03:00,39.3,32.7,29.76,ENE,66,2.0,7.0,77,0.00,,---,0.00,VWS V14.01,2013-03-24 21:03:00,
2013-03-24 17:04:00,39.3,32.7,29.76,South,181,1.0,8.0,77,0.00,,---,0.00,VWS V14.01,2013-03-24 21:04:00,
2013-03-24 17:05:00,39.3,32.7,29.76,SSE,162,1.0,8.0,77,0.00,,---,0.00,VWS V14.01,2013-03-24 21:05:00,
2013-03-24 17:06:00,39.3,32.7,29.76,WSW,248,1.0,8.0,77,0.00,,---,0.00,VWS V14.01,2013-03-24 21:06:00,
2013-03-24 17:07:00,39.3,32.7,29.76,SE,143,2.0,8.0,77,0.00,,---,0.00,VWS V14.01,2013-03-24 21:07:00,
2013-03-24 17:08:00,39.3,32.7,29.76,South,170,1.0,10.0,77,0.00,,---,0.00,VWS V14.01,2013-03-24 21:08:00,
2013-03-24 17:09:00,39.3,32.7,29.76,SSE,149,1.0,10.0,77,0.00,,---,0.00,VWS V14.01,2013-03-24 21:09:00,
2013-03-24 17:10:00,39.3,32.7,29.76,SE,134,1.0,10.0,77,0.00,,---,0.00,VWS V14.01,2013-03-24 21:10:00,
2013-03-24 17:11:00,39.3,32.7,29.76,SE,146,1.0,10.0,77,0.00,,---,0.00,VWS V14.01,2013-03-24 21:11:00,
2013-03-24 17:12:00,39.3,32.7,29.76,SSE,162,1.0,10.0,77,0.00,,---,0.00,VWS V14.01,2013-03-24 21:12:00,
2013-03-24 17:13:00,39.3,33.0,29.76,SE,131,3.0,10.0,78,0.00,,---,0.00,VWS V14.01,2013-03-24 21:13:00,
2013-03-24 17:14:00,39.3,33.0,29.76,East,80,1.0,10.0,78,0.00,,---,0.00,VWS V14.01,2013-03-24 21:14:00,
2013-03-24 17:15:00,39.3,33.0,29.76,SE,133,0.0,10.0,78,0.00,,---,0.00,VWS V14.01,2013-03-24 21:15:00,
2013-03-24 17:16:00,39.2,32.9,29.76,SSE,154,2.0,10.0,78,0.00,,---,0.00,VWS V14.01,2013-03-24 21:16:00,
2013-03-24 17:17:00,39.2,32.9,29.76,SE,132,1.0,10.0,78,0.00,,---,0.00,VWS V14.01,2013-03-24 21:17:00,
2013-03-24 17:18:00,39.2,32.9,29.76,SE,145,1.0,10.0,78,0.00,,---,0.00,VWS V14.01,2013-03-24 21:18:00,
2013-03-24 17:19:00,39.2,32.9,29.76,SE,144,2.0,10.0,78,0.00,,---,0.00,VWS V14.01,2013-03-24 21:19:00,
2013-03-24 17:20:00,39.2,32.9,29.76,ESE,121,1.0,10.0,78,0.00,,---,0.00,VWS V14.01,2013-03-24 21:20:00,
2013-03-24 17:21:00,39.1,32.8,29.76,ESE,121,0.0,10.0,78,0.00,,---,0.00,VWS V14.01,2013-03-24 21:21:00,
2013-03-24 17:22:00,39.1,32.8,29.76,SSE,149,0.0,10.0,78,0.00,,---,0.00,VWS V14.01,2013-03-24 21:22:00,
2013-03-24 17:23:00,39.1,32.5,29.76,SSE,155,0.0,10.0,77,0.00,,---,0.00,VWS V14.01,2013-03-24 21:23:00,
2013-03-24 17:24:00,39.1,32.5,29.76,SSE,161,0.0,10.0,77,0.00,,---,0.00,VWS V14.01,2013-03-24 21:24:00,
2013-03-24 17:25:00,39.1,32.5,29.76,ESE,119,0.0,10.0,77,0.00,,---,0.00,VWS V14.01,2013-03-24 21:25:00,
2013-03-24 17:26:00,39.1,32.5,29.76,SE,136,1.0,10.0,77,0.00,,---,0.00,VWS V14.01,2013-03-24 21:26:00,
2013-03-24 17:27:00,39.1,32.5,29.76,SSE,167,0.0,10.0,77,0.00,,---,0.00,VWS V14.01,2013-03-24 21:27:00,
2013-03-24 17:28:00,39.1,32.5,29.76,SE,138,3.0,10.0,77,0.00,,---,0.00,VWS V14.01,2013-03-24 21:28:00,
2013-03-24 17:29:00,39.1,32.5,29.76,SE,133,0.0,10.0,77,0.00,,---,0.00,VWS V14.01,2013-03-24 21:29:00,
2013-03-24 17:30:00,39.1,32.5,29.76,SSE,164,2.0,10.0,77,0.00,,---,0.00,VWS V14.01,2013-03-24 21:30:00,
2013-03-24 17:31:00,39.1,32.5,29.76,SSE,164,0.0,2.0,77,0.00,,---,0.00,VWS V14.01,2013-03-24 21:31:00,
2013-03-24 17:32:00,39.1,32.5,29.76,SSE,160,0.0,2.0,77,0.00,,---,0.00,VWS V14.01,2013-03-24 21:32:00,
2013-03-24 17:33:00,39.1,32.5,29.77,South,183,0.0,2.0,77,0.00,,---,0.00,VWS V14.01,2013-03-24 21:33:00,
2013-03-24 17:34:00,39.1,32.8,29.77,South,180,0.0,2.0,78,0.00,,---,0.00,VWS V14.01,2013-03-24 21:34:00,
2013-03-24 17:35:00,39.1,32.8,29.77,South,180,0.0,2.0,78,0.00,,---,0.00,VWS V14.01,2013-03-24 21:35:00,
2013-03-24 17:36:00,39.1,32.8,29.77,South,180,0.0,2.0,78,0.00,,---,0.00,VWS V14.01,2013-03-24 21:36:00,
2013-03-24 17:37:00,39.1,32.8,29.77,SE,138,0.0,2.0,78,0.00,,---,0.00,VWS V14.01,2013-03-24 21:37:00,
2013-03-24 17:38:00,39.1,32.8,29.77,SE,138,0.0,2.0,78,0.00,,---,0.00,VWS V14.01,2013-03-24 21:38:00,
2013-03-24 17:39:00,39.1,32.8,29.77,SE,138,2.0,2.0,78,0.00,,---,0.00,VWS V14.01,2013-03-24 21:39:00,
2013-03-24 17:40:00,39.1,33.2,29.77,SE,139,0.0,4.0,79,0.00,,---,0.00,VWS V14.01,2013-03-24 21:40:00,
2013-03-24 17:41:00,39.2,33.2,29.77,SE,139,0.0,4.0,79,0.00,,---,0.00,VWS V14.01,2013-03-24 21:41:00,
2013-03-24 17:42:00,39.2,33.2,29.77,SE,139,0.0,4.0,79,0.00,,---,0.00,VWS V14.01,2013-03-24 21:42:00,
2013-03-24 17:43:00,39.2,33.2,29.77,SE,139,0.0,4.0,79,0.00,,---,0.00,VWS V14.01,2013-03-24 21:43:00,
2013-03-24 17:44:00,39.2,33.2,29.77,SE,139,0.0,4.0,79,0.00,,---,0.00,VWS V14.01,2013-03-24 21:44:00,
2013-03-24 17:45:00,39.2,33.2,29.77,SE,139,0.0,4.0,79,0.00,,---,0.00,VWS V14.01,2013-03-24 21:45:00,
2013-03-24 17:46:00,39.2,33.2,29.77,SE,139,0.0,4.0,79,0.00,,---,0.00,VWS V14.01,2013-03-24 21:46:00,
2013-03-24 17:47:00,39.2,33.2,29.77,SE,139,0.0,4.0,79,0.00,,---,0.00,VWS V14.01,2013-03-24 21:47:00,
2013-03-24 17:48:00,39.2,33.2,29.77,SE,139,0.0,4.0,79,0.00,,---,0.00,VWS V14.01,2013-03-24 21:48:00,
2013-03-24 17:49:00,39.1,33.2,29.77,SE,139,0.0,4.0,79,0.00,,---,0.00,VWS V14.01,2013-03-24 21:49:00,
2013-03-24 17:50:00,39.1,33.2,29.77,SE,139,0.0,4.0,79,0.00,,---,0.00,VWS V14.01,2013-03-24 21:50:00,
2013-03-24 17:51:00,39.1,33.2,29.77,SE,139,0.0,4.0,79,0.00,,---,0.00,VWS V14.01,2013-03-24 21:51:00,
2013-03-24 17:52:00,39.1,33.2,29.77,SE,139,0.0,4.0,79,0.00,,---,0.00,VWS V14.01,2013-03-24 21:52:00,
2013-03-24 17:53:00,39.1,33.2,29.77,SE,139,0.0,4.0,79,0.00,,---,0.00,VWS V14.01,2013-03-24 21:53:00,
2013-03-24 17:54:00,39.1,33.2,29.77,SE,139,0.0,4.0,79,0.00,,---,0.00,VWS V14.01,2013-03-24 21:54:00,
2013-03-24 17:55:00,39.1,33.5,29.78,SE,139,0.0,4.0,80,0.00,,---,0.00,VWS V14.01,2013-03-24 21:55:00,
2013-03-24 17:56:00,39.1,33.5,29.78,SE,139,0.0,4.0,80,0.00,,---,0.00,VWS V14.01,2013-03-24 21:56:00,
2013-03-24 17:57:00,39.1,33.5,29.78,SE,139,0.0,4.0,80,0.00,,---,0.00,VWS V14.01,2013-03-24 21:57:00,
2013-03-24 17:58:00,39.1,33.5,29.78,SE,139,0.0,4.0,80,0.00,,---,0.00,VWS V14.01,2013-03-24 21:58:00,
2013-03-24 17:59:00,39.1,33.5,29.78,SE,139,0.0,4.0,80,0.00,,---,0.00,VWS V14.01,2013-03-24 21:59:00,
2013-03-24 18:00:00,39.1,33.5,29.78,SE,139,0.0,4.0,80,0.00,,---,0.00,VWS V14.01,2013-03-24 22:00:00,
2013-03-24 18:01:00,39.1,33.5,29.78,SE,139,0.0,0.0,80,0.00,,---,0.00,VWS V14.01,2013-03-24 22:01:00,
2013-03-24 18:02:00,39.1,33.5,29.78,SE,139,0.0,0.0,80,0.00,,---,0.00,VWS V14.01,2013-03-24 22:02:00,
2013-03-24 18:03:00,39.1,33.5,29.78,SE,139,0.0,0.0,80,0.00,,---,0.00,VWS V14.01,2013-03-24 22:03:00,
2013-03-24 18:04:00,39.1,33.5,29.78,SE,142,1.0,2.0,80,0.00,,---,0.00,VWS V14.01,2013-03-24 22:04:00,
2013-03-24 18:05:00,39.1,33.8,29.78,SE,144,0.0,2.0,81,0.00,,---,0.00,VWS V14.01,2013-03-24 22:05:00,
2013-03-24 18:06:00,39.1,33.8,29.78,SE,144,0.0,2.0,81,0.00,,---,0.00,VWS V14.01,2013-03-24 22:06:00,
2013-03-24 18:07:00,39.2,33.9,29.79,SSE,156,1.0,3.0,81,0.00,,---,0.00,VWS V14.01,2013-03-24 22:07:00,
2013-03-24 18:08:00,39.2,33.9,29.79,SW,217,2.0,4.0,81,0.00,,---,0.00,VWS V14.01,2013-03-24 22:08:00,
2013-03-24 18:09:00,39.2,33.9,29.79,SSW,213,2.0,5.0,81,0.00,,---,0.00,VWS V14.01,2013-03-24 22:09:00,
2013-03-24 18:10:00,39.2,33.9,29.79,SW,215,1.0,5.0,81,0.00,,---,0.00,VWS V14.01,2013-03-24 22:10:00,
2013-03-24 18:11:00,39.3,34.0,29.79,SW,215,1.0,5.0,81,0.00,,---,0.00,VWS V14.01,2013-03-24 22:11:00,
2013-03-24 18:12:00,39.3,34.0,29.79,SW,215,0.0,5.0,81,0.00,,---,0.00,VWS V14.01,2013-03-24 22:12:00,
2013-03-24 18:13:00,39.3,34.0,29.79,SW,215,1.0,5.0,81,0.00,,---,0.00,VWS V14.01,2013-03-24 22:13:00,
2013-03-24 18:14:00,39.3,34.0,29.79,SW,216,1.0,5.0,81,0.00,,---,0.00,VWS V14.01,2013-03-24 22:14:00,
2013-03-24 18:15:00,39.4,34.1,29.79,SW,216,1.0,5.0,81,0.00,,---,0.00,VWS V14.01,2013-03-24 22:15:00,
2013-03-24 18:16:00,39.4,34.1,29.79,SW,217,1.0,5.0,81,0.00,,---,0.00,VWS V14.01,2013-03-24 22:16:00,
2013-03-24 18:17:00,39.4,34.1,29.79,SW,223,3.0,5.0,81,0.00,,---,0.00,VWS V14.01,2013-03-24 22:17:00,
2013-03-24 18:18:00,39.5,34.2,29.79,SW,229,2.0,5.0,81,0.00,,---,0.00,VWS V14.01,2013-03-24 22:18:00,
2013-03-24 18:19:00,39.5,34.2,29.79,SW,229,1.0,5.0,81,0.00,,---,0.00,VWS V14.01,2013-03-24 22:19:00,
2013-03-24 18:20:00,39.5,34.2,29.79,SW,227,1.0,5.0,81,0.00,,---,0.00,VWS V14.01,2013-03-24 22:20:00,
2013-03-24 18:21:00,39.6,34.6,29.79,SW,227,1.0,5.0,82,0.00,,---,0.00,VWS V14.01,2013-03-24 22:21:00,
2013-03-24 18:22:00,39.6,34.6,29.79,SW,227,1.0,5.0,82,0.00,,---,0.00,VWS V14.01,2013-03-24 22:22:00,
2013-03-24 18:23:00,39.6,34.6,29.79,SW,229,1.0,5.0,82,0.00,,---,0.00,VWS V14.01,2013-03-24 22:23:00,
2013-03-24 18:24:00,39.6,34.6,29.79,SW,230,3.0,5.0,82,0.00,,---,0.00,VWS V14.01,2013-03-24 22:24:00,
2013-03-24 18:25:00,39.7,34.7,29.79,SW,231,2.0,5.0,82,0.00,,---,0.00,VWS V14.01,2013-03-24 22:25:00,
2013-03-24 18:26:00,39.7,34.7,29.79,SW,233,2.0,5.0,82,0.00,,---,0.00,VWS V14.01,2013-03-24 22:26:00,
2013-03-24 18:27:00,39.7,34.7,29.79,SW,233,2.0,5.0,82,0.00,,---,0.00,VWS V14.01,2013-03-24 22:27:00,
2013-03-24 18:28:00,39.7,34.7,29.79,SW,235,3.0,5.0,82,0.00,,---,0.00,VWS V14.01,2013-03-24 22:28:00,
2013-03-24 18:29:00,39.7,34.7,29.79,SW,235,1.0,5.0,82,0.00,,---,0.00,VWS V14.01,2013-03-24 22:29:00,
2013-03-24 18:30:00,39.7,34.7,29.79,SW,236,1.0,5.0,82,0.00,,---,0.00,VWS V14.01,2013-03-24 22:30:00,
2013-03-24 18:31:00,39.7,34.7,29.79,SW,236,1.0,3.0,82,0.00,,---,0.00,VWS V14.01,2013-03-24 22:31:00,
2013-03-24 18:32:00,39.7,34.4,29.79,SW,232,1.0,3.0,81,0.00,,---,0.00,VWS V14.01,2013-03-24 22:32:00,
2013-03-24 18:33:00,39.6,34.3,29.79,WSW,237,3.0,3.0,81,0.00,,---,0.00,VWS V14.01,2013-03-24 22:33:00,
2013-03-24 18:34:00,39.6,34.3,29.79,WSW,240,5.0,5.0,81,0.00,,---,0.00,VWS V14.01,2013-03-24 22:34:00,
2013-03-24 18:35:00,39.6,34.3,29.79,WSW,240,3.0,5.0,81,0.00,,---,0.00,VWS V14.01,2013-03-24 22:35:00,
2013-03-24 18:36:00,39.6,34.3,29.79,WSW,240,2.0,5.0,81,0.00,,---,0.00,VWS V14.01,2013-03-24 22:36:00,
2013-03-24 18:37:00,39.7,34.4,29.79,WSW,240,2.0,5.0,81,0.00,,---,0.00,VWS V14.01,2013-03-24 22:37:00,
2013-03-24 18:38:00,39.7,34.4,29.79,WSW,240,2.0,5.0,81,0.00,,---,0.00,VWS V14.01,2013-03-24 22:38:00,
2013-03-24 18:39:00,39.6,34.3,29.79,WSW,240,3.0,5.0,81,0.00,,---,0.00,VWS V14.01,2013-03-24 22:39:00,
2013-03-24 18:40:00,39.6,34.3,29.79,WSW,240,2.0,5.0,81,0.00,,---,0.00,VWS V14.01,2013-03-24 22:40:00,
2013-03-24 18:41:00,39.7,34.4,29.79,WSW,240,2.0,5.0,81,0.00,,---,0.00,VWS V14.01,2013-03-24 22:41:00,
2013-03-24 18:42:00,39.6,34.3,29.79,WSW,240,3.0,5.0,81,0.00,,---,0.00,VWS V14.01,2013-03-24 22:42:00,
2013-03-24 18:43:00,39.6,34.3,29.79,WSW,240,4.0,5.0,81,0.00,,---,0.00,VWS V14.01,2013-03-24 22:43:00,
2013-03-24 18:44:00,39.7,34.4,29.79,WSW,243,4.0,5.0,81,0.00,,---,0.00,VWS V14.01,2013-03-24 22:44:00,
2013-03-24 18:45:00,39.7,34.4,29.79,WSW,244,4.0,5.0,81,0.00,,---,0.00,VWS V14.01,2013-03-24 22:45:00,
2013-03-24 18:46:00,39.6,34.3,29.79,WSW,247,5.0,5.0,81,0.00,,---,0.00,VWS V14.01,2013-03-24 22:46:00,
2013-03-24 18:47:00,39.6,34.6,29.79,WSW,247,5.0,5.0,82,0.00,,---,0.00,VWS V14.01,2013-03-24 22:47:00,
2013-03-24 18:48:00,39.7,34.7,29.79,WSW,247,5.0,6.0,82,0.00,,---,0.00,VWS V14.01,2013-03-24 22:48:00,
2013-03-24 18:49:00,39.7,34.7,29.78,WSW,248,5.0,7.0,82,0.00,,---,0.00,VWS V14.01,2013-03-24 22:49:00,
2013-03-24 18:50:00,39.6,34.6,29.78,WSW,247,6.0,7.0,82,0.00,,---,0.00,VWS V14.01,2013-03-24 22:50:00,
2013-03-24 18:51:00,39.6,34.6,29.78,WSW,248,6.0,7.0,82,0.00,,---,0.00,VWS V14.01,2013-03-24 22:51:00,
2013-03-24 18:52:00,39.6,34.3,29.78,West,259,5.0,7.0,81,0.00,,---,0.00,VWS V14.01,2013-03-24 22:52:00,
2013-03-24 18:53:00,39.6,34.6,29.79,West,262,4.0,7.0,82,0.00,,---,0.00,VWS V14.01,2013-03-24 22:53:00,
2013-03-24 18:54:00,39.5,34.5,29.78,West,261,6.0,7.0,82,0.00,,---,0.00,VWS V14.01,2013-03-24 22:54:00,
2013-03-24 18:55:00,39.5,34.2,29.78,West,259,7.0,7.0,81,0.00,,---,0.00,VWS V14.01,2013-03-24 22:55:00,
2013-03-24 18:56:00,39.5,34.2,29.78,West,259,5.0,7.0,81,0.00,,---,0.00,VWS V14.01,2013-03-24 22:56:00,
2013-03-24 18:57:00,39.5,34.5,29.78,West,259,4.0,7.0,82,0.00,,---,0.00,VWS V14.01,2013-03-24 22:57:00,
2013-03-24 18:58:00,39.5,34.5,29.78,West,259,4.0,7.0,82,0.00,,---,0.00,VWS V14.01,2013-03-24 22:58:00,
2013-03-24 18:59:00,39.4,34.4,29.78,West,259,5.0,7.0,82,0.00,,---,0.00,VWS V14.01,2013-03-24 22:59:00,
2013-03-24 19:00:00,39.4,34.1,29.78,West,259,5.0,7.0,81,0.00,,---,0.00,VWS V14.01,2013-03-24 23:00:00,
2013-03-24 19:01:00,39.4,34.1,29.78,West,259,4.0,5.0,81,0.00,,---,0.00,VWS V14.01,2013-03-24 23:01:00,
2013-03-24 19:02:00,39.4,34.1,29.78,West,259,3.0,5.0,81,0.00,,---,0.00,VWS V14.01,2013-03-24 23:02:00,
2013-03-24 19:03:00,39.3,34.0,29.78,West,259,3.0,5.0,81,0.00,,---,0.00,VWS V14.01,2013-03-24 23:03:00,
2013-03-24 19:04:00,39.3,34.0,29.78,West,261,2.0,5.0,81,0.00,,---,0.00,VWS V14.01,2013-03-24 23:04:00,
2013-03-24 19:05:00,39.3,34.0,29.78,West,261,3.0,5.0,81,0.00,,---,0.00,VWS V14.01,2013-03-24 23:05:00,
2013-03-24 19:06:00,39.3,34.0,29.78,West,261,3.0,5.0,81,0.00,,---,0.00,VWS V14.01,2013-03-24 23:06:00,
2013-03-24 19:07:00,39.2,33.9,29.79,West,261,3.0,5.0,81,0.00,,---,0.00,VWS V14.01,2013-03-24 23:07:00,
2013-03-24 19:08:00,39.2,33.9,29.78,WSW,257,4.0,5.0,81,0.00,,---,0.00,VWS V14.01,2013-03-24 23:08:00,
2013-03-24 19:09:00,39.2,33.9,29.78,WSW,258,3.0,5.0,81,0.00,,---,0.00,VWS V14.01,2013-03-24 23:09:00,
2013-03-24 19:10:00,39.2,33.9,29.79,WSW,257,3.0,5.0,81,0.00,,---,0.00,VWS V14.01,2013-03-24 23:10:00,
2013-03-24 19:11:00,39.2,33.9,29.78,WSW,257,4.0,5.0,81,0.00,,---,0.00,VWS V14.01,2013-03-24 23:11:00,
2013-03-24 19:12:00,39.2,33.9,29.79,WSW,257,4.0,5.0,81,0.00,,---,0.00,VWS V14.01,2013-03-24 23:12:00,
2013-03-24 19:13:00,39.2,33.9,29.78,WSW,257,5.0,5.0,81,0.00,,---,0.00,VWS V14.01,2013-03-24 23:13:00,
2013-03-24 19:14:00,39.2,33.9,29.78,WSW,257,4.0,5.0,81,0.00,,---,0.00,VWS V14.01,2013-03-24 23:14:00,
2013-03-24 19:15:00,39.2,33.9,29.79,WSW,257,3.0,5.0,81,0.00,,---,0.00,VWS V14.01,2013-03-24 23:15:00,
2013-03-24 19:16:00,39.2,33.9,29.78,WSW,257,1.0,5.0,81,0.00,,---,0.00,VWS V14.01,2013-03-24 23:16:00,
2013-03-24 19:17:00,39.2,33.9,29.78,WSW,257,1.0,5.0,81,0.00,,---,0.00,VWS V14.01,2013-03-24 23:17:00,
2013-03-24 19:18:00,39.2,33.9,29.78,WSW,257,2.0,5.0,81,0.00,,---,0.00,VWS V14.01,2013-03-24 23:18:00,
2013-03-24 19:19:00,39.2,33.9,29.78,WSW,257,1.0,5.0,81,0.00,,---,0.00,VWS V14.01,2013-03-24 23:19:00,
2013-03-24 19:20:00,39.2,33.9,29.78,WSW,257,1.0,5.0,81,0.00,,---,0.00,VWS V14.01,2013-03-24 23:20:00,
2013-03-24 19:21:00,39.2,33.9,29.78,WSW,257,2.0,5.0,81,0.00,,---,0.00,VWS V14.01,2013-03-24 23:21:00,
2013-03-24 19:22:00,39.2,33.9,29.78,WSW,257,1.0,5.0,81,0.00,,---,0.00,VWS V14.01,2013-03-24 23:22:00,
2013-03-24 19:23:00,39.2,33.6,29.78,WSW,257,1.0,5.0,80,0.00,,---,0.00,VWS V14.01,2013-03-24 23:23:00,
2013-03-24 19:24:00,39.2,33.6,29.78,WSW,257,1.0,5.0,80,0.00,,---,0.00,VWS V14.01,2013-03-24 23:24:00,
2013-03-24 19:25:00,39.2,33.6,29.78,WSW,257,1.0,5.0,80,0.00,,---,0.00,VWS V14.01,2013-03-24 23:25:00,
2013-03-24 19:26:00,39.2,33.6,29.78,WSW,257,1.0,5.0,80,0.00,,---,0.00,VWS V14.01,2013-03-24 23:26:00,
2013-03-24 19:27:00,39.2,33.6,29.78,WSW,257,1.0,5.0,80,0.00,,---,0.00,VWS V14.01,2013-03-24 23:27:00,
2013-03-24 19:28:00,39.2,33.6,29.78,WSW,257,0.0,5.0,80,0.00,,---,0.00,VWS V14.01,2013-03-24 23:28:00,
2013-03-24 19:29:00,39.2,33.6,29.78,WSW,257,0.0,5.0,80,0.00,,---,0.00,VWS V14.01,2013-03-24 23:29:00,
2013-03-24 19:30:00,39.2,33.6,29.78,WSW,257,1.0,5.0,80,0.00,,---,0.00,VWS V14.01,2013-03-24 23:30:00,
2013-03-24 19:31:00,39.2,33.6,29.78,WSW,257,0.0,1.0,80,0.00,,---,0.00,VWS V14.01,2013-03-24 23:31:00,
2013-03-24 19:32:00,39.2,33.6,29.78,WSW,257,0.0,1.0,80,0.00,,---,0.00,VWS V14.01,2013-03-24 23:32:00,
2013-03-24 19:33:00,39.2,33.2,29.78,WSW,257,0.0,1.0,79,0.00,,---,0.00,VWS V14.01,2013-03-24 23:33:00,
2013-03-24 19:34:00,39.1,33.2,29.78,WSW,257,0.0,1.0,79,0.00,,---,0.00,VWS V14.01,2013-03-24 23:34:00,
2013-03-24 19:35:00,39.1,33.2,29.78,WSW,257,0.0,1.0,79,0.00,,---,0.00,VWS V14.01,2013-03-24 23:35:00,
2013-03-24 19:36:00,39.1,33.2,29.78,WSW,257,0.0,1.0,79,0.00,,---,0.00,VWS V14.01,2013-03-24 23:36:00,
2013-03-24 19:37:00,39.1,32.8,29.78,WSW,257,0.0,1.0,78,0.00,,---,0.00,VWS V14.01,2013-03-24 23:37:00,
2013-03-24 19:38:00,39.1,32.8,29.78,WSW,257,0.0,1.0,78,0.00,,---,0.00,VWS V14.01,2013-03-24 23:38:00,
2013-03-24 19:39:00,39.1,32.8,29.78,WSW,257,0.0,1.0,78,0.00,,---,0.00,VWS V14.01,2013-03-24 23:39:00,
2013-03-24 19:40:00,39.1,33.2,29.78,WSW,257,0.0,1.0,79,0.00,,---,0.00,VWS V14.01,2013-03-24 23:40:00,
2013-03-24 19:41:00,39.1,33.2,29.78,WSW,257,0.0,1.0,79,0.00,,---,0.00,VWS V14.01,2013-03-24 23:41:00,
2013-03-24 19:42:00,39.2,33.2,29.78,WSW,257,0.0,1.0,79,0.00,,---,0.00,VWS V14.01,2013-03-24 23:42:00,
2013-03-24 19:43:00,39.2,33.2,29.77,WSW,257,0.0,1.0,79,0.00,,---,0.00,VWS V14.01,2013-03-24 23:43:00,
2013-03-24 19:44:00,39.2,33.2,29.77,WSW,257,0.0,1.0,79,0.00,,---,0.00,VWS V14.01,2013-03-24 23:44:00,
2013-03-24 19:45:00,39.2,33.2,29.77,WSW,257,0.0,1.0,79,0.00,,---,0.00,VWS V14.01,2013-03-24 23:45:00,
2013-03-24 19:46:00,39.2,33.2,29.77,WSW,257,0.0,1.0,79,0.00,,---,0.00,VWS V14.01,2013-03-24 23:46:00,
2013-03-24 19:47:00,39.2,33.2,29.77,WSW,257,0.0,1.0,79,0.00,,---,0.00,VWS V14.01,2013-03-24 23:47:00,
2013-03-24 19:48:00,39.2,33.2,29.77,WSW,257,0.0,1.0,79,0.00,,---,0.00,VWS V14.01,2013-03-24 23:48:00,
2013-03-24 19:49:00,39.2,33.2,29.77,WSW,257,0.0,1.0,79,0.00,,---,0.00,VWS V14.01,2013-03-24 23:49:00,
2013-03-24 19:50:00,39.2,33.2,29.77,WSW,257,0.0,1.0,79,0.00,,---,0.00,VWS V14.01,2013-03-24 23:50:00,
2013-03-24 19:51:00,39.2,33.2,29.77,WSW,257,0.0,1.0,79,0.00,,---,0.00,VWS V14.01,2013-03-24 23:51:00,
2013-03-24 19:52:00,39.2,33.2,29.77,WSW,257,0.0,1.0,79,0.00,,---,0.00,VWS V14.01,2013-03-24 23:52:00,
2013-03-24 19:53:00,39.2,33.2,29.77,WSW,257,0.0,1.0,79,0.00,,---,0.00,VWS V14.01,2013-03-24 23:53:00,
2013-03-24 19:54:00,39.2,32.9,29.77,WSW,257,0.0,1.0,78,0.00,,---,0.00,VWS V14.01,2013-03-24 23:54:00,
2013-03-24 19:55:00,39.2,32.9,29.77,WSW,257,0.0,1.0,78,0.00,,---,0.00,VWS V14.01,2013-03-24 23:55:00,
2013-03-24 19:56:00,39.2,32.9,29.77,WSW,257,0.0,1.0,78,0.00,,---,0.00,VWS V14.01,2013-03-24 23:56:00,
2013-03-24 19:57:00,39.2,32.9,29.77,WSW,257,0.0,1.0,78,0.00,,---,0.00,VWS V14.01,2013-03-24 23:57:00,
2013-03-24 19:58:00,39.2,32.9,29.77,WSW,257,0.0,1.0,78,0.00,,---,0.00,VWS V14.01,2013-03-24 23:58:00,
2013-03-24 19:59:00,39.2,32.9,29.77,WSW,257,0.0,1.0,78,0.00,,---,0.00,VWS V14.01,2013-03-24 23:59:00,
2013-03-24 20:00:00,39.1,32.5,29.77,WSW,257,0.0,0.0,77,0.00,,---,0.00,VWS V14.01,2013-03-25 00:00:00,
2013-03-24 20:01:00,39.1,32.5,29.77,WSW,257,0.0,0.0,77,0.00,,---,0.00,VWS V14.01,2013-03-25 00:01:00,
2013-03-24 20:02:00,39.2,32.6,29.77,WSW,257,0.0,0.0,77,0.00,,---,0.00,VWS V14.01,2013-03-25 00:02:00,
2013-03-24 20:03:00,39.2,32.9,29.77,WSW,257,0.0,0.0,78,0.00,,---,0.00,VWS V14.01,2013-03-25 00:03:00,
2013-03-24 20:04:00,39.2,32.9,29.77,WSW,257,0.0,0.0,78,0.00,,---,0.00,VWS V14.01,2013-03-25 00:04:00,
2013-03-24 20:05:00,39.2,32.6,29.77,WSW,257,0.0,0.0,77,0.00,,---,0.00,VWS V14.01,2013-03-25 00:05:00,
2013-03-24 20:06:00,39.2,32.6,29.77,WSW,257,0.0,0.0,77,0.00,,---,0.00,VWS V14.01,2013-03-25 00:06:00,
2013-03-24 20:07:00,39.2,32.9,29.77,WSW,257,0.0,0.0,78,0.00,,---,0.00,VWS V14.01,2013-03-25 00:07:00,
2013-03-24 20:08:00,39.2,32.9,29.77,WSW,257,0.0,0.0,78,0.00,,---,0.00,VWS V14.01,2013-03-25 00:08:00,
2013-03-24 20:09:00,39.2,32.9,29.77,WSW,257,0.0,0.0,78,0.00,,---,0.00,VWS V14.01,2013-03-25 00:09:00,
2013-03-24 20:10:00,39.2,32.9,29.77,WSW,257,0.0,0.0,78,0.00,,---,0.00,VWS V14.01,2013-03-25 00:10:00,
2013-03-24 20:11:00,39.2,32.9,29.77,WSW,257,0.0,0.0,78,0.00,,---,0.00,VWS V14.01,2013-03-25 00:11:00,
2013-03-24 20:12:00,39.3,33.3,29.77,WSW,257,0.0,0.0,79,0.00,,---,0.00,VWS V14.01,2013-03-25 00:12:00,
2013-03-24 20:13:00,39.3,33.3,29.77,WSW,257,0.0,0.0,79,0.00,,---,0.00,VWS V14.01,2013-03-25 00:13:00,
2013-03-24 20:14:00,39.3,33.3,29.77,WSW,257,0.0,0.0,79,0.00,,---,0.00,VWS V14.01,2013-03-25 00:14:00,
2013-03-24 20:15:00,39.3,33.3,29.77,WSW,257,0.0,0.0,79,0.00,,---,0.00,VWS V14.01,2013-03-25 00:15:00,
2013-03-24 20:16:00,39.3,33.3,29.77,WSW,257,0.0,0.0,79,0.00,,---,0.00,VWS V14.01,2013-03-25 00:16:00,
2013-03-24 20:17:00,39.3,33.3,29.77,WSW,257,0.0,0.0,79,0.00,,---,0.00,VWS V14.01,2013-03-25 00:17:00,
2013-03-24 20:18:00,39.3,33.7,29.77,WSW,257,0.0,0.0,80,0.00,,---,0.00,VWS V14.01,2013-03-25 00:18:00,
2013-03-24 20:19:00,39.3,33.7,29.77,WSW,257,0.0,0.0,80,0.00,,---,0.00,VWS V14.01,2013-03-25 00:19:00,
2013-03-24 20:20:00,39.3,33.7,29.77,WSW,257,0.0,0.0,80,0.00,,---,0.00,VWS V14.01,2013-03-25 00:20:00,
2013-03-24 20:21:00,39.3,33.7,29.77,WSW,257,0.0,0.0,80,0.00,,---,0.00,VWS V14.01,2013-03-25 00:21:00,
2013-03-24 20:22:00,39.3,33.7,29.77,WSW,257,0.0,0.0,80,0.00,,---,0.00,VWS V14.01,2013-03-25 00:22:00,
2013-03-24 20:23:00,39.3,33.7,29.77,WSW,257,0.0,0.0,80,0.00,,---,0.00,VWS V14.01,2013-03-25 00:23:00,
2013-03-24 20:24:00,39.3,33.7,29.77,WSW,257,0.0,0.0,80,0.00,,---,0.00,VWS V14.01,2013-03-25 00:24:00,
2013-03-24 20:25:00,39.2,33.6,29.77,WSW,257,0.0,0.0,80,0.00,,---,0.00,VWS V14.01,2013-03-25 00:25:00,
2013-03-24 20:26:00,39.2,33.6,29.77,WSW,257,0.0,0.0,80,0.00,,---,0.00,VWS V14.01,2013-03-25 00:26:00,
2013-03-24 20:27:00,39.2,33.6,29.77,WSW,257,0.0,0.0,80,0.00,,---,0.00,VWS V14.01,2013-03-25 00:27:00,
2013-03-24 20:28:00,39.1,33.2,29.77,WSW,257,0.0,0.0,79,0.00,,---,0.00,VWS V14.01,2013-03-25 00:28:00,
2013-03-24 20:29:00,39.1,33.2,29.77,WSW,257,0.0,0.0,79,0.00,,---,0.00,VWS V14.01,2013-03-25 00:29:00,
2013-03-24 20:30:00,39.1,33.2,29.77,WSW,257,0.0,0.0,79,0.00,,---,0.00,VWS V14.01,2013-03-25 00:30:00,
2013-03-24 20:31:00,39.1,32.8,29.77,WSW,257,0.0,0.0,78,0.00,,---,0.00,VWS V14.01,2013-03-25 00:31:00,
2013-03-24 20:32:00,39.1,32.8,29.77,WSW,257,0.0,0.0,78,0.00,,---,0.00,VWS V14.01,2013-03-25 00:32:00,
2013-03-24 20:33:00,39.1,32.8,29.77,WSW,257,0.0,0.0,78,0.00,,---,0.00,VWS V14.01,2013-03-25 00:33:00,
2013-03-24 20:34:00,39.1,32.8,29.77,WSW,257,0.0,0.0,78,0.00,,---,0.00,VWS V14.01,2013-03-25 00:34:00,
2013-03-24 20:35:00,39.1,32.8,29.77,WSW,257,0.0,0.0,78,0.00,,---,0.00,VWS V14.01,2013-03-25 00:35:00,
2013-03-24 20:36:00,39.1,32.8,29.77,WSW,257,0.0,0.0,78,0.00,,---,0.00,VWS V14.01,2013-03-25 00:36:00,
2013-03-24 20:37:00,39.1,32.8,29.77,WSW,257,0.0,0.0,78,0.00,,---,0.00,VWS V14.01,2013-03-25 00:37:00,
2013-03-24 20:38:00,39.1,32.8,29.77,WSW,257,0.0,0.0,78,0.00,,---,0.00,VWS V14.01,2013-03-25 00:38:00,
2013-03-24 20:39:00,39.1,32.8,29.77,WSW,257,0.0,0.0,78,0.00,,---,0.00,VWS V14.01,2013-03-25 00:39:00,
2013-03-24 20:40:00,39.1,32.8,29.77,WSW,257,0.0,0.0,78,0.00,,---,0.00,VWS V14.01,2013-03-25 00:40:00,
2013-03-24 20:41:00,39.1,32.5,29.77,WSW,257,0.0,0.0,77,0.00,,---,0.00,VWS V14.01,2013-03-25 00:41:00,
2013-03-24 20:42:00,39.1,32.5,29.76,WSW,257,0.0,0.0,77,0.00,,---,0.00,VWS V14.01,2013-03-25 00:42:00,
2013-03-24 20:43:00,39.1,32.5,29.76,WSW,257,0.0,0.0,77,0.00,,---,0.00,VWS V14.01,2013-03-25 00:43:00,
2013-03-24 20:44:00,39.1,32.8,29.76,WSW,257,0.0,0.0,78,0.00,,---,0.00,VWS V14.01,2013-03-25 00:44:00,
2013-03-24 20:45:00,39.1,32.8,29.76,WSW,257,0.0,0.0,78,0.00,,---,0.00,VWS V14.01,2013-03-25 00:45:00,
2013-03-24 20:46:00,39.1,32.8,29.76,WSW,257,0.0,0.0,78,0.00,,---,0.00,VWS V14.01,2013-03-25 00:46:00,
2013-03-24 20:47:00,39.1,32.8,29.76,WSW,257,0.0,0.0,78,0.00,,---,0.00,VWS V14.01,2013-03-25 00:47:00,
2013-03-24 20:48:00,39.1,32.5,29.76,WSW,257,0.0,0.0,77,0.00,,---,0.00,VWS V14.01,2013-03-25 00:48:00,
2013-03-24 20:49:00,39.1,32.8,29.76,WSW,257,0.0,0.0,78,0.00,,---,0.00,VWS V14.01,2013-03-25 00:49:00,
2013-03-24 20:50:00,39.1,32.8,29.76,WSW,257,0.0,0.0,78,0.00,,---,0.00,VWS V14.01,2013-03-25 00:50:00,
2013-03-24 20:51:00,39.1,32.8,29.76,WSW,257,0.0,0.0,78,0.00,,---,0.00,VWS V14.01,2013-03-25 00:51:00,
2013-03-24 20:52:00,39.1,32.8,29.76,WSW,257,0.0,0.0,78,0.00,,---,0.00,VWS V14.01,2013-03-25 00:52:00,
2013-03-24 20:53:00,39.1,32.8,29.76,WSW,257,0.0,0.0,78,0.00,,---,0.00,VWS V14.01,2013-03-25 00:53:00,
2013-03-24 20:54:00,39.1,32.8,29.76,WSW,257,0.0,0.0,78,0.00,,---,0.00,VWS V14.01,2013-03-25 00:54:00,
2013-03-24 20:55:00,39.1,32.8,29.76,WSW,257,0.0,0.0,78,0.00,,---,0.00,VWS V14.01,2013-03-25 00:55:00,
2013-03-24 20:56:00,39.1,32.8,29.76,WSW,257,0.0,0.0,78,0.00,,---,0.00,VWS V14.01,2013-03-25 00:56:00,
2013-03-24 20:57:00,39.1,33.2,29.76,WSW,257,0.0,0.0,79,0.00,,---,0.00,VWS V14.01,2013-03-25 00:57:00,
2013-03-24 20:58:00,39.1,33.2,29.76,WSW,257,0.0,0.0,79,0.00,,---,0.00,VWS V14.01,2013-03-25 00:58:00,
2013-03-24 20:59:00,39.0,32.7,29.76,WSW,257,0.0,0.0,78,0.00,,---,0.00,VWS V14.01,2013-03-25 00:59:00,
2013-03-24 21:00:00,39.0,32.7,29.76,WSW,257,0.0,0.0,78,0.00,,---,0.00,VWS V14.01,2013-03-25 01:00:00,
2013-03-24 21:01:00,39.0,32.7,29.76,WSW,257,0.0,0.0,78,0.00,,---,0.00,VWS V14.01,2013-03-25 01:01:00,
2013-03-24 21:02:00,39.1,32.8,29.76,WSW,257,0.0,0.0,78,0.00,,---,0.00,VWS V14.01,2013-03-25 01:02:00,
2013-03-24 21:03:00,39.1,32.8,29.76,WSW,257,0.0,0.0,78,0.00,,---,0.00,VWS V14.01,2013-03-25 01:03:00,
2013-03-24 21:04:00,39.1,33.2,29.76,WSW,257,0.0,0.0,79,0.00,,---,0.00,VWS V14.01,2013-03-25 01:04:00,
2013-03-24 21:05:00,39.1,33.2,29.76,WSW,257,0.0,0.0,79,0.00,,---,0.00,VWS V14.01,2013-03-25 01:05:00,
2013-03-24 21:06:00,39.1,33.2,29.76,WSW,257,0.0,0.0,79,0.00,,---,0.00,VWS V14.01,2013-03-25 01:06:00,
2013-03-24 21:07:00,39.1,33.2,29.76,WSW,257,0.0,0.0,79,0.00,,---,0.00,VWS V14.01,2013-03-25 01:07:00,
2013-03-24 21:08:00,39.1,33.2,29.76,WSW,257,0.0,0.0,79,0.00,,---,0.00,VWS V14.01,2013-03-25 01:08:00,
2013-03-24 21:09:00,39.0,33.0,29.76,WSW,257,0.0,0.0,79,0.00,,---,0.00,VWS V14.01,2013-03-25 01:09:00,
2013-03-24 21:10:00,39.0,32.7,29.76,WSW,257,0.0,0.0,78,0.00,,---,0.00,VWS V14.01,2013-03-25 01:10:00,
2013-03-24 21:11:00,39.0,32.4,29.76,WSW,257,0.0,0.0,77,0.00,,---,0.00,VWS V14.01,2013-03-25 01:11:00,
2013-03-24 21:12:00,39.0,32.4,29.76,WSW,257,0.0,0.0,77,0.00,,---,0.00,VWS V14.01,2013-03-25 01:12:00,
2013-03-24 21:13:00,39.0,32.4,29.76,WSW,257,0.0,0.0,77,0.00,,---,0.00,VWS V14.01,2013-03-25 01:13:00,
2013-03-24 21:14:00,39.0,32.1,29.76,WSW,257,0.0,0.0,76,0.00,,---,0.00,VWS V14.01,2013-03-25 01:14:00,
2013-03-24 21:15:00,39.1,32.5,29.76,WSW,257,0.0,0.0,77,0.00,,---,0.00,VWS V14.01,2013-03-25 01:15:00,
2013-03-24 21:16:00,39.1,32.5,29.76,West,279,4.0,4.0,77,0.00,,---,0.00,VWS V14.01,2013-03-25 01:16:00,
2013-03-24 21:17:00,39.2,32.9,29.76,North,5,4.0,4.0,78,0.00,,---,0.00,VWS V14.01,2013-03-25 01:17:00,
2013-03-24 21:18:00,39.2,32.9,29.76,North,5,4.0,4.0,78,0.00,,---,0.00,VWS V14.01,2013-03-25 01:18:00,
2013-03-24 21:19:00,39.2,32.9,29.76,North,5,4.0,4.0,78,0.00,,---,0.00,VWS V14.01,2013-03-25 01:19:00,
2013-03-24 21:20:00,39.2,32.9,29.76,North,5,4.0,5.0,78,0.00,,---,0.00,VWS V14.01,2013-03-25 01:20:00,
2013-03-24 21:21:00,39.2,32.9,29.76,North,5,4.0,5.0,78,0.00,,---,0.00,VWS V14.01,2013-03-25 01:21:00,
2013-03-24 21:22:00,39.2,33.2,29.76,North,5,5.0,5.0,79,0.00,,---,0.00,VWS V14.01,2013-03-25 01:22:00,
2013-03-24 21:23:00,39.2,33.6,29.76,North,5,4.0,5.0,80,0.00,,---,0.00,VWS V14.01,2013-03-25 01:23:00,
2013-03-24 21:24:00,39.1,33.5,29.76,North,5,4.0,6.0,80,0.00,,---,0.00,VWS V14.01,2013-03-25 01:24:00,
2013-03-24 21:25:00,39.0,33.4,29.76,North,5,5.0,6.0,80,0.00,,---,0.00,VWS V14.01,2013-03-25 01:25:00,
2013-03-24 21:26:00,38.9,33.3,29.76,North,5,5.0,6.0,80,0.00,,---,0.00,VWS V14.01,2013-03-25 01:26:00,
2013-03-24 21:27:00,38.8,33.5,29.76,North,5,6.0,6.0,81,0.00,,---,0.00,VWS V14.01,2013-03-25 01:27:00,
2013-03-24 21:28:00,38.7,33.4,29.76,North,11,6.0,6.0,81,0.00,,---,0.00,VWS V14.01,2013-03-25 01:28:00,
2013-03-24 21:29:00,38.6,33.3,29.76,NNE,13,5.0,6.0,81,0.00,,---,0.00,VWS V14.01,2013-03-25 01:29:00,
2013-03-24 21:30:00,38.5,33.2,29.76,NNE,13,5.0,6.0,81,0.00,,---,0.00,VWS V14.01,2013-03-25 01:30:00,
2013-03-24 21:31:00,38.4,33.1,29.76,NNE,14,4.0,5.0,81,0.00,,---,0.00,VWS V14.01,2013-03-25 01:31:00,
2013-03-24 21:32:00,38.4,33.1,29.76,NNE,15,5.0,5.0,81,0.00,,---,0.00,VWS V14.01,2013-03-25 01:32:00,
2013-03-24 21:33:00,38.4,33.1,29.76,NNE,15,5.0,5.0,81,0.00,,---,0.00,VWS V14.01,2013-03-25 01:33:00,
2013-03-24 21:34:00,38.4,33.1,29.76,NNE,19,5.0,6.0,81,0.00,,---,0.00,VWS V14.01,2013-03-25 01:34:00,
2013-03-24 21:35:00,38.3,33.0,29.76,NNE,21,4.0,6.0,81,0.00,,---,0.00,VWS V14.01,2013-03-25 01:35:00,
2013-03-24 21:36:00,38.3,33.0,29.75,NNE,22,5.0,6.0,81,0.00,,---,0.00,VWS V14.01,2013-03-25 01:36:00,
2013-03-24 21:37:00,38.2,32.9,29.76,NNE,22,4.0,6.0,81,0.00,,---,0.00,VWS V14.01,2013-03-25 01:37:00,
2013-03-24 21:38:00,38.3,33.0,29.76,NNE,22,5.0,6.0,81,0.00,,---,0.00,VWS V14.01,2013-03-25 01:38:00,
2013-03-24 21:39:00,38.3,33.0,29.76,NNE,24,4.0,6.0,81,0.00,,---,0.00,VWS V14.01,2013-03-25 01:39:00,
2013-03-24 21:40:00,38.3,33.0,29.76,NNE,25,4.0,6.0,81,0.00,,---,0.00,VWS V14.01,2013-03-25 01:40:00,
2013-03-24 21:41:00,38.3,33.3,29.76,NNE,25,4.0,6.0,82,0.00,,---,0.00,VWS V14.01,2013-03-25 01:41:00,
2013-03-24 21:42:00,38.2,33.2,29.76,NNE,25,4.0,6.0,82,0.00,,---,0.00,VWS V14.01,2013-03-25 01:42:00,
2013-03-24 21:43:00,38.2,32.9,29.76,NNE,27,4.0,6.0,81,0.00,,---,0.00,VWS V14.01,2013-03-25 01:43:00,
2013-03-24 21:44:00,38.2,32.9,29.76,NNE,27,4.0,6.0,81,0.00,,---,0.00,VWS V14.01,2013-03-25 01:44:00,
2013-03-24 21:45:00,38.2,32.9,29.76,NNE,27,3.0,6.0,81,0.00,,---,0.00,VWS V14.01,2013-03-25 01:45:00,
2013-03-24 21:46:00,38.2,32.9,29.76,NNE,29,4.0,6.0,81,0.00,,---,0.00,VWS V14.01,2013-03-25 01:46:00,
2013-03-24 21:47:00,38.2,32.9,29.76,NE,50,5.0,6.0,81,0.00,,---,0.00,VWS V14.01,2013-03-25 01:47:00,
2013-03-24 21:48:00,38.1,32.8,29.76,NE,49,2.0,6.0,81,0.00,,---,0.00,VWS V14.01,2013-03-25 01:48:00,
2013-03-24 21:49:00,38.1,32.5,29.76,NE,49,2.0,6.0,80,0.00,,---,0.00,VWS V14.01,2013-03-25 01:49:00,
2013-03-24 21:50:00,38.1,32.5,29.76,NE,49,2.0,6.0,80,0.00,,---,0.00,VWS V14.01,2013-03-25 01:50:00,
2013-03-24 21:51:00,38.0,32.4,29.75,NE,47,3.0,6.0,80,0.00,,---,0.00,VWS V14.01,2013-03-25 01:51:00,
2013-03-24 21:52:00,38.0,32.1,29.75,NE,54,4.0,6.0,79,0.00,,---,0.00,VWS V14.01,2013-03-25 01:52:00,
2013-03-24 21:53:00,38.0,32.1,29.75,NE,47,4.0,6.0,79,0.00,,---,0.00,VWS V14.01,2013-03-25 01:53:00,
2013-03-24 21:54:00,38.0,32.1,29.75,NE,47,3.0,6.0,79,0.00,,---,0.00,VWS V14.01,2013-03-25 01:54:00,
2013-03-24 21:55:00,38.0,32.1,29.75,NE,44,6.0,6.0,79,0.00,,---,0.00,VWS V14.01,2013-03-25 01:55:00,
2013-03-24 21:56:00,38.0,32.1,29.75,NE,55,7.0,8.0,79,0.00,,---,0.00,VWS V14.01,2013-03-25 01:56:00,
2013-03-24 21:57:00,38.1,32.2,29.75,NE,54,5.0,8.0,79,0.00,,---,0.00,VWS V14.01,2013-03-25 01:57:00,
2013-03-24 21:58:00,38.0,32.1,29.75,ENE,58,2.0,8.0,79,0.00,,---,0.00,VWS V14.01,2013-03-25 01:58:00,
2013-03-24 21:59:00,38.0,32.1,29.75,NE,49,3.0,8.0,79,0.00,,---,0.00,VWS V14.01,2013-03-25 01:59:00,
2013-03-24 22:00:00,38.0,32.1,29.75,NE,40,1.0,8.0,79,0.00,,---,0.00,VWS V14.01,2013-03-25 02:00:00,
2013-03-24 22:01:00,37.9,32.0,29.75,NE,39,3.0,4.0,79,0.00,,---,0.00,VWS V14.01,2013-03-25 02:01:00,
2013-03-24 22:02:00,37.9,32.0,29.75,NE,36,2.0,4.0,79,0.00,,---,0.00,VWS V14.01,2013-03-25 02:02:00,
2013-03-24 22:03:00,37.9,32.0,29.75,NE,37,4.0,5.0,79,0.00,,---,0.00,VWS V14.01,2013-03-25 02:03:00,
2013-03-24 22:04:00,37.9,32.0,29.75,NE,37,3.0,5.0,79,0.00,,---,0.00,VWS V14.01,2013-03-25 02:04:00,
2013-03-24 22:05:00,37.9,32.0,29.75,NE,38,3.0,5.0,79,0.00,,---,0.00,VWS V14.01,2013-03-25 02:05:00,
2013-03-24 22:06:00,37.9,32.0,29.75,NE,39,3.0,5.0,79,0.00,,---,0.00,VWS V14.01,2013-03-25 02:06:00,
2013-03-24 22:07:00,37.8,31.9,29.75,NE,39,3.0,5.0,79,0.00,,---,0.00,VWS V14.01,2013-03-25 02:07:00,
2013-03-24 22:08:00,37.8,31.9,29.75,NE,40,2.0,5.0,79,0.00,,---,0.00,VWS V14.01,2013-03-25 02:08:00,
2013-03-24 22:09:00,37.8,31.9,29.75,NE,40,3.0,5.0,79,0.00,,---,0.00,VWS V14.01,2013-03-25 02:09:00,
2013-03-24 22:10:00,37.8,31.9,29.75,NE,38,3.0,5.0,79,0.00,,---,0.00,VWS V14.01,2013-03-25 02:10:00,
2013-03-24 22:11:00,37.7,31.8,29.75,NE,36,4.0,5.0,79,0.00,,---,0.00,VWS V14.01,2013-03-25 02:11:00,
2013-03-24 22:12:00,37.7,31.8,29.75,NE,37,5.0,5.0,79,0.00,,---,0.00,VWS V14.01,2013-03-25 02:12:00,
2013-03-24 22:13:00,37.8,32.2,29.75,NE,37,4.0,6.0,80,0.00,,---,0.00,VWS V14.01,2013-03-25 02:13:00,
2013-03-24 22:14:00,37.7,31.8,29.75,NE,38,4.0,6.0,79,0.00,,---,0.00,VWS V14.01,2013-03-25 02:14:00,
2013-03-24 22:15:00,37.8,32.2,29.75,NE,38,4.0,6.0,80,0.00,,---,0.00,VWS V14.01,2013-03-25 02:15:00,
2013-03-24 22:16:00,37.8,32.2,29.75,NE,37,5.0,6.0,80,0.00,,---,0.00,VWS V14.01,2013-03-25 02:16:00,
2013-03-24 22:17:00,37.8,32.2,29.75,NE,39,5.0,6.0,80,0.00,,---,0.00,VWS V14.01,2013-03-25 02:17:00,
2013-03-24 22:18:00,37.8,32.2,29.75,NE,39,6.0,6.0,80,0.00,,---,0.00,VWS V14.01,2013-03-25 02:18:00,
2013-03-24 22:19:00,37.8,32.2,29.75,NE,39,6.0,7.0,80,0.00,,---,0.00,VWS V14.01,2013-03-25 02:19:00,
2013-03-24 22:20:00,37.7,32.1,29.75,NE,39,5.0,7.0,80,0.00,,---,0.00,VWS V14.01,2013-03-25 02:20:00,
2013-03-24 22:21:00,37.8,32.2,29.75,NE,39,6.0,7.0,80,0.00,,---,0.00,VWS V14.01,2013-03-25 02:21:00,
2013-03-24 22:22:00,37.8,32.2,29.75,NE,39,5.0,7.0,80,0.00,,---,0.00,VWS V14.01,2013-03-25 02:22:00,
2013-03-24 22:23:00,37.8,32.2,29.75,NE,39,6.0,7.0,80,0.00,,---,0.00,VWS V14.01,2013-03-25 02:23:00,
2013-03-24 22:24:00,37.8,32.2,29.75,NE,39,5.0,7.0,80,0.00,,---,0.00,VWS V14.01,2013-03-25 02:24:00,
2013-03-24 22:25:00,37.8,32.2,29.75,NE,39,6.0,7.0,80,0.00,,---,0.00,VWS V14.01,2013-03-25 02:25:00,
2013-03-24 22:26:00,37.7,32.1,29.75,NE,39,6.0,7.0,80,0.00,,---,0.00,VWS V14.01,2013-03-25 02:26:00,
2013-03-24 22:27:00,37.7,32.1,29.75,NE,39,5.0,7.0,80,0.00,,---,0.00,VWS V14.01,2013-03-25 02:27:00,
2013-03-24 22:28:00,37.7,32.1,29.75,NE,43,5.0,7.0,80,0.00,,---,0.00,VWS V14.01,2013-03-25 02:28:00,
2013-03-24 22:29:00,37.7,32.1,29.75,NE,45,5.0,7.0,80,0.00,,---,0.00,VWS V14.01,2013-03-25 02:29:00,
2013-03-24 22:30:00,37.7,32.1,29.75,NE,44,6.0,7.0,80,0.00,,---,0.00,VWS V14.01,2013-03-25 02:30:00,
2013-03-24 22:31:00,37.6,32.0,29.75,NE,44,6.0,6.0,80,0.00,,---,0.00,VWS V14.01,2013-03-25 02:31:00,
2013-03-24 22:32:00,37.6,32.0,29.75,NE,44,4.0,6.0,80,0.00,,---,0.00,VWS V14.01,2013-03-25 02:32:00,
2013-03-24 22:33:00,37.6,32.0,29.75,NE,44,3.0,6.0,80,0.00,,---,0.00,VWS V14.01,2013-03-25 02:33:00,
2013-03-24 22:34:00,37.6,32.0,29.75,NE,52,4.0,6.0,80,0.00,,---,0.00,VWS V14.01,2013-03-25 02:34:00,
2013-03-24 22:35:00,37.6,32.0,29.75,NE,52,3.0,6.0,80,0.00,,---,0.00,VWS V14.01,2013-03-25 02:35:00,
2013-03-24 22:36:00,37.5,31.6,29.75,NE,50,3.0,6.0,79,0.00,,---,0.00,VWS V14.01,2013-03-25 02:36:00,
2013-03-24 22:37:00,37.5,31.6,29.75,NE,37,4.0,6.0,79,0.00,,---,0.00,VWS V14.01,2013-03-25 02:37:00,
2013-03-24 22:38:00,37.5,31.9,29.75,NE,35,4.0,6.0,80,0.00,,---,0.00,VWS V14.01,2013-03-25 02:38:00,
2013-03-24 22:39:00,37.6,32.0,29.75,NE,35,4.0,6.0,80,0.00,,---,0.00,VWS V14.01,2013-03-25 02:39:00,
2013-03-24 22:40:00,37.6,32.0,29.75,NE,35,5.0,6.0,80,0.00,,---,0.00,VWS V14.01,2013-03-25 02:40:00,
2013-03-24 22:41:00,37.6,32.0,29.75,NE,36,6.0,6.0,80,0.00,,---,0.00,VWS V14.01,2013-03-25 02:41:00,
2013-03-24 22:42:00,37.6,32.0,29.75,NE,36,4.0,6.0,80,0.00,,---,0.00,VWS V14.01,2013-03-25 02:42:00,
2013-03-24 22:43:00,37.6,32.0,29.75,NE,36,5.0,6.0,80,0.00,,---,0.00,VWS V14.01,2013-03-25 02:43:00,
2013-03-24 22:44:00,37.7,32.1,29.75,NE,36,6.0,6.0,80,0.00,,---,0.00,VWS V14.01,2013-03-25 02:44:00,
2013-03-24 22:45:00,37.7,32.1,29.74,NE,36,5.0,6.0,80,0.00,,---,0.00,VWS V14.01,2013-03-25 02:45:00,
2013-03-24 22:46:00,37.7,32.1,29.75,NE,36,6.0,6.0,80,0.00,,---,0.00,VWS V14.01,2013-03-25 02:46:00,
2013-03-24 22:47:00,37.7,32.1,29.75,NE,35,5.0,6.0,80,0.00,,---,0.00,VWS V14.01,2013-03-25 02:47:00,
2013-03-24 22:48:00,37.7,32.1,29.74,NNE,32,5.0,6.0,80,0.00,,---,0.00,VWS V14.01,2013-03-25 02:48:00,
2013-03-24 22:49:00,37.7,32.1,29.74,NNE,32,4.0,6.0,80,0.00,,---,0.00,VWS V14.01,2013-03-25 02:49:00,
2013-03-24 22:50:00,37.8,31.9,29.74,NNE,32,6.0,7.0,79,0.00,,---,0.00,VWS V14.01,2013-03-25 02:50:00,
2013-03-24 22:51:00,37.8,31.9,29.74,NNE,32,7.0,7.0,79,0.00,,---,0.00,VWS V14.01,2013-03-25 02:51:00,
2013-03-24 22:52:00,37.7,31.5,29.74,NNE,32,6.0,7.0,78,0.00,,---,0.00,VWS V14.01,2013-03-25 02:52:00,
2013-03-24 22:53:00,37.8,31.6,29.75,NNE,32,7.0,7.0,78,0.00,,---,0.00,VWS V14.01,2013-03-25 02:53:00,
2013-03-24 22:54:00,37.8,31.6,29.74,NNE,32,6.0,7.0,78,0.00,,---,0.00,VWS V14.01,2013-03-25 02:54:00,
2013-03-24 22:55:00,37.8,31.6,29.74,NNE,31,4.0,7.0,78,0.00,,---,0.00,VWS V14.01,2013-03-25 02:55:00,
2013-03-24 22:56:00,37.8,31.9,29.74,NNE,31,5.0,7.0,79,0.00,,---,0.00,VWS V14.01,2013-03-25 02:56:00,
2013-03-24 22:57:00,37.8,31.9,29.74,NNE,31,4.0,7.0,79,0.00,,---,0.00,VWS V14.01,2013-03-25 02:57:00,
2013-03-24 22:58:00,37.8,31.6,29.74,NNE,31,4.0,7.0,78,0.00,,---,0.00,VWS V14.01,2013-03-25 02:58:00,
2013-03-24 22:59:00,37.8,31.6,29.74,NNE,31,4.0,7.0,78,0.00,,---,0.00,VWS V14.01,2013-03-25 02:59:00,
2013-03-24 23:00:00,37.8,31.6,29.74,NNE,31,5.0,7.0,78,0.00,,---,0.00,VWS V14.01,2013-03-25 03:00:00,
2013-03-24 23:01:00,37.7,31.8,29.74,NNE,31,4.0,6.0,79,0.00,,---,0.00,VWS V14.01,2013-03-25 03:01:00,
2013-03-24 23:02:00,37.7,31.5,29.74,NNE,31,5.0,6.0,78,0.00,,---,0.00,VWS V14.01,2013-03-25 03:02:00,
2013-03-24 23:03:00,37.7,31.8,29.74,NNE,31,4.0,6.0,79,0.00,,---,0.00,VWS V14.01,2013-03-25 03:03:00,
2013-03-24 23:04:00,37.7,31.8,29.74,NNE,31,5.0,6.0,79,0.00,,---,0.00,VWS V14.01,2013-03-25 03:04:00,
2013-03-24 23:05:00,37.7,31.8,29.74,NNE,31,5.0,6.0,79,0.00,,---,0.00,VWS V14.01,2013-03-25 03:05:00,
2013-03-24 23:06:00,37.6,31.7,29.74,NNE,31,5.0,6.0,79,0.00,,---,0.00,VWS V14.01,2013-03-25 03:06:00,
2013-03-24 23:07:00,37.7,31.8,29.74,NE,34,7.0,7.0,79,0.00,,---,0.00,VWS V14.01,2013-03-25 03:07:00,
2013-03-24 23:08:00,37.6,31.7,29.74,NE,37,4.0,7.0,79,0.00,,---,0.00,VWS V14.01,2013-03-25 03:08:00,
2013-03-24 23:09:00,37.6,31.7,29.74,NE,37,5.0,7.0,79,0.00,,---,0.00,VWS V14.01,2013-03-25 03:09:00,
2013-03-24 23:10:00,37.6,31.7,29.74,NE,37,4.0,7.0,79,0.00,,---,0.00,VWS V14.01,2013-03-25 03:10:00,
2013-03-24 23:11:00,37.6,31.7,29.74,NE,38,4.0,7.0,79,0.00,,---,0.00,VWS V14.01,2013-03-25 03:11:00,
2013-03-24 23:12:00,37.6,31.7,29.74,NE,40,6.0,7.0,79,0.00,,---,0.00,VWS V14.01,2013-03-25 03:12:00,
2013-03-24 23:13:00,37.6,31.7,29.74,NE,42,5.0,7.0,79,0.00,,---,0.00,VWS V14.01,2013-03-25 03:13:00,
2013-03-24 23:14:00,37.6,31.7,29.74,NE,41,6.0,7.0,79,0.00,,---,0.00,VWS V14.01,2013-03-25 03:14:00,
2013-03-24 23:15:00,37.6,31.7,29.74,NE,41,6.0,7.0,79,0.00,,---,0.00,VWS V14.01,2013-03-25 03:15:00,
2013-03-24 23:16:00,37.5,31.6,29.74,NE,41,5.0,7.0,79,0.00,,---,0.00,VWS V14.01,2013-03-25 03:16:00,
2013-03-24 23:17:00,37.5,31.6,29.74,NE,37,6.0,7.0,79,0.00,,---,0.00,VWS V14.01,2013-03-25 03:17:00,
2013-03-24 23:18:00,37.5,31.3,29.74,NE,37,5.0,7.0,78,0.00,,---,0.00,VWS V14.01,2013-03-25 03:18:00,
2013-03-24 23:19:00,37.5,31.3,29.74,NE,38,6.0,7.0,78,0.00,,---,0.00,VWS V14.01,2013-03-25 03:19:00,
2013-03-24 23:20:00,37.5,31.3,29.74,NE,37,5.0,7.0,78,0.00,,---,0.00,VWS V14.01,2013-03-25 03:20:00,
2013-03-24 23:21:00,37.5,31.0,29.74,NE,37,6.0,7.0,77,0.00,,---,0.00,VWS V14.01,2013-03-25 03:21:00,
2013-03-24 23:22:00,37.5,31.0,29.74,NE,38,6.0,7.0,77,0.00,,---,0.00,VWS V14.01,2013-03-25 03:22:00,
2013-03-24 23:23:00,37.5,31.0,29.74,NE,38,6.0,7.0,77,0.00,,---,0.00,VWS V14.01,2013-03-25 03:23:00,
2013-03-24 23:24:00,37.6,31.1,29.74,NE,38,6.0,7.0,77,0.00,,---,0.00,VWS V14.01,2013-03-25 03:24:00,
2013-03-24 23:25:00,37.6,31.1,29.74,NE,42,5.0,7.0,77,0.00,,---,0.00,VWS V14.01,2013-03-25 03:25:00,
2013-03-24 23:26:00,37.5,31.0,29.74,NE,46,6.0,7.0,77,0.00,,---,0.00,VWS V14.01,2013-03-25 03:26:00,
2013-03-24 23:27:00,37.5,31.0,29.74,NE,43,4.0,7.0,77,0.00,,---,0.00,VWS V14.01,2013-03-25 03:27:00,
2013-03-24 23:28:00,37.5,31.0,29.74,NE,47,5.0,7.0,77,0.00,,---,0.00,VWS V14.01,2013-03-25 03:28:00,
2013-03-24 23:29:00,37.5,31.0,29.74,NE,49,5.0,7.0,77,0.00,,---,0.00,VWS V14.01,2013-03-25 03:29:00,
2013-03-24 23:30:00,37.5,31.0,29.74,NE,51,5.0,7.0,77,0.00,,---,0.00,VWS V14.01,2013-03-25 03:30:00,
2013-03-24 23:31:00,37.4,30.9,29.74,NE,51,5.0,5.0,77,0.00,,---,0.00,VWS V14.01,2013-03-25 03:31:00,
2013-03-24 23:32:00,37.4,30.9,29.74,NE,49,3.0,6.0,77,0.00,,---,0.00,VWS V14.01,2013-03-25 03:32:00,
2013-03-24 23:33:00,37.4,30.9,29.74,NE,49,3.0,6.0,77,0.00,,---,0.00,VWS V14.01,2013-03-25 03:33:00,
2013-03-24 23:34:00,37.4,30.9,29.74,NE,49,2.0,6.0,77,0.00,,---,0.00,VWS V14.01,2013-03-25 03:34:00,
2013-03-24 23:35:00,37.3,30.8,29.74,NE,44,4.0,6.0,77,0.00,,---,0.00,VWS V14.01,2013-03-25 03:35:00,
2013-03-24 23:36:00,37.3,30.8,29.74,NE,44,4.0,6.0,77,0.00,,---,0.00,VWS V14.01,2013-03-25 03:36:00,
2013-03-24 23:37:00,37.3,30.8,29.74,NE,45,6.0,6.0,77,0.00,,---,0.00,VWS V14.01,2013-03-25 03:37:00,
2013-03-24 23:38:00,37.3,30.8,29.74,NE,45,5.0,6.0,77,0.00,,---,0.00,VWS V14.01,2013-03-25 03:38:00,
2013-03-24 23:39:00,37.3,30.8,29.74,NE,41,5.0,6.0,77,0.00,,---,0.00,VWS V14.01,2013-03-25 03:39:00,
2013-03-24 23:40:00,37.3,30.8,29.74,NE,41,4.0,6.0,77,0.00,,---,0.00,VWS V14.01,2013-03-25 03:40:00,
2013-03-24 23:41:00,37.3,30.8,29.74,NE,42,4.0,6.0,77,0.00,,---,0.00,VWS V14.01,2013-03-25 03:41:00,
2013-03-24 23:42:00,37.3,31.1,29.74,NE,43,5.0,6.0,78,0.00,,---,0.00,VWS V14.01,2013-03-25 03:42:00,
2013-03-24 23:43:00,37.3,30.8,29.74,NE,37,4.0,6.0,77,0.00,,---,0.00,VWS V14.01,2013-03-25 03:43:00,
2013-03-24 23:44:00,37.3,30.8,29.74,NE,44,4.0,6.0,77,0.00,,---,0.00,VWS V14.01,2013-03-25 03:44:00,
2013-03-24 23:45:00,37.3,30.8,29.74,NE,44,4.0,6.0,77,0.00,,---,0.00,VWS V14.01,2013-03-25 03:45:00,
2013-03-24 23:46:00,37.3,30.8,29.74,NE,40,7.0,7.0,77,0.00,,---,0.00,VWS V14.01,2013-03-25 03:46:00,
2013-03-24 23:47:00,37.3,30.8,29.74,NE,40,6.0,7.0,77,0.00,,---,0.00,VWS V14.01,2013-03-25 03:47:00,
2013-03-24 23:48:00,37.3,30.8,29.74,NE,40,5.0,7.0,77,0.00,,---,0.00,VWS V14.01,2013-03-25 03:48:00,
2013-03-24 23:49:00,37.3,30.8,29.74,NE,40,5.0,7.0,77,0.00,,---,0.00,VWS V14.01,2013-03-25 03:49:00,
2013-03-24 23:50:00,37.2,30.7,29.74,NE,40,6.0,7.0,77,0.00,,---,0.00,VWS V14.01,2013-03-25 03:50:00,
2013-03-24 23:51:00,37.2,30.4,29.74,NE,40,5.0,7.0,76,0.00,,---,0.00,VWS V14.01,2013-03-25 03:51:00,
2013-03-24 23:52:00,37.3,30.4,29.74,NE,40,6.0,7.0,76,0.00,,---,0.00,VWS V14.01,2013-03-25 03:52:00,
2013-03-24 23:53:00,37.3,30.4,29.74,NE,40,6.0,7.0,76,0.00,,---,0.00,VWS V14.01,2013-03-25 03:53:00,
2013-03-24 23:54:00,37.3,30.4,29.74,NE,42,7.0,7.0,76,0.00,,---,0.00,VWS V14.01,2013-03-25 03:54:00,
2013-03-24 23:55:00,37.2,30.4,29.74,NE,51,6.0,7.0,76,0.00,,---,0.00,VWS V14.01,2013-03-25 03:55:00,
2013-03-24 23:56:00,37.2,30.4,29.74,NE,40,6.0,7.0,76,0.00,,---,0.00,VWS V14.01,2013-03-25 03:56:00,
2013-03-24 23:57:00,37.3,30.4,29.74,NE,48,5.0,7.0,76,0.00,,---,0.00,VWS V14.01,2013-03-25 03:57:00,
2013-03-24 23:58:00,37.2,30.4,29.74,NE,48,5.0,7.0,76,0.00,,---,0.00,VWS V14.01,2013-03-25 03:58:00,
2013-03-24 23:59:00,37.2,30.4,29.74,NE,41,6.0,7.0,76,0.00,,---,0.00,VWS V14.01,2013-03-25 03:59:00,